     2              OBSERVATION DATA    GPS                 RINEX VERSION / TYPE
teqc 2000Jul20 Karen Wendt 20030303 20:34:41UTC             PGM / RUN BY / DATE
                                                            COMMENT
L2: 1 -> 1; 150 -> 5; 250 -> 9                              COMMENT
L2: 1 -> 1; 150 -> 5; 250 -> 9                              COMMENT
L2: 1 -> 1; 150 -> 5; 250 -> 9                              COMMENT
L2: 1 -> 1; 150 -> 5; 250 -> 9                              COMMENT
L2: 1 -> 1; 150 -> 5; 250 -> 9                              COMMENT
L2: 1 -> 1; 150 -> 5; 250 -> 9                              COMMENT
L2: 1 -> 1; 150 -> 5; 250 -> 9                              COMMENT
L2: 1 -> 1; 150 -> 5; 250 -> 9                              COMMENT
L2: 1 -> 1; 150 -> 5; 250 -> 9                              COMMENT
L2: 1 -> 1; 150 -> 5; 250 -> 9                              COMMENT
L2: 1 -> 1; 150 -> 5; 250 -> 9                              COMMENT
L2: 1 -> 1; 150 -> 5; 250 -> 9                              COMMENT
L2: 1 -> 1; 150 -> 5; 250 -> 9                              COMMENT
L2: 1 -> 1; 150 -> 5; 250 -> 9                              COMMENT
Original Marker Name: sanh Sand_Hill_1939_1981_USC&GS       COMMENT
Campaign Name: USGS 2003                                    COMMENT
4-Character Station Name: SANH                              COMMENT
6-Character Antenna Code: DMRCHT                            COMMENT
Vertical Measurement Point: BCR                             COMMENT
Vertical Offset to Rinex Ref. Point: 0.0348                 COMMENT
Radial Measurement Point: ECF                               COMMENT
Radial Offset to Rinex Ref. Point: 0.1897                   COMMENT
Antenna Height from Field Measurement: 0.5840 m             COMMENT
Additional Antenna Identification Info.:                    COMMENT
Turborogue and Ashtech Choke Ring                           COMMENT
Original XYZ: -2336800.6836 -4732615.9950 3570340.6917      COMMENT
New XYZ position is based on association with SCEC monument COMMENT
E1F2G8K4+0012. Position of that monument is believed to be  COMMENT
valid to within 1 m horizontally; vertical accuracy         COMMENT
should be no worse than 3-times this value.                 COMMENT
                                                            COMMENT
Revised Rinex header created by UCSD GPS archive for        COMMENT
GSAC on 11-Jul-2003 (2003:192) 16:37:41 GMT                 COMMENT
For assistance contact dagnew@ucsd.edu                      COMMENT
or anderson@python.ucsd.edu                                 COMMENT
                                                            COMMENT
SANDHILL 1939 1981                                          MARKER NAME
JLS US GEOLOGICAL SURVEY                                    OBSERVER / AGENCY
04597 ASHTECH Z-XII3 CC00                                   REC # / TYPE / VERS
CR519993703 DORNE-MARGOL. TYPE T                            ANT # / TYPE
 -2336820.0038 -4732586.6672  3570330.0290                  APPROX POSITION XYZ
        0.5175        0.0000        0.0000                  ANTENNA: DELTA H/E/N
     1     1     0                                          WAVELENGTH FACT L1/2
     5    C1    L1    L2    P1    P2                        # / TYPES OF OBSERV
    30                                                      INTERVAL
  2003     2    27     0     1    0.000000                  TIME OF FIRST OBS
  2003     2    27    23    59   30.000000                  TIME OF LAST OBS
                                                            END OF HEADER
 03  2 27  0  1  0.0000000  0 10G 6G26G10G16G23G30G15G29G17G18
  20407729.323   -29977227.33549 -23316769.71348  20407728.793    20407734.603
  21731815.443   -22201959.81749 -17252808.04746  21731815.128    21731822.283
  24382679.781    -3064918.45149  -2369977.13745  24382678.612    24382688.976
  23960545.552   -12560704.39949  -9479753.15045  23960544.870    23960553.257
  20681299.909   -26118645.57049 -20320166.43948  20681299.025    20681305.143
  23931160.442   -10003580.59149  -7768767.66945  23931160.302    23931169.915
  22543601.232   -18521401.10649 -14133773.91646  22543600.260    22543608.297
  22679202.394   -17370218.84749 -13513066.95746  22679201.945    22679208.964
  21141279.019   -26247036.34449 -20422210.42147  21141278.108    21141284.772
  21998661.948   -20117579.19349 -15658207.95747  21998661.174    21998667.154
 03  2 27  0  1 30.0000000  0 10G 6G26G10G16G23G30G15G29G17G18
  20412988.315   -29949591.24449 -23295235.14048  20412987.783    20412993.607
  21725561.312   -22234825.31849 -17278417.49846  21725561.017    21725568.157
  24402739.651    -2959503.81749  -2287835.99645  24402738.485    24402748.822
  23952185.635   -12604635.81049  -9513985.39945  23952184.898    23952193.355
  20676670.729   -26142972.14449 -20339122.21048  20676669.849    20676675.959
  23950430.798    -9902314.70349  -7689859.36945  23950430.681    23950440.383
  22531505.264   -18584965.76749 -14183304.79846  22531504.274    22531512.315
  22680262.654   -17364647.41349 -13508725.59946  22680262.172    22680269.180
  21136411.964   -26272612.95849 -20442140.26047  21136411.037    21136417.711
  21983777.082   -20195799.47649 -15719158.77747  21983776.338    21983782.245
 03  2 27  0  2  0.0000000  0 10G 6G26G10G16G23G30G15G29G17G18
  20418339.298   -29921471.79749 -23273323.93348  20418338.768    20418344.605
  21719419.491   -22267100.73849 -17303567.14446  21719419.209    21719426.319
  24422805.793    -2854056.18349  -2205669.13745  24422804.594    24422815.012
  23943921.327   -12648065.07349  -9547826.37045  23943920.559    23943928.971
  20672130.561   -26166830.87849 -20357713.43148  20672129.692    20672135.788
  23969697.737    -9801066.83849  -7610965.13045  23969697.723    23969707.383
  22519430.498   -18648418.91149 -14232748.78346  22519429.523    22519437.532
  22681426.133   -17358533.74549 -13503961.71546  22681425.656    22681432.636
  21131572.887   -26298042.51249 -20461955.50347  21131571.967    21131578.657
  21968957.408   -20273677.29749 -15779842.74047  21968956.638    21968962.508
 03  2 27  0  2 30.0000000  0 10G 6G26G10G16G23G30G15G29G17G18
  20423782.144   -29892869.59549 -23251036.54148  20423781.610    20423787.472
  21713390.144   -22298784.96649 -17328256.13146  21713389.863    21713396.949
  24442877.630    -2748578.61549  -2123478.97345  24442876.438    24442886.766
  23935752.613   -12690991.81149  -9581275.76145  23935751.863    23935760.288
  20667679.232   -26190222.77049 -20375940.87648  20667678.354    20667684.449
  23988960.631    -9699840.52049  -7532087.68545  23988960.687    23988970.365
  22507376.830   -18711761.10349 -14282106.29846  22507375.838    22507383.889
  22682692.660   -17351878.44449 -13498775.77546  22682692.159    22682699.120
  21126761.534   -26323326.26949 -20481657.14047  21126760.628    21126767.317
  21954202.987   -20351212.17149 -15840259.47947  21954202.222    21954208.049
 03  2 27  0  3  0.0000000  0 10G 6G26G10G16G23G30G15G29G17G18
  20429316.879   -29863784.44149 -23228372.82648  20429316.348    20429322.232
  21707473.724   -22329875.93649 -17352482.83946  21707473.429    21707480.510
  24462954.864    -2643072.86349  -2041266.85445  24462953.659    24462963.953
  23927679.855   -12733414.51549  -9614332.38945  23927679.053    23927687.374
  20663316.680   -26213148.13249 -20393804.79048  20663315.804    20663321.913
  24008219.002    -9598638.28649  -7453229.00745  24008219.036    24008228.661
  22495344.298   -18774992.13149 -14331377.19646  22495343.298    22495351.354
  22684062.343   -17344681.09749 -13493167.46446  22684061.850    22684068.769
  21121978.046   -26348463.75149 -20501244.79847  21121977.130    21121983.834
  21939514.110   -20428402.67749 -15900407.87747  21939513.351    21939519.158
 03  2 27  0  3 30.0000000  0 10G 6G26G10G16G23G30G15G29G17G18
  20434943.755   -29834215.12349 -23205331.84647  20434943.223    20434949.113
  21701670.770   -22360370.56749 -17376244.86846  21701670.476    21701677.552
  24483037.275    -2537540.03049  -1959033.59945  24483036.016    24483046.294
  23919703.370   -12775331.18349  -9646994.70645  23919702.614    23919710.908
  20659043.007   -26235606.28949 -20411304.65648  20659042.133    20659048.240
  24027472.442    -9497461.76849  -7374390.37245  24027472.397    24027482.152
  22483333.187   -18838110.82249 -14380560.56746  22483332.193    22483340.277
  22685535.391   -17336940.37949 -13487135.75246  22685534.891    22685541.806
  21117222.583   -26373453.95449 -20520717.69847  21117221.672    21117228.345
  21924891.192   -20505246.52849 -15960286.15747  21924890.414    21924896.211
 03  2 27  0  4  0.0000000  0 10G 6G26G10G16G23G30G15G29G17G18
  20440662.090   -29804165.34649 -23181916.48147  20440661.544    20440667.444
  21695980.888   -22390270.95249 -17399543.84946  21695980.605    21695987.668
  24503123.606    -2431986.18549  -1876783.97445  24503122.311    24503132.514
  23911822.639   -12816744.65049  -9679264.92645  23911821.870    23911830.211
  20654857.443   -26257601.58849 -20428443.84748  20654856.570    20654862.698
  24046719.648    -9396317.70749  -7295577.02445  24046719.583    24046729.445
  22471342.633   -18901121.25649 -14429659.57346  22471341.654    22471349.717
  22687111.124   -17328660.01549 -13480683.53246  22687110.640    22687117.566
  21112494.477   -26398300.52349 -20540078.67047  21112493.555    21112500.222
  21910333.732   -20581746.35949 -16019896.37147  21910332.942    21910338.749
 03  2 27  0  4 30.0000000  0 10G 6G26G10G16G23G30G15G29G17G18
  20446472.814   -29773629.82349 -23158122.61447  20446472.262    20446478.194
  21690405.490   -22419569.90349 -17422374.17647  21690405.195    21690412.226
  24523214.665    -2326407.97249  -1794515.38645  24523213.362    24523223.455
  23904038.809   -12857648.67749  -9711138.15645  23904037.979    23904046.344
  20650760.912   -26279129.04849 -20445218.48748  20650760.026    20650766.150
  24065961.127    -9295203.52449  -7216786.97245  24065961.032    24065970.959
  22459373.742   -18964018.12649 -14478670.09546  22459372.759    22459380.795
  22688790.587   -17319834.47049 -13473806.49946  22688790.098    22688797.079
  21107794.650   -26422998.22849 -20559323.64147  21107793.718    21107800.372
  21895842.907   -20657895.97549 -16079233.68947  21895842.114    21895847.893
 03  2 27  0  5  0.0000000  0 10G 6G26G10G16G23G30G15G29G17G18
  20452375.497   -29742611.12549 -23133952.25347  20452374.965    20452380.897
  21684944.402   -22448268.09249 -17444736.38547  21684944.096    21684951.121
  24543309.486    -2220809.76649  -1712231.22345  24543308.151    24543318.354
  23896351.664   -12898044.82849  -9742615.64145  23896350.790    23896359.192
  20646752.841   -26300191.45349 -20461630.75148  20646751.961    20646758.112
  24085195.918    -9194124.48549  -7138024.29445  24085195.756    24085205.820
  22447426.035   -19026803.70449 -14527593.89546  22447425.011    22447433.065
  22690573.263   -17310466.13549 -13466506.51846  22690572.783    22690579.796
  21103122.706   -26447549.51449 -20578454.52647  21103121.793    21103128.418
  21881418.452   -20733696.85249 -16138299.27147  21881417.640    21881423.434
 03  2 27  0  5 30.0000000  0 10G 6G26G10G16G23G30G15G29G17G18
  20458370.061   -29711109.59949 -23109405.64747  20458369.525    20458375.467
  21679597.907   -22476364.09149 -17466629.35647  21679597.617    21679604.618
  24563407.548    -2115194.16349  -1629933.46745  24563406.348    24563416.328
  23888761.348   -12937932.16949  -9773696.64445  23888760.545    23888768.904
  20642833.110   -26320789.80549 -20477681.41048  20642832.235    20642838.382
  24104423.389    -9093083.66249  -7059291.40245  24104423.235    24104433.475
  22435499.478   -19089478.11849 -14576431.06946  22435498.458    22435506.475
  22692459.214   -17300555.26849 -13458783.78046  22692458.728    22692465.792
  21098478.526   -26471954.80049 -20597471.64247  21098477.598    21098484.268
  21867060.608   -20809147.70749 -16197092.10347  21867059.800    21867065.576
 03  2 27  0  6  0.0000000  0 10G 6G26G10G16G23G30G15G29G17G18
  20464456.678   -29679124.48349 -23084482.22647  20464456.142    20464462.095
  21674366.494   -22503855.24449 -17488051.02047  21674366.209    21674373.190
  24583508.661    -2009562.34849  -1547623.07845  24583507.481    24583517.555
  23881268.174   -12977308.82849  -9804379.71845  23881267.382    23881275.652
  20639001.710   -26340923.81149 -20493370.24548  20639000.837    20639006.999
  24123643.223    -8992082.98749  -6980589.80145  24123643.069    24123653.358
  22423594.244   -19152040.56549 -14625180.99546  22423593.220    22423601.219
  22694448.539   -17290101.11149 -13450637.71546  22694448.031    22694455.141
  21093862.377   -26496212.83049 -20616374.01747  21093861.454    21093868.115
  21852769.700   -20884246.68149 -16255610.74947  21852768.903    21852774.672
 03  2 27  0  6 30.0000000  0 10G 6G26G10G16G23G30G15G29G17G18
  20470635.371   -29646655.38149 -23059181.66747  20470634.814    20470640.801
  21669250.545   -22530739.57549 -17508999.82947  21669250.250    21669257.254
  24603612.417    -1903916.27949  -1465301.59045  24603611.334    24603621.501
  23873872.491   -13016173.34249  -9834663.70645  23873871.692    23873879.948
  20635258.635   -26360593.67149 -20508697.40948  20635257.768    20635263.932
  24142855.141    -8891124.69049  -6901921.20045  24142854.940    24142865.368
  22411710.332   -19214490.73749 -14673843.42946  22411709.327    22411717.292
  22696541.389   -17279103.14849 -13442067.89546  22696540.871    22696548.046
  21089274.163   -26520324.09049 -20635162.02547  21089273.230    21089279.922
  21838546.039   -20958992.39449 -16313854.11747  21838545.260    21838551.011
 03  2 27  0  7  0.0000000  0 10G 6G26G10G16G23G30G15G29G17G18
  20476905.737   -29613704.48549 -23033505.68947  20476905.203    20476911.190
  21664250.066   -22557017.22449 -17529475.89847  21664249.742    21664256.780
  24623718.233    -1798259.45249  -1382971.66145  24623717.085    24623727.497
  23866573.978   -13054527.05649  -9864549.67345  23866573.206    23866581.419
  20631603.414   -26379801.83349 -20523664.80748  20631602.549    20631608.717
  24162058.138    -8790213.60649  -6823289.40945  24162057.895    24162068.418
  22399847.407   -19276830.66049 -14722419.95646  22399846.409    22399854.379
  22698737.291   -17267563.43149 -13433075.93846  22698736.782    22698743.980
  21084713.661   -26544289.80249 -20653836.61647  21084712.747    21084719.442
  21824389.483   -21033385.39149 -16371822.64647  21824388.690    21824394.451
 03  2 27  0  7 30.0000000  0 10G 6G26G10G16G23G30G15G29G17G18
  20483268.391   -29580268.71149 -23007451.87947  20483267.859    20483273.855
  21659365.870   -22582683.54049 -17549475.61347  21659365.573    21659372.633
  24643826.308    -1692590.98249  -1300632.66345  24643825.155    24643835.712
  23859373.534   -13092365.74549  -9894034.32845  23859372.680    23859380.869
  20628036.544   -26398545.76549 -20538270.47248  20628035.668    20628041.863
  24181252.192    -8689349.32549  -6744694.09445  24181252.068    24181262.375
  22388006.065   -19339057.15949 -14770908.10746  22388005.076    22388013.062
  22701036.901   -17255478.74749 -13423659.33046  22701036.400    22701043.626
  21080181.323   -26568107.27849 -20672395.70647  21080180.425    21080187.121
  21810300.857   -21107421.50249 -16429513.08347  21810300.084    21810305.818
 03  2 27  0  8  0.0000000  0 10G 6G26G10G16G23G30G15G29G17G18
  20489722.754   -29546350.83649 -22981022.40747  20489722.230    20489728.222
  21654597.848   -22607739.45849 -17568999.68347  21654597.574    21654604.680
  24663935.714    -1586915.65949  -1218288.35745  24663934.573    24663945.012
  23852270.766   -13129690.95649  -9923118.85145  23852269.947    23852278.103
  20624557.404   -26416828.75449 -20552516.95648  20624556.547    20624562.735
  24200436.395    -8588537.15849  -6666139.40445  24200436.325    24200446.548
  22376185.857   -19401172.84949 -14819309.90946  22376184.850    22376192.839
  22703439.715   -17242851.91549 -13413820.26746  22703439.206    22703446.454
  21075676.773   -26591778.89049 -20690841.13347  21075675.873    21075682.578
  21796279.807   -21181102.33749 -16486926.68147  21796279.040    21796284.777
 03  2 27  0  8 30.0000000  0 10G 6G26G10G16G23G30G15G29G17G18
  20496269.011   -29511950.19749 -22954216.75347  20496268.479    20496274.505
  21649946.417   -22632182.71349 -17588046.34647  21649946.144    21649953.262
  24684046.257    -1481234.97249  -1135939.87445  24684045.101    24684055.462
  23845265.910   -13166501.36249  -9951802.23845  23845265.216    23845273.262
  20621166.045   -26434650.56949 -20566404.08148  20621165.175    20621171.369
  24219610.291    -8487779.09349  -6587626.85445  24219610.112    24219620.355
  22364386.881   -19463176.79049 -14867624.63046  22364385.868    22364393.845
  22705945.834   -17229682.15949 -13403558.14346  22705945.321    22705952.604
  21071200.157   -26615303.74149 -20709172.19647  21071199.242    21071205.961
  21782326.755   -21254425.96249 -16544061.92947  21782325.980    21782331.721
 03  2 27  0  9  0.0000000  0 10G 6G26G10G16G23G30G15G29G17G18
  20502907.107   -29477066.91049 -22927035.02147  20502906.573    20502912.612
  21645411.937   -22656011.48549 -17606614.20447  21645411.663    21645418.804
  24704157.393    -1375551.08049  -1053588.88345  24704156.198    24704166.447
  23838359.192   -13202796.16749  -9980083.87045  23838358.548    23838366.624
  20617862.299   -26452011.64549 -20579932.19248  20617861.432    20617867.637
  24238773.285    -8387077.91049  -6509158.63845  24238773.096    24238783.385
  22352609.216   -19525068.80949 -14915852.14146  22352608.181    22352616.116
  22708555.286   -17215969.51049 -13392872.98446  22708554.815    22708562.055
  21066751.524   -26638681.66149 -20727388.77347  21066750.602    21066757.298
  21768441.832   -21327391.59149 -16600918.22247  21768441.042    21768446.804
 03  2 27  0  9 30.0000000  0 10G 6G26G10G16G23G30G15G29G17G18
  20509637.036   -29441701.09149 -22899477.28847  20509636.494    20509642.549
  21640994.605   -22679224.39049 -17624702.15847  21640994.342    21641001.465
  24724268.877    -1269865.32249   -971236.47145  24724267.715    24724278.037
  23831550.785   -13238574.52049 -10007963.07045  23831550.141    23831558.142
  20614646.164   -26468912.65049 -20593101.80948  20614645.288    20614651.496
  24257924.927    -8286436.08149  -6430736.68245  24257924.817    24257935.066
  22340852.815   -19586849.01249 -14963992.53346  22340851.800    22340859.692
  22711268.028   -17201714.05549 -13381764.86546  22711267.557    22711274.755
  21062330.771   -26661912.95849 -20745491.10247  21062329.852    21062336.519
  21754625.259   -21399997.96549 -16657494.58147  21754624.477    21754630.227
 03  2 27  0 10  0.0000000  0  9G 6G26G16G23G30G15G29G17G18
  20516459.244   -29405850.23849 -22871541.59847  20516458.701    20516464.781
  21636695.367   -22701816.97949 -17642306.74547  21636695.107    21636702.206
  23824841.345   -13273832.65649 -10035436.90145  23824840.686    23824848.756
  20611517.963   -26485351.49349 -20605911.29748  20611517.084    20611523.300
  24277065.225    -8185853.68349  -6352361.02845  24277065.097    24277075.342
  22329118.258   -19648514.40549 -15012043.45446  22329117.274    22329125.129
  22714084.537   -17186913.31749 -13370231.84746  22714084.077    22714091.248
  21057938.439   -26684994.82749 -20763476.98747  21057937.513    21057944.161
  21740877.758   -21472241.40049 -16713788.12547  21740876.984    21740882.719
 03  2 27  0 10 30.0000000  0  9G 6G26G16G23G30G15G29G17G18
  20523373.273   -29369516.96849 -22843230.00647  20523372.725    20523378.819
  21632513.957   -22723790.24449 -17659428.75047  21632513.702    21632520.779
  23818230.563   -13308572.38849 -10062506.78345  23818229.892    23818238.010
  20608477.075   -26501331.29749 -20618363.09048  20608476.189    20608482.404
  24296193.287    -8085335.65049  -6274035.53045  24296193.226    24296203.584
  22317405.129   -19710067.15149 -15060006.60146  22317404.143    22317411.989
  22717004.363   -17171569.71449 -13358275.81546  22717003.895    22717011.048
  21053574.109   -26707929.64949 -20781348.29347  21053573.185    21053579.828
  21727199.067   -21544123.26749 -16769799.93147  21727198.304    21727204.035
 03  2 27  0 11  0.0000000  0  9G 6G26G16G23G30G15G29G17G18
  20530378.755   -29332703.03349 -22814543.86547  20530378.215    20530384.312
  21628450.402   -22745144.29149 -17676068.24147  21628450.145    21628457.171
  23811718.273   -13342794.53149 -10089173.36145  23811717.562    23811725.686
  20605523.151   -26516854.28049 -20630458.92248  20605522.264    20605528.484
  24315308.313    -7984886.31749  -6195763.55945  24315308.172    24315318.723
  22305713.118   -19771508.98249 -15107883.31346  22305712.107    22305719.954
  22720027.175   -17155684.95749 -13345898.10146  22720026.703    22720033.868
  21049237.494   -26730718.62249 -20799105.94147  21049236.567    21049243.257
  21713589.059   -21615644.08849 -16825530.40247  21713588.276    21713594.036
 03  2 27  0 11 30.0000000  0  9G 6G26G16G23G30G15G29G17G18
  20537475.881   -29295407.49649 -22785482.45547  20537475.342    20537481.452
  21624505.176   -22765876.33649 -17692223.06247  21624504.917    21624511.944
  23805304.847   -13376496.97649 -10115434.98045  23805304.091    23805312.305
  20602656.271   -26531919.85349 -20642198.33348  20602655.398    20602661.616
  24334410.000    -7884507.06349  -6117546.22045  24334409.868    24334420.483
  22294042.452   -19832838.51749 -15155672.53046  22294041.456    22294049.296
  22723153.118   -17139258.08849 -13333097.96546  22723152.659    22723159.816
  21044928.948   -26753360.23049 -20816748.76447  21044928.019    21044934.744
  21700048.193   -21686801.58549 -16880977.76447  21700047.410    21700053.162
 03  2 27  0 12  0.0000000  0  9G 6G26G16G23G30G15G29G17G18
  20544664.900   -29257629.14349 -22756044.83047  20544664.375    20544670.486
  21620678.858   -22785983.61549 -17707891.05447  21620678.616    21620685.597
  23798990.781   -13409677.35349 -10141289.79145  23798990.032    23798998.279
  20599876.605   -26546527.13249 -20653580.63748  20599875.743    20599881.954
  24353498.160    -7784199.10849  -6039384.43345  24353498.084    24353508.636
  22282393.492   -19894054.16249 -15203372.99746  22282392.501    22282400.329
  22726382.483   -17122287.81249 -13319874.39246  22726382.023    22726389.198
  21040648.719   -26775852.87649 -20834275.51547  21040647.803    21040654.549
  21686576.992   -21757593.14949 -16936139.98447  21686576.216    21686581.957
 03  2 27  0 12 30.0000000  0  9G 6G26G16G23G30G15G29G17G18
  20551945.246   -29219370.83449 -22726233.21047  20551944.705    20551950.836
  21616971.236   -22805467.30249 -17723073.13547  21616970.972    21616977.903
  23792775.726   -13442337.78849 -10166739.44745  23792774.865    23792783.139
  20597183.480   -26560679.55449 -20664608.50648  20597182.617    20597188.836
  24372571.847    -7683967.77649  -5961282.36345  24372571.689    24372582.244
  22270765.690   -19955158.65349 -15250986.85346  22270764.690    22270772.511
  22729714.718   -17104777.07649 -13306229.68446  22729714.246    22729721.401
  21036396.350   -26798199.34649 -20851688.35847  21036395.426    21036402.182
  21673175.036   -21828020.72549 -16991018.57947  21673174.264    21673180.011
 03  2 27  0 13  0.0000000  0  9G 6G26G16G23G30G15G29G17G18
  20559317.472   -29180629.66349 -22696045.33747  20559316.931    20559323.050
  21613383.127   -22824322.90949 -17737765.80147  21613382.866    21613389.722
  23786660.282   -13474474.38249 -10191780.94245  23786659.508    23786667.712
  20594577.389   -26574374.68549 -20675280.04648  20594576.531    20594582.728
  24391631.005    -7583812.51249  -5883239.56445  24391630.845    24391641.552
  22259159.698   -20016148.58049 -15298511.43646  22259158.695    22259166.480
  22733150.335   -17086723.03549 -13292161.62146  22733149.868    22733156.998
  21032172.403   -26820396.39849 -20868984.77547  21032171.481    21032178.220
  21659843.175   -21898080.07249 -17045610.24447  21659842.403    21659848.116
 03  2 27  0 13 30.0000000  0  9G 6G26G16G23G30G15G29G17G18
  20566780.755   -29141410.20249 -22665484.77347  20566780.214    20566786.330
  21609913.989   -22842553.35449 -17751971.32447  21609913.728    21609920.500
  23780643.859   -13506090.62349 -10216416.94445  23780643.123    23780651.309
  20592057.366   -26587617.56249 -20685599.17948  20592056.486    20592062.712
  24410674.324    -7483740.03949  -5805261.27745  24410674.062    24410684.869
  22247574.735   -20077028.00249 -15345949.90647  22247573.715    22247581.495
  22736688.520   -17068130.00049 -13277673.56346  22736688.078    22736695.131
  21027976.077   -26842448.33049 -20886168.10647  21027975.156    21027981.873
  21646580.762   -21967774.40649 -17099917.47547  21646579.995    21646585.688
 03  2 27  0 14  0.0000000  0  9G 6G26G16G23G30G15G29G17G18
  20574335.846   -29101708.07849 -22634548.10747  20574335.314    20574341.428
  21606565.013   -22860152.45549 -17765684.89647  21606564.746    21606571.462
  23774727.534   -13537181.15249 -10240643.30545  23774726.809    23774734.959
  20589624.203   -26600403.91749 -20695562.58648  20589623.350    20589629.568
  24429702.149    -7383748.17149  -5727345.80745  24429701.989    24429713.064
  22236011.738   -20137791.87249 -15393298.34447  22236010.730    22236018.440
  22740330.101   -17048993.72249 -13262762.20146  22740329.607    22740336.653
  21023808.389   -26864349.78449 -20903234.18947  21023807.471    21023814.167
  21633388.951   -22037097.90849 -17153935.75347  21633388.177    21633393.856
 03  2 27  0 14 30.0000000  0  9G 6G26G16G23G30G15G29G17G18
  20581982.294   -29061526.01149 -22603237.45747  20581981.760    20581987.881
  21603335.992   -22877121.21649 -17778907.29047  21603335.702    21603342.410
  23768910.858   -13567747.70149 -10264461.36545  23768910.157    23768918.339
  20587277.338   -26612736.95849 -20705172.75748  20587276.475    20587282.708
  24448713.823    -7283841.99149  -5649497.10645  24448713.697    24448724.877
  22224470.271   -20198442.49849 -15440558.53647  22224469.280    22224476.973
  22744074.564   -17029316.71249 -13247429.47946  22744074.055    22744081.045
  21019668.818   -26886103.45749 -20920185.11247  21019667.887    21019674.605
  21620267.362   -22106052.09749 -17207666.25647  21620266.571    21620272.279
 03  2 27  0 15  0.0000000  0  9G 6G26G16G23G30G15G29G17G18
  20589719.983   -29020864.39449 -22571553.13547  20589719.454    20589725.571
  21600227.107   -22893458.66749 -17791637.76347  21600226.824    21600233.500
  23763193.980   -13597789.90149 -10287870.85545  23763193.304    23763201.492
  20585016.529   -26624617.61849 -20714430.42648  20585015.670    20585021.888
  24467708.640    -7184024.25049  -5571717.29345  24467708.538    24467719.809
  22212950.328   -20258979.98249 -15487730.56247  22212949.335    22212956.985
  22747921.824   -17009099.55749 -13231675.88746  22747921.332    22747928.255
  21015557.370   -26907709.23149 -20937020.79247  21015556.443    21015563.142
  21607216.246   -22174636.10849 -17261108.31247  21607215.456    21607221.135
 03  2 27  0 15 30.0000000  0  9G 6G26G16G23G30G15G29G17G18
  20597548.970   -28979723.06949 -22539495.01047  20597548.434    20597554.568
  21597238.637   -22909163.13049 -17803875.00147  21597238.323    21597245.038
  23757577.130   -13627306.47349 -10310870.77345  23757576.473    23757584.606
  20582841.732   -26636046.22549 -20723335.84148  20582840.876    20582847.092
  24486686.330    -7084297.01349  -5494008.01045  24486686.209    24486697.578
  22201452.047   -20319403.82049 -15534814.03447  22201451.035    22201458.700
  22751871.857   -16988342.16349 -13215501.32046  22751871.357    22751878.279
  21011474.237   -26929166.41749 -20953740.68747  21011473.310    21011480.023
  21594235.839   -22242848.41349 -17314260.72647  21594235.052    21594240.735
 03  2 27  0 16  0.0000000  0  9G 6G26G16G23G30G15G29G17G18
  20605469.209   -28938102.13549 -22507063.15747  20605468.671    20605474.821
  21594370.913   -22924233.04249 -17815617.78347  21594370.598    21594377.351
  23752060.494   -13656296.69649 -10333460.52745  23752059.751    23752067.892
  20580752.913   -26647023.24649 -20731889.37148  20580752.052    20580758.258
  24505646.281    -6984662.58249  -5416371.06245  24505646.084    24505657.599
  22189975.466   -20379713.58549 -15581808.61846  22189974.450    22189982.096
  22755924.668   -16967044.62149 -13198905.85746  22755924.201    22755931.090
  21007419.468   -26950474.42549 -20970344.34247  21007418.547    21007425.254
  21581326.349   -22310688.04649 -17367122.74647  21581325.569    21581331.226
 03  2 27  0 16 30.0000000  0  9G 6G26G16G23G30G15G29G17G18
  20613480.630   -28896001.99649 -22474257.91247  20613480.105    20613486.254
  21591624.190   -22938667.19849 -17826865.18147  21591623.870    21591630.676
  23746644.090   -13684759.92849 -10355639.65945  23746643.281    23746651.492
  20578749.828   -26657549.54949 -20740091.69348  20578748.968    20578755.182
  24524588.043    -6885123.41449  -5338808.36845  24524587.851    24524599.568
  22178520.686   -20439908.68949 -15628713.86446  22178519.700    22178527.312
  22760080.212   -16945207.10649 -13181889.63946  22760079.734    22760086.662
  21003393.094   -26971633.06149 -20986831.60847  21003392.164    21003398.902
  21568487.973   -22378154.00649 -17419693.60547  21568487.197    21568492.849
 03  2 27  0 17  0.0000000  0  9G 6G26G16G23G30G15G29G17G18
  20621582.993   -28853424.10249 -22441080.39047  20621582.465    20621588.620
  21588998.445   -22952465.56049 -17837617.14247  21588998.128    21589004.946
  23741327.914   -13712696.63949 -10377408.50245  23741327.151    23741335.320
  20576832.132   -26667627.11949 -20747944.34748  20576831.266    20576837.478
  24543511.136    -6785683.15049  -5261322.70745  24543510.901    24543522.593
  22167087.534   -20499990.17949 -15675530.58346  22167086.555    22167094.159
  22764338.154   -16922831.44449 -13164454.09746  22764337.667    22764344.653
  20999395.076   -26992643.01649 -21003203.01447  20999394.152    20999400.861
  21555720.659   -22445246.57549 -17471973.50547  21555719.876    21555725.545
 03  2 27  0 17 30.0000000  0  9G 6G26G16G23G30G15G29G17G18
  20629776.442   -28810367.35149 -22407529.73247  20629775.903    20629782.074
  21586494.180   -22965625.43949 -17847871.59347  21586493.861    21586500.742
  23736112.277   -13740104.94949 -10398765.61345  23736111.532    23736119.732
  20574999.992   -26677255.20349 -20755446.75648  20574999.114    20575005.331
  24562415.207    -6686342.86749  -5183914.95345  24562415.073    24562426.797
  22155676.280   -20559956.64549 -15722257.66546  22155675.285    22155682.889
  22768698.699   -16899916.43749 -13146598.29746  22768698.248    22768705.275
  20995425.547   -27013503.12549 -21019457.66247  20995424.620    20995431.326
  21543024.839   -22511963.33849 -17523960.57047  21543024.055    21543029.736
 03  2 27  0 18  0.0000000  0  9G 6G26G16G23G30G15G29G17G18
  20638060.734   -28766833.50449 -22373607.31747  20638060.188    20638066.364
  21584111.366   -22978146.94049 -17857628.60647  21584111.051    21584117.999
  23730997.060   -13766985.53449 -10419711.51545  23730996.303    23731004.462
  20573252.999   -26686435.79049 -20762600.46448  20573252.124    20573258.334
  24581299.580    -6587106.14049  -5106587.87745  24581299.330    24581311.229
  22144286.684   -20619809.13449 -15768895.94146  22144285.680    22144293.278
  22773161.567   -16876463.81849 -13128323.56646  22773161.109    22773168.227
  20991484.338   -27034214.15949 -21035596.14347  20991483.418    20991490.128
  21530400.468   -22578304.60349 -17575655.04347  21530399.705    21530405.385
 03  2 27  0 18 30.0000000  0  9G 6G26G16G23G30G15G29G17G18
  20646435.846   -28722822.27449 -22339312.90947  20646435.300    20646441.485
  21581850.397   -22990028.34049 -17866886.83847  21581850.106    21581857.084
  23725982.557   -13793337.08349 -10440245.17745  23725981.815    23725989.891
  20571591.128   -26695169.06949 -20769405.61848  20571590.244    20571596.474
  24600163.825    -6487974.85649  -5029342.98245  24600163.561    24600175.503
  22132918.932   -20679546.72049 -15815444.68646  22132917.950    22132925.533
  22777726.792   -16852473.33649 -13109629.72746  22777726.298    22777733.502
  20987571.735   -27054775.04049 -21051617.62147  20987570.807    20987577.552
  21517847.887   -22644268.68749 -17627055.60647  21517847.124    21517852.825
 03  2 27  0 19  0.0000000  0  9G 6G26G16G23G30G15G29G17G18
  20654901.604   -28678334.71949 -22304647.34147  20654901.059    20654907.242
  21579711.357   -23001269.02949 -17875645.81747  21579711.067    21579718.057
  23721068.654   -13819159.62149 -10460366.62245  23721067.856    23721075.850
  20570014.087   -26703456.49449 -20775863.35748  20570013.186    20570019.422
  24619007.475    -6388952.02849  -4952182.59745  24619007.246    24619019.150
  22121573.023   -20739169.68449 -15861904.11946  22121572.034    22121579.641
  22782394.196   -16827945.89349 -13090517.46646  22782393.727    22782400.979
  20983687.622   -27075186.27149 -21067522.49447  20983686.716    20983693.441
  21505367.214   -22709854.97849 -17678161.78547  21505366.445    21505372.147
 03  2 27  0 19 30.0000000  0  9G 6G26G16G23G30G15G29G17G18
  20663457.969   -28633370.83349 -22269610.61447  20663457.426    20663463.620
  21577694.505   -23011867.65149 -17883904.48947  21577694.233    21577701.203
  23716255.623   -13844452.41649 -10480075.27245  23716254.888    23716262.808
  20568521.798   -26711298.43549 -20781973.96448  20568520.899    20568527.153
  24637830.067    -6290039.60249  -4875108.24645  24637829.874    24637841.714
  22110249.121   -20798677.04849 -15908273.46646  22110248.124    22110255.709
  22787163.775   -16802881.51349 -13070986.83346  22787163.295    22787170.594
  20979832.072   -27095447.34149 -21083310.36047  20979831.165    20979837.904
  21492958.627   -22775062.49049 -17728972.81447  21492957.835    21492963.556
 03  2 27  0 20  0.0000000  0  9G 6G26G16G23G30G15G29G17G18
  20672104.818   -28587931.59849 -22234203.47647  20672104.270    20672110.482
  21575799.966   -23021823.53849 -17891662.32347  21575799.705    21575806.687
  23711543.338   -13869215.50249 -10499371.17045  23711542.551    23711550.583
  20567114.061   -26718696.17049 -20787738.43348  20567113.174    20567119.426
  24656631.098    -6191240.64049  -4798122.28045  24656630.959    24656642.698
  22098947.169   -20858069.18949 -15954553.03146  22098946.158    22098953.734
  22792035.301   -16777281.44849 -13051038.77346  22792034.823    22792042.140
  20976005.165   -27115558.00549 -21098981.02247  20976004.244    20976010.980
  21480622.147   -22839890.94249 -17779488.46747  21480621.365    21480627.085
 03  2 27  0 20 30.0000000  0  9G 6G26G16G23G30G15G29G17G18
  20680842.049   -28542017.41849 -22198426.25747  20680841.511    20680847.742
  21574027.914   -23031135.78949 -17898918.62747  21574027.631    21574034.624
  23706931.973   -13893448.24449 -10518253.81045  23706931.173    23706939.262
  20565790.646   -26725650.68549 -20793157.54348  20565789.770    20565796.029
  24675410.200    -6092557.38949  -4721226.49945  24675410.069    24675422.155
  22087667.150   -20917345.89249 -16000742.63646  22087666.147    22087673.733
  22797008.724   -16751145.98049 -13030673.51346  22797008.259    22797015.565
  20972206.923   -27135518.02049 -21114534.29847  20972205.994    20972212.746
  21468357.990   -22904339.40049 -17829708.02747  21468357.216    21468362.937
 03  2 27  0 21  0.0000000  0  8G 6G26G16G23G15G29G17G18
  20689670.379   -28495624.26049 -22162275.80647  20689669.850    20689676.103
  21572379.435   -23039798.75549 -17905668.98647  21572379.133    21572386.130
  23702422.453   -13917145.94949 -10536719.54045  23702421.635    23702429.592
  20564552.291   -26732158.31149 -20798228.42248  20564551.407    20564557.691
  22076410.025   -20976502.27249 -16046838.49446  22076409.030    22076416.620
  22802084.799   -16724471.26249 -13009888.05646  22802084.305    22802091.651
  20968438.245   -27155322.62249 -21129966.46947  20968437.323    20968444.074
  21456167.182   -22968402.30649 -17879627.14947  21456166.395    21456172.119
 03  2 27  0 21 30.0000000  0  8G 6G26G16G23G15G29G17G18
  20698589.548   -28448753.91549 -22125753.51047  20698589.015    20698595.307
  21570854.367   -23047812.98549 -17911913.84047  21570854.078    21570861.034
  23698014.581   -13940309.35449 -10554768.92845  23698013.836    23698021.922
  20563398.556   -26738221.27549 -20802952.81348  20563397.676    20563403.959
  22065175.558   -21035539.55849 -16092841.54046  22065174.538    22065182.195
  22807263.104   -16697259.21649 -12988683.90246  22807262.601    22807269.967
  20964698.865   -27174973.22549 -21145278.63647  20964697.952    20964704.702
  21444049.633   -23032080.34149 -17929246.37447  21444048.844    21444054.563
 03  2 27  0 22  0.0000000  0  8G 6G26G16G23G15G29G17G18
  20707598.148   -28401413.54849 -22088864.96847  20707597.618    20707603.933
  21569451.723   -23055183.96149 -17917657.45547  21569451.439    21569458.403
  23693707.195   -13962944.69249 -10572406.82745  23693706.459    23693714.541
  20562328.005   -26743846.96549 -20807336.47248  20562327.127    20562333.421
  22053962.575   -21094463.79949 -16138756.50446  22053961.570    22053969.235
  22812542.302   -16669516.90849 -12967066.56146  22812541.786    22812549.163
  20960987.717   -27194475.45049 -21160475.18847  20960986.781    20960993.575
  21432004.248   -23095379.20449 -17978570.13747  21432003.463    21432009.174
 03  2 27  0 22 30.0000000  0  8G 6G26G16G23G15G29G17G18
  20716696.421   -28353601.89649 -22051609.18947  20716695.890    20716702.216
  21568171.951   -23061909.12549 -17922897.84147  21568171.655    21568178.650
  23689500.729   -13985049.88849 -10589631.64945  23689499.942    23689507.957
  20561340.808   -26749034.72949 -20811378.89348  20561339.921    20561346.230
  22042771.504   -21153273.11149 -16184581.91747  22042770.498    22042778.176
  22817922.662   -16641243.15049 -12945035.10446  22817922.191    22817929.518
  20957305.146   -27213827.50449 -21175554.72447  20957304.220    20957311.026
  21420031.520   -23158296.26549 -18027596.39247  21420030.731    21420036.427
 03  2 27  0 23  0.0000000  0  8G 6G26G16G23G15G29G17G18
  20725884.155   -28305320.19549 -22013987.13447  20725883.629    20725889.969
  21567015.093   -23067988.31749 -17927634.87047  21567014.786    21567021.818
  23685395.044   -14006625.35149 -10606443.69045  23685394.223    23685402.155
  20560436.645   -26753786.06349 -20815081.23548  20560435.757    20560442.067
  22031602.269   -21211967.84449 -16230318.04147  22031601.270    22031608.906
  22823403.873   -16612439.50949 -12922590.75046  22823403.397    22823410.732
  20953651.013   -27233030.09049 -21190517.79247  20953650.090    20953656.907
  21408131.470   -23220831.28649 -18076324.95447  21408130.670    21408136.370
 03  2 27  0 23 30.0000000  0  8G 6G26G16G23G15G29G17G18
  20735161.668   -28256566.79049 -21975997.52447  20735161.147    20735167.486
  21565981.772   -23073418.48749 -17931866.17547  21565981.482    21565988.504
  23681390.666   -14027668.36649 -10622840.83445  23681389.765    23681397.593
  20559615.786   -26758099.64749 -20818442.48048  20559614.905    20559621.206
  22020455.268   -21270545.64549 -16275963.06047  22020454.257    22020461.877
  22828986.304   -16583104.20449 -12899732.10346  22828985.801    22828993.125
  20950025.976   -27252079.88749 -21205361.80647  20950025.049    20950031.878
  21396304.705   -23282981.28049 -18124753.49647  21396303.907    21396309.593
 03  2 27  0 24  0.0000000  0  8G 6G26G16G23G15G29G17G18
  20744528.607   -28207343.40649 -21937641.68547  20744528.082    20744534.429
  21565071.843   -23078200.13749 -17935592.13047  21565071.561    21565078.586
  23677487.460   -14048179.89449 -10638823.82945  23677486.468    23677494.457
  20558877.820   -26761977.74049 -20821464.38048  20558876.936    20558883.244
  22009330.441   -21329007.09849 -16321517.41147  22009329.418    22009337.032
  22834669.502   -16553239.01049 -12876460.55246  22834669.017    22834676.354
  20946429.683   -27270978.47949 -21220087.99647  20946428.749    20946435.588
  21384551.127   -23344746.65649 -18172882.33547  21384550.334    21384555.987
 03  2 27  0 24 30.0000000  0  8G 6G26G16G23G15G29G17G18
  20753985.096   -28157649.40149 -21898919.13547  20753984.575    20753990.920
  21564285.760   -23082331.06449 -17938811.03447  21564285.466    21564292.521
  23673685.632   -14068158.62049 -10654391.67645  23673684.679    23673692.738
  20558222.793   -26765419.99649 -20824146.66848  20558221.919    20558228.219
  21998228.035   -21387350.54749 -16366979.81547  21998227.014    21998234.609
  22840453.636   -16522843.46649 -12852775.73746  22840453.143    22840460.495
  20942862.551   -27289723.91849 -21234694.84647  20942861.629    20942868.479
  21372871.104   -23406125.46549 -18220709.95847  21372870.310    21372875.947
 03  2 27  0 25  0.0000000  0  8G 6G26G16G23G15G29G17G18
  20763530.663   -28107487.32349 -21859831.86247  20763530.137    20763536.496
  21563623.309   -23085812.33849 -17941523.70647  21563623.015    21563630.022
  23669984.956   -14087605.91249 -10669545.40845  23669984.001    23669992.226
  20557650.154   -26768429.22249 -20826491.52548  20557649.286    20557655.596
  21987147.740   -21445577.82649 -16412351.68947  21987146.725    21987154.334
  22846338.181   -16491920.04549 -12828679.60146  22846337.709    22846345.041
  20939324.392   -27308317.20549 -21249183.13147  20939323.468    20939330.310
  21361264.432   -23467118.79649 -18268237.20047  21361263.625    21361269.257
 03  2 27  0 25 30.0000000  0  8G 6G26G16G23G15G29G17G18
  20773165.459   -28056856.28349 -21820379.15647  20773164.927    20773171.312
  21563084.860   -23088641.82949 -17943728.49847  21563084.567    21563091.548
  23666385.763   -14106519.79349 -10684283.50145  23666384.803    23666392.899
  20557160.021   -26771004.92049 -20828498.56748  20557159.145    20557165.460
  21976089.876   -21503687.07149 -16457631.59147  21976088.880    21976096.487
  22852323.381   -16460467.97849 -12804171.53146  22852322.906    22852330.210
  20935815.372   -27326757.15449 -21263551.93747  20935814.447    20935821.272
  21349731.552   -23527724.46149 -18315462.37047  21349730.739    21349736.349
 03  2 27  0 26  0.0000000  0  8G 6G26G16G23G15G29G17G18
  20782889.376   -28005756.97849 -21780561.56647  20782888.835    20782895.242
  21562670.642   -23090818.74649 -17945424.78247  21562670.324    21562677.298
  23662888.070   -14124900.47649 -10698606.13345  23662887.193    23662895.322
  20556752.213   -26773148.05049 -20830168.54448  20556751.317    20556757.626
  21965054.617   -21561677.75249 -16502819.11147  21965053.630    21965061.234
  22858408.981   -16428488.16149 -12779252.21246  22858408.493    22858415.735
  20932335.694   -27345043.06249 -21277800.70747  20932334.776    20932341.621
  21338272.574   -23587941.64449 -18362384.82647  21338271.782    21338277.356
 03  2 27  0 26 30.0000000  0  8G 6G26G16G23G15G29G17G18
  20792702.090   -27954191.00549 -21740380.34247  20792701.552    20792707.957
  21562380.493   -23092343.55849 -17946612.93747  21562380.155    21562387.124
  23659491.681   -14142748.55049 -10712513.71345  23659490.945    23659499.101
  20556426.346   -26774860.47449 -20831502.89748  20556425.473    20556431.758
  21954041.767   -21619550.67649 -16547914.86447  21954040.774    21954048.339
  22864594.648   -16395982.31549 -12753922.98846  22864594.180    22864601.394
  20928885.203   -27363175.56849 -21291929.94047  20928884.285    20928891.116
  21326887.530   -23647770.33449 -18409004.55847  21326886.724    21326892.314
 03  2 27  0 27  0.0000000  0  8G 6G26G16G23G15G29G17G18
  20802603.649   -27902158.23149 -21699835.37647  20802603.108    20802609.535
  21562214.699   -23093214.73749 -17947291.76347  21562214.360    21562221.273
  23656196.810   -14160063.24749 -10726005.70545  23656196.206    23656204.126
  20556182.408   -26776142.49349 -20832501.87248  20556181.512    20556187.806
  21943051.554   -21677304.65349 -16592917.93247  21943050.552    21943058.077
  22870880.458   -16362950.25149 -12728183.74646  22870879.959    22870887.141
  20925464.039   -27381153.90949 -21305939.04047  20925463.113    20925469.981
  21315576.671   -23707209.07349 -18455320.43747  21315575.874    21315581.440
 03  2 27  0 27 30.0000000  0  8G 6G26G16G23G15G29G17G18
  20812593.628   -27849660.58649 -21658928.17547  20812593.092    20812599.537
  21562173.137   -23093433.05449 -17947461.87147  21562172.798    21562179.651
  23653003.270   -14176845.54249 -10739082.79645  23653002.567    23653010.614
  20556019.915   -26776996.42649 -20833167.27948  20556019.024    20556025.297
  21932083.841   -21734940.36849 -16637828.84547  21932082.815    21932090.313
  22877266.013   -16329393.95449 -12702036.01246  22877265.509    22877272.624
  20922072.170   -27398978.19549 -21319828.09547  20922071.252    20922078.142
  21304339.911   -23766258.58049 -18501333.01447  21304339.113    21304344.682
 03  2 27  0 28  0.0000000  0  8G 6G26G16G23G15G29G17G18
  20822672.157   -27796697.82849 -21617658.55047  20822671.624    20822678.052
  21562256.130   -23092996.85649 -17947121.96147  21562255.791    21562262.598
  23649911.226   -14193094.17049 -10751744.06345  23649910.498    23649918.524
  20555938.891   -26777422.28249 -20833499.11748  20555938.000    20555944.273
  21921138.901   -21792456.39649 -16682646.49747  21921137.882    21921145.371
  22883751.325   -16295313.41849 -12675479.77746  22883750.839    22883757.903
  20918709.879   -27416647.28049 -21333596.20947  20918708.969    20918715.849
  21293177.510   -23824917.19449 -18547040.99947  21293176.701    21293182.263
 03  2 27  0 28 30.0000000  0  8G 6G26G16G23G15G29G17G18
  20832839.139   -27743270.17049 -21576026.66947  20832838.586    20832845.060
  21562463.884   -23091904.91349 -17946271.08047  21562463.537    21562470.355
  23646920.856   -14208808.42249 -10763988.93245  23646920.148    23646928.191
  20555939.214   -26777420.52449 -20833497.74848  20555938.330    20555944.582
  21910216.862   -21849851.89649 -16727370.22147  21910215.843    21910223.356
  22890336.353   -16260708.87049 -12648515.20646  22890335.910    22890342.909
  20915377.330   -27434159.87649 -21347242.38047  20915376.416    20915383.293
  21282089.826   -23883183.26349 -18592443.10447  21282089.026    21282094.579
 03  2 27  0 29  0.0000000  0  8G 6G26G16G23G15G29G17G18
  20843094.097   -27689380.22649 -21534034.56747  20843093.556    20843100.046
  21562796.098   -23090158.87949 -17944910.51947  21562795.757    21562802.614
  23644031.837   -14223990.36649 -10775819.01245  23644031.048    23644039.184
  20556020.327   -26776994.24449 -20833165.58248  20556019.444    20556025.706
  21899317.459   -21907128.40749 -16772001.22647  21899316.439    21899323.978
  22897020.602   -16225583.07949 -12621144.47746  22897020.163    22897027.109
  20912074.183   -27451518.12949 -21360768.28447  20912073.253    20912080.107
  21271076.504   -23941058.48349 -18637540.65347  21271075.701    21271081.249
 03  2 27  0 29 30.0000000  0  8G 6G26G16G23G15G29G17G18
  20853436.996   -27635028.12549 -21491682.33947  20853436.446    20853442.961
  21563252.996   -23087757.51949 -17943039.30347  21563252.671    21563259.535
  23641244.220   -14238639.37849 -10787233.82345  23641243.487    23641251.449
  20556182.162   -26776143.86449 -20832502.95048  20556181.272    20556187.518
  21888440.892   -21964284.98949 -16816538.76747  21888439.878    21888447.417
  22903803.977   -16189936.29249 -12593367.77546  22903803.517    22903810.527
  20908800.702   -27468720.32349 -21374172.58147  20908799.769    20908806.623
  21260137.836   -23998541.50049 -18682332.58147  21260137.034    21260142.595
 03  2 27  0 30  0.0000000  0  8G 6G26G16G23G15G29G17G18
  20863867.756   -27580214.26449 -21448970.30247  20863867.215    20863873.753
  21563834.782   -23084700.08149 -17940656.87047  21563834.488    21563841.329
  23638558.105   -14252754.88549 -10798232.91045  23638557.398    23638565.358
  20556424.559   -26774870.09049 -20831510.40248  20556423.664    20556429.905
  21877587.276   -22021320.98649 -16860982.35647  21877586.252    21877593.796
  22910686.364   -16153769.23549 -12565185.67246  22910685.883    22910692.925
  20905557.022   -27485766.05349 -21387454.96347  20905556.095    20905562.934
  21249273.963   -24055631.38249 -18726818.17547  21249273.154    21249278.717
 03  2 27  0 30 30.0000000  0  8G 6G26G16G23G15G29G17G18
  20874386.150   -27524939.98049 -21405899.48847  20874385.614    20874392.163
  21564541.391   -23080986.60649 -17937763.24447  21564541.099    21564547.968
  23635973.395   -14266337.62549 -10808816.87245  23635972.686    23635980.664
  20556747.222   -26773174.50349 -20830189.16448  20556746.321    20556752.561
  21866756.614   -22078236.43249 -16905332.00547  21866755.590    21866763.153
  22917667.517   -16117083.01649 -12536599.03446  22917667.009    22917674.180
  20902343.150   -27502655.14449 -21400615.28547  20902342.220    20902349.053
  21238484.964   -24112327.81449 -18770997.18647  21238484.163    21238489.737
 03  2 27  0 31  0.0000000  0  8G 6G26G16G23G15G29G17G18
  20884991.817   -27469206.99449 -21362471.24647  20884991.281    20884997.860
  21565372.737   -23076617.83749 -17934358.99147  21565372.443    21565379.310
  23633489.921   -14279388.26349 -10818986.19445  23633489.196    23633497.150
  20557149.736   -26771059.23749 -20828540.90348  20557148.842    20557155.068
  21855948.725   -22135031.91749 -16949588.18147  21855947.702    21855955.265
  22924747.035   -16079879.84549 -12507609.57746  22924746.528    22924753.806
  20899158.936   -27519388.29849 -21413654.09947  20899158.014    20899164.862
  21227770.765   -24168631.11549 -18814869.85547  21227769.981    21227775.546
 03  2 27  0 31 30.0000000  0  8G 6G26G16G23G15G29G17G18
  20895685.061   -27413013.82549 -21318684.42647  20895684.529    20895691.106
  21566329.322   -23071590.97149 -17930441.94747  21566329.031    21566335.911
  23631108.084   -14291904.76849 -10828739.32745  23631107.305    23631115.257
  20557632.365   -26768523.10149 -20826564.69448  20557631.468    20557637.677
  21845164.161   -22191704.96949 -16993748.95947  21845163.118    21845170.678
  22931925.218   -16042158.13749 -12478216.06546  22931924.708    22931932.092
  20896004.911   -27535962.69849 -21426569.21647  20896003.987    20896010.839
  21217131.938   -24224538.38349 -18858433.93547  21217131.146    21217136.719
 03  2 27  0 32  0.0000000  0  8G 6G26G16G23G15G29G17G18
  20906465.262   -27356363.76649 -21274541.57547  20906464.726    20906471.303
  21567410.787   -23065907.95749 -17926013.60747  21567410.512    21567417.394
  23628827.509   -14303889.36949 -10838077.98045  23628826.743    23628834.749
  20558194.388   -26765569.57549 -20824263.24048  20558193.489    20558199.707
  21834402.607   -22248257.11449 -17037815.51747  21834401.569    21834409.123
  22939201.377   -16003921.43049 -12448421.24746  22939200.902    22939208.390
  20892880.743   -27552380.29849 -21439362.14547  20892879.820    20892886.673
  21206568.120   -24280051.58249 -18901690.93847  21206567.339    21206572.916
 03  2 27  0 32 30.0000000  0  8G 6G26G16G23G15G29G17G18
  20917332.365   -27299256.92349 -21230042.79647  20917331.832    20917338.411
  21568617.247   -23059568.03449 -17921073.39847  21568616.957    21568623.851
  23626648.239   -14315341.59949 -10847001.80845  23626647.423    23626655.439
  20558835.765   -26762199.09149 -20821636.88648  20558834.865    20558841.078
  21823664.258   -22304687.20649 -17081786.97447  21823663.252    21823670.792
  22946575.561   -15965169.87549 -12418225.24046  22946575.096    22946582.676
  20889786.696   -27568639.64649 -21452031.76547  20889785.772    20889792.610
  21196079.530   -24335169.28649 -18944639.76947  21196078.750    21196084.316
 03  2 27  0 33  0.0000000  0  8G 6G26G16G23G15G29G17G18
  20928286.198   -27241694.36449 -21185188.91447  20928285.669    20928292.269
  21569948.747   -23052571.10349 -17915621.23547  21569948.465    21569955.349
  23624570.147   -14326261.90849 -10855511.13445  23624569.361    23624577.399
  20559556.222   -26758413.09549 -20818686.75548  20559555.326    20559561.521
  21812949.213   -22360995.01749 -17125663.14647  21812948.190    21812955.747
  22954047.489   -15925904.73249 -12387629.04046  22954047.014    22954054.643
  20886722.809   -27584740.48749 -21464577.87647  20886721.873    20886728.696
  21185666.332   -24389891.10349 -18987280.11347  21185665.559    21185671.113
 03  2 27  0 33 30.0000000  0  8G 6G26G16G23G15G29G17G18
  20939326.505   -27183677.45749 -21139980.99147  20939325.966    20939332.583
  21571405.263   -23044917.14249 -17909657.09547  21571404.967    21571411.850
  23622593.258   -14336650.53449 -10863606.16845  23622592.530    23622600.486
  20560355.475   -26754213.03449 -20815413.97148  20560354.593    20560360.773
  21802257.415   -22417180.53149 -17169444.01947  21802256.392    21802263.965
  22961616.858   -15886127.57549 -12356633.87346  22961616.384    22961624.041
  20883689.035   -27600682.93249 -21477000.55847  20883688.114    20883694.933
  21175328.466   -24444216.80549 -19029611.79647  21175327.696    21175333.231
 03  2 27  0 34  0.0000000  0  8G 6G26G16G23G15G29G17G18
  20950453.140   -27125206.81149 -21094419.51247  20950452.593    20950459.240
  21572986.891   -23036605.79749 -17903180.70547  21572986.592    21572993.440
  23620717.579   -14346507.23249 -10871286.71445  23620716.908    23620724.802
  20561233.337   -26749599.84149 -20811819.27048  20561232.445    20561238.630
  21791589.041   -22473243.07349 -17213129.07747  21791588.028    21791595.565
  22969283.569   -15845838.87749 -12325240.09746  22969283.076    22969290.715
  20880685.629   -27616465.88849 -21489298.96347  20880684.693    20880691.541
  21165066.143   -24498145.77749 -19071634.34447  21165065.360    21165070.876
 03  2 27  0 34 30.0000000  0  8G 6G26G16G23G15G29G17G18
  20961665.863   -27066283.82149 -21048505.55047  20961665.321    20961671.986
  21574693.534   -23027637.42849 -17896192.34647  21574693.211    21574700.073
  23618942.968   -14355832.82449 -10878553.40645  23618942.217    23618950.202
  20562189.479   -26744575.28849 -20807904.02748  20562188.583    20562194.756
  21780944.035   -22529182.77749 -17256718.41147  21780943.027    21780950.534
  22977047.252   -15805040.43749 -12293449.11846  22977046.792    22977054.374
  20877712.483   -27632089.83049 -21501473.45247  20877711.551    20877718.420
  21154879.284   -24551678.00449 -19113347.73147  21154878.492    21154884.027
 03  2 27  0 35  0.0000000  0  8G 6G26G16G23G15G29G17G18
  20972964.584   -27006908.89549 -21002239.43447  20972964.039    20972970.724
  21576525.269   -23018011.43249 -17888691.55547  21576524.953    21576531.806
  23617269.447   -14364627.14549 -10885406.12045  23617268.666    23617276.726
  20563223.763   -26739140.13949 -20803668.84448  20563222.867    20563229.036
  21770322.599   -22584998.59349 -17300211.22047  21770321.600    21770329.065
  22984907.839   -15763732.93549 -12261261.46546  22984907.339    22984914.951
  20874769.856   -27647553.40649 -21513522.98847  20874768.918    20874775.824
  21144768.200   -24604812.14149 -19154750.92847  21144767.422    21144772.914
 03  2 27  0 35 30.0000000  0  8G 6G26G16G23G15G29G17G18
  20984348.970   -26947083.80049 -20955622.53147  20984348.428    20984355.107
  21578482.011   -23007728.59249 -17880678.93547  21578481.698    21578488.538
  23615696.833   -14372891.22349 -10891845.65345  23615696.054    23615704.167
  20564335.815   -26733296.29149 -20799115.19348  20564334.917    20564341.080
  21759724.674   -22640690.81149 -17343607.71147  21759723.667    21759731.107
  22992864.910   -15721918.01349 -12228678.42146  22992864.391    22992872.044
  20871857.683   -27662856.82749 -21525447.72447  20871856.754    20871863.642
  21134732.705   -24657548.87049 -19195844.44947  21134731.920    21134737.410
 03  2 27  0 36  0.0000000  0  8G 6G26G16G23G15G29G17G18
  20995818.966   -26886808.86349 -20908655.10547  20995818.427    20995825.101
  21580563.896   -22996787.84349 -17872153.66047  21580563.577    21580570.469
  23614225.222   -14380624.49149 -10897871.56845  23614224.413    23614232.580
  20565525.520   -26727044.23349 -20794243.45748  20565524.624    20565530.771
  21749150.529   -22696258.22449 -17386906.95847  21749149.527    21749156.947
  23000918.431   -15679596.29949 -12195700.46746  23000917.936    23000925.600
  20868976.239   -27677999.02949 -21537246.83747  20868975.319    20868982.214
  21124773.147   -24709886.67249 -19236627.11947  21124772.364    21124777.855
 03  2 27  0 36 30.0000000  0  8G 6G26G16G23G15G29G17G18
  21007374.271   -26826085.61949 -20861338.34347  21007373.718    21007380.403
  21582770.889   -22985189.81749 -17863116.22947  21582770.569    21582777.491
  23612854.484   -14387827.77849 -10903484.52345  23612853.721    23612861.783
  20566792.634   -26720385.64549 -20789054.94448  20566791.736    20566797.889
  21738600.130   -22751700.85549 -17430108.97247  21738599.111    21738606.525
  23009068.087   -15636769.36749 -12162328.83846  23009067.604    23009075.204
  20866125.506   -27692979.74849 -21548920.12247  20866124.573    20866131.457
  21114889.447   -24761825.60249 -19277098.98047  21114888.667    21114894.179
 03  2 27  0 37  0.0000000  0  8G 6G26G16G23G15G29G17G18
  21019014.629   -26764915.46449 -20813673.34147  21019014.079    21019020.746
  21585102.886   -22972934.76249 -17853566.82647  21585102.584    21585109.505
  23611584.496   -14394501.46849 -10908684.80145  23611583.730    23611591.774
  20568136.762   -26713322.17249 -20783550.93748  20568135.866    20568142.018
  21728073.483   -22807018.67049 -17473213.72847  21728072.459    21728079.876
  23017313.596   -15593438.85049 -12128564.82346  23017313.126    23017320.711
  20863305.502   -27707798.89549 -21560467.50747  20863304.565    20863311.436
  21105081.674   -24813365.71349 -19317260.06947  21105080.887    21105086.417
 03  2 27  0 37 30.0000000  0  8G 6G26G16G23G15G29G17G18
  21030739.849   -26703299.31349 -20765660.80947  21030739.292    21030745.972
  21587559.900   -22960022.75749 -17843505.51347  21587559.603    21587566.529
  23610415.219   -14400646.07749 -10913472.80745  23610414.421    23610422.539
  20569557.731   -26705855.03149 -20777732.37848  20569556.842    20569562.967
  21717570.698   -22862211.02249 -17516220.71547  21717569.669    21717577.110
  23025654.743   -15549605.83049 -12094409.24046  23025654.331    23025661.869
  20860516.369   -27722455.85149 -21571888.50247  20860515.436    20860522.306
  21095349.893   -24864506.39249 -19357109.91147  21095349.104    21095354.633
 03  2 27  0 38  0.0000000  0  8G 6G26G16G23G15G29G17G18
  21042549.687   -26641238.36849 -20717301.68547  21042549.136    21042555.820
  21590141.935   -22946453.86549 -17832932.34947  21590141.646    21590148.583
  23609346.552   -14406262.11149 -10917848.94545  23609345.750    23609353.872
  20571055.212   -26697985.57149 -20771600.32048  20571054.315    20571060.441
  21707091.842   -22917277.64149 -17559129.72747  21707090.824    21707098.258
  23034091.311   -15505271.55049 -12059863.05746  23034090.901    23034098.377
  20857758.254   -27736949.90449 -21583182.55947  20857757.315    20857764.172
  21085694.156   -24915247.43649 -19396648.34847  21085693.358    21085698.924
 03  2 27  0 38 30.0000000  0  8G 6G26G16G23G15G29G17G18
  21054444.099   -26578733.12649 -20668596.36047  21054443.552    21054450.255
  21592849.001   -22932227.83149 -17821847.11347  21592848.732    21592855.690
  23608378.453   -14411349.32149 -10921813.01345  23608377.660    23608385.823
  20572629.121   -26689714.60649 -20765155.40148  20572628.226    20572634.343
  21696637.153   -22972217.26949 -17601939.79147  21696636.131    21696643.540
  23042623.088   -15460436.82549 -12024926.92246  23042622.654    23042630.202
  20855031.248   -27751280.37549 -21594349.15147  20855030.323    20855037.186
  21076114.657   -24965587.75649 -19435874.53647  21076113.860    21076119.426
 03  2 27  0 39  0.0000000  0  8G 6G26G16G23G15G29G17G18
  21066422.568   -26515785.86149 -20619546.60247  21066422.029    21066428.744
  21595680.975   -22917345.72649 -17810250.65647  21595680.702    21595687.679
  23607510.679   -14415909.46149 -10925366.38445  23607509.921    23607518.079
  20574278.963   -26681044.61549 -20758399.55748  20574278.074    20574284.205
  21686206.512   -23027030.71949 -17644651.53947  21686205.482    21686212.861
  23051249.681   -15415104.14849 -11989602.77446  23051249.231    23051256.762
  20852335.237   -27765447.95649 -21605388.81347  20852334.319    20852341.176
  21066611.259   -25015528.31149 -19474789.22047  21066610.469    21066616.049
 03  2 27  0 39 30.0000000  0  8G 6G26G16G23G15G29G17G18
  21078485.098   -26452397.17549 -20570152.87447  21078484.549    21078491.303
  21598637.808   -22901807.34749 -17798142.82147  21598637.554    21598644.512
  23606743.253   -14419942.29649 -10928508.84745  23606742.492    23606750.666
  20576004.560   -26671976.48249 -20751333.46748  20576003.679    20576009.820
  21675800.057   -23081716.97049 -17687264.16647  21675798.997    21675806.376
  23059970.884   -15369274.26549 -11953891.19546  23059970.414    23059977.928
  20849670.483   -27779451.42449 -21616300.59647  20849669.564    20849676.415
  21057184.124   -25065068.06549 -19513391.58647  21057183.335    21057188.909
 03  2 27  0 40  0.0000000  0  8G 6G26G16G23G15G29G17G18
  21090631.299   -26388568.61649 -20520416.39047  21090630.760    21090637.535
  21601719.426   -22885613.39049 -17785524.13847  21601719.171    21601726.153
  23606076.043   -14423448.73049 -10931241.14545  23606075.265    23606083.379
  20577805.598   -26662511.99749 -20743958.53548  20577804.712    20577810.844
  21665417.800   -23136275.92049 -17729777.59547  21665416.744    21665424.081
  23068786.308   -15322949.06449 -11917793.65446  23068785.792    23068793.349
  20847036.969   -27793290.60149 -21627084.36147  20847036.037    20847042.900
  21047833.210   -25114207.11849 -19551681.71347  21047832.419    21047838.006
 03  2 27  0 40 30.0000000  0  8G 6G26G16G23G15G29G17G18
  21102861.036   -26324301.07549 -20470337.84347  21102860.504    21102867.314
  21604925.844   -22868763.76249 -17772394.54347  21604925.581    21604932.521
  23605508.938   -14426428.90049 -10933563.35345  23605508.166    23605516.262
  20579681.862   -26652652.12749 -20736275.51448  20579680.983    20579687.127
  21655059.895   -23190706.93349 -17772191.33047  21655058.845    21655066.153
  23077695.840   -15276129.24249 -11881310.69946  23077695.354    23077702.909
  20844434.873   -27806964.61349 -21637739.42647  20844433.949    20844440.791
  21038558.674   -25162944.97949 -19589659.23047  21038557.889    21038563.474
 03  2 27  0 41  0.0000000  0  8G 6G26G16G23G15G29G17G18
  21115173.898   -26259596.87949 -20419919.04447  21115173.360    21115180.216
  21608256.741   -22851259.79949 -17758755.07947  21608256.465    21608263.391
  23605041.681   -14428884.38749 -10935476.71145  23605040.890    23605049.015
  20581632.915   -26642399.24549 -20728286.24448  20581632.033    20581638.168
  21644726.224   -23245010.51349 -17814505.75847  21644725.169    21644732.499
  23086699.045   -15228817.33449 -11844444.29746  23086698.541    23086706.144
  20841864.146   -27820473.86549 -21648266.10747  20841863.238    20841870.048
  21029360.367   -25211282.20549 -19627324.55847  21029359.587    21029365.150
 03  2 27  0 41 30.0000000  0  8G 6G26G16G23G15G29G17G18
  21127570.001   -26194455.07449 -20369159.25347  21127569.458    21127576.339
  21611712.573   -22833099.50849 -17744604.19747  21611712.293    21611719.183
  23604674.573   -14430813.53049 -10936979.92745  23604673.784    23604681.917
  20583658.905   -26631752.51249 -20719990.07948  20583658.020    20583664.176
  21634417.327   -23299183.83949 -17856718.69347  21634416.295    21634423.642
  23095796.021   -15181012.54549 -11807193.82446  23095795.503    23095803.106
  20839325.313   -27833815.45349 -21658662.14047  20839324.406    20839331.192
  21020238.746   -25259216.50549 -19664675.92047  21020237.952    21020243.512
 03  2 27  0 42  0.0000000  0  8G 6G26G16G23G15G29G17G18
  21140048.813   -26128878.82449 -20318060.93347  21140048.259    21140055.168
  21615292.781   -22814285.37849 -17729943.83047  21615292.475    21615299.354
  23604407.099   -14432219.11049 -10938075.18145  23604406.270    23604414.489
  20585759.189   -26620715.39149 -20711389.71748  20585758.296    20585764.435
  21624132.913   -23353228.48349 -17898831.35547  21624131.895    21624139.243
  23104986.164   -15132718.36349 -11769562.01346  23104985.621    23104993.217
  20836818.080   -27846991.19049 -21668928.93947  20836817.152    20836823.938
  21011193.484   -25306749.49649 -19701714.57347  21011192.694    21011198.236
 03  2 27  0 42 30.0000000  0  8G 6G26G16G23G15G29G17G18
  21152610.159   -26062868.54049 -20266624.41047  21152609.623    21152616.546
  21618997.553   -22794816.85549 -17714773.55147  21618997.249    21619004.076
  23604239.325   -14433100.77649 -10938762.18045  23604238.486    23604246.736
  20587933.664   -26609288.50649 -20702485.64548  20587932.771    20587938.919
  21613873.238   -23407143.15949 -17940842.73747  21613872.198    21613879.558
  23114269.305   -15083935.29749 -11731549.24946  23114268.765    23114276.363
  20834342.707   -27859999.43049 -21679065.21947  20834341.765    20834348.559
  21002224.827   -25353880.12449 -19738439.69647  21002224.023    21002229.560
 03  2 27  0 43  0.0000000  0  8G 6G26G16G23G15G29G17G18
  21165253.856   -25996425.61149 -20214850.75247  21165253.330    21165260.264
  21622826.655   -22774694.75449 -17699093.99447  21622826.339    21622833.180
  23604171.102   -14433459.34549 -10939041.57245  23604170.243    23604178.485
  20590181.943   -26597473.55949 -20693279.18648  20590181.054    20590187.205
  21603638.366   -23460927.45549 -17982752.52547  21603637.343    21603644.686
  23123645.147   -15034665.06149 -11693156.86446  23123644.614    23123652.151
  20831899.204   -27872839.88649 -21689070.75947  20831898.267    20831905.098
  20993332.702   -25400608.39749 -19774851.29547  20993331.899    20993337.431
 03  2 27  0 43 30.0000000  0  8G 6G26G16G23G15G29G17G18
  21177979.601   -25929551.60349 -20162741.19447  21177979.070    21177986.034
  21626779.992   -22753919.67049 -17682905.62047  21626779.682    21626786.522
  23604202.249   -14433295.76249 -10938914.10445  23604201.421    23604209.623
  20592503.777   -26585272.18749 -20683771.62048  20592502.907    20592509.040
  21593428.339   -23514581.37349 -18024560.71947  21593427.291    21593434.651
  23133113.324   -14984909.53549 -11654386.35246  23133112.809    23133120.315
  20829487.649   -27885512.63149 -21698945.62147  20829486.716    20829493.551
  20984517.114   -25446934.33549 -19810949.38947  20984516.322    20984521.826
 03  2 27  0 44  0.0000000  0  8G 6G26G16G23G15G29G17G18
  21190786.952   -25862248.82149 -20110297.51847  21190786.414    21190793.390
  21630857.334   -22732492.98849 -17666209.50347  21630857.049    21630863.904
  23604332.467   -14432611.52449 -10938380.92645  23604331.662    23604339.814
  20594898.737   -26572686.62349 -20673964.68148  20594897.839    20594903.989
  21583243.002   -23568105.33749 -18066267.65047  21583241.963    21583249.334
  23142673.352   -14934670.93049 -11615239.39946  23142672.771    23142680.368
  20827107.971   -27898017.69849 -21708689.81747  20827107.034    20827113.884
  20975777.994   -25492858.63749 -19846734.51947  20975777.202    20975782.703
 03  2 27  0 44 30.0000000  0  8G 6G26G16G23G15G29G17G18
  21203675.959   -25794516.83749 -20057519.40047  21203675.421    21203682.408
  21635058.878   -22710413.68649 -17649004.85847  21635058.611    21635065.472
  23604561.906   -14431405.76849 -10937441.38345  23604561.182    23604569.272
  20597366.840   -26559716.66549 -20663858.22248  20597365.940    20597372.095
  21573082.826   -23621496.96149 -18107871.46347  21573081.796    21573089.179
  23152325.347   -14883949.11949 -11575715.92946  23152324.769    23152332.397
  20824760.655   -27910352.86849 -21718301.63247  20824759.729    20824766.545
  20967115.654   -25538379.34149 -19882205.16347  20967114.868    20967120.340
 03  2 27  0 45  0.0000000  0  8G 6G26G16G23G15G29G17G18
  21216646.216   -25726357.92049 -20004408.60247  21216645.682    21216652.679
  21639384.354   -22687683.04749 -17631292.67547  21639384.076    21639390.956
  23604890.291   -14429680.20649 -10936096.79045  23604889.545    23604897.673
  20599907.612   -26546364.81449 -20653454.18048  20599906.711    20599912.866
  21562947.799   -23674756.67449 -18149372.48147  21562946.773    21562954.151
  23162068.828   -14832746.58749 -11535817.86646  23162068.243    23162075.855
  20822445.632   -27922518.47649 -21727781.32247  20822444.702    20822451.502
  20958529.979   -25583497.25749 -19917361.94947  20958529.182    20958534.647
 03  2 27  0 45 30.0000000  0  8G 6G26G16G23G15G29G17G18
  21229697.491   -25657773.30949 -19950966.10447  21229696.976    21229703.961
  21643833.737   -22664301.51049 -17613073.29247  21643833.466    21643840.349
  23605317.482   -14427435.25549 -10934347.47845  23605316.680    23605324.859
  20602520.790   -26532632.32649 -20642753.53448  20602519.892    20602526.059
  21552838.019   -23727883.58549 -18190770.02247  21552837.001    21552844.352
  23171903.567   -14781064.56249 -11495546.17946  23171903.005    23171910.570
  20820163.014   -27934513.68149 -21737128.23047  20820162.082    20820168.858
  20950020.992   -25628212.07049 -19952204.63047  20950020.193    20950025.640
 03  2 27  0 46  0.0000000  0  8G 6G26G16G23G15G29G17G18
  21242829.445   -25588764.56449 -19897193.10747  21242828.935    21242835.931
  21648406.803   -22640269.88649 -17594347.35147  21648406.540    21648413.395
  23605843.330   -14424671.76449 -10932194.09545  23605842.615    23605850.761
  20605206.101   -26518520.94249 -20631757.64448  20605205.203    20605211.388
  21542753.563   -23780877.68249 -18232064.06047  21542752.553    21542759.882
  23181829.224   -14728904.82249 -11454902.23846  23181828.704    23181836.165
  20817912.905   -27946338.03749 -21746342.00647  20817911.980    20817918.760
  20941588.742   -25672523.76349 -19986733.19047  20941587.940    20941593.382
 03  2 27  0 46 30.0000000  0  8G 6G26G16G23G15G29G17G18
  21256041.717   -25519333.83349 -19843091.29047  21256041.199    21256048.223
  21653103.319   -22615589.75849 -17575116.08647  21653103.029    21653109.904
  23606467.554   -14421391.50149 -10929638.04245  23606466.872    23606474.958
  20607963.053   -26504032.97549 -20620468.31848  20607962.165    20607968.333
  21532694.335   -23833739.17649 -18273254.77947  21532693.307    21532700.640
  23191845.294   -14676269.94949 -11413888.05746  23191844.730    23191852.170
  20815695.243   -27957991.82949 -21755422.87747  20815694.315    20815701.141
  20933233.043   -25716433.17549 -20020948.28947  20933232.245    20933237.663
 03  2 27  0 47  0.0000000  0  8G 6G26G16G23G15G29G17G18
  21269334.202   -25449481.49549 -19788660.94947  21269333.687    21269340.713
  21657923.264   -22590260.71849 -17555379.17347  21657922.962    21657929.836
  23607190.062   -14417594.78149 -10926679.54845  23607189.472    23607197.335
  20610791.601   -26489168.85749 -20608885.88848  20610790.697    20610796.865
  21522660.584   -23886466.55349 -18314340.99147  21522659.553    21522666.873
  23201951.689   -14623160.48949 -11372504.07946  23201951.144    23201958.498
  20813510.351   -27969473.42049 -21764369.56647  20813509.437    20813516.244
  20924954.114   -25759939.00949 -20054848.90747  20924953.316    20924958.731
 03  2 27  0 47 30.0000000  0  8G 6G26G16G23G15G29G17G18
  21282706.660   -25379209.03949 -19733903.24947  21282706.129    21282713.163
  21662866.579   -22564283.60849 -17535137.26447  21662866.270    21662873.144
  23608010.757   -14413281.99449 -10923318.92645  23608010.095    23608018.033
  20613691.398   -26473930.24349 -20597011.63748  20613690.519    20613696.682
  21512652.493   -23939059.22049 -18355322.23147  21512651.461    21512658.772
  23212148.090   -14569578.23249 -11330751.68146  23212147.564    23212154.816
  20811358.364   -27980782.24749 -21773181.63147  20811357.437    20811364.254
  20916751.994   -25803041.24149 -20088435.03247  20916751.195    20916756.606
 03  2 27  0 48  0.0000000  0  8G 6G26G16G23G15G29G17G18
  21296158.648   -25308518.64049 -19678819.87647  21296158.106    21296165.142
  21667932.900   -22537659.94749 -17514391.54747  21667932.583    21667939.463
  23608929.350   -14408454.66649 -10919557.34045  23608928.610    23608936.578
  20616662.086   -26458319.25249 -20584847.22648  20616661.193    20616667.367
  21502670.015   -23991517.11849 -18396198.45947  21502668.982    21502676.297
  23222433.974   -14515525.45049 -11288632.64246  23222433.464    23222440.719
  20809239.249   -27991918.39849 -21781859.14647  20809238.314    20809245.111
  20908626.544   -25845740.66849 -20121707.28447  20908625.750    20908631.146
 03  2 27  0 48 30.0000000  0  8G 6G26G16G23G15G29G17G18
  21309690.131   -25237410.40449 -19623410.90747  21309689.599    21309696.625
  21673122.363   -22510389.11449 -17493141.54647  21673122.040    21673128.918
  23609945.864   -14403112.78749 -10915394.83245  23609945.095    23609953.034
  20619703.596   -26442336.07349 -20572392.79948  20619702.707    20619708.848
  21492713.500   -24043838.67849 -18436968.45047  21492712.495    21492719.772
  23232809.352   -14461002.26849 -11246147.05046  23232808.901    23232816.130
  20807153.314   -28002879.97549 -21790400.62947  20807152.378    20807159.147
  20900578.035   -25888035.81049 -20154664.50647  20900577.222    20900582.631
 03  2 27  0 49  0.0000000  0  8G 6G26G16G23G15G29G17G18
  21323300.607   -25165887.00649 -19567678.44947  21323300.076    21323307.076
  21678434.661   -22482472.81949 -17471388.58247  21678434.332    21678441.263
  23611059.947   -14397258.04749 -10910832.67245  23611059.154    23611067.249
  20622815.398   -26425983.46049 -20559650.49548  20622814.493    20622820.632
  21482782.886   -24096024.33949 -18477632.55247  21482781.879    21482789.119
  23243273.730   -14406011.62649 -11203297.21446  23243273.257    23243280.559
  20805100.495   -28013667.66149 -21798806.61147  20805099.559    20805106.291
  20892606.230   -25929927.74349 -20187307.53947  20892605.420    20892610.806
 03  2 27  0 49 30.0000000  0  8G 6G26G16G23G15G29G17G18
  21336989.682   -25093950.70249 -19511624.24547  21336989.150    21336996.153
  21683869.403   -22453912.86349 -17449134.05947  21683869.090    21683876.029
  23612271.301   -14390892.28149 -10905872.31445  23612270.475    23612278.719
  20625997.053   -26409263.69849 -20546622.10148  20625996.150    20626002.269
  21472878.100   -24148074.27249 -18518190.88947  21472877.097    21472884.293
  23253826.555   -14350556.03249 -11160085.07346  23253826.061    23253833.490
  20803080.775   -28024281.31449 -21807076.97547  20803079.818    20803086.579
  20884711.025   -25971417.11649 -20219636.89247  20884710.216    20884715.607
 03  2 27  0 50  0.0000000  0  8G 6G26G16G23G15G29G17G18
  21350757.447   -25021600.90549 -19455247.83947  21350756.918    21350763.922
  21689426.849   -22424708.08649 -17426377.07947  21689426.533    21689433.517
  23613580.100   -14384014.44549 -10900512.94745  23613579.209    23613587.383
  20629248.644   -26392176.42749 -20533307.33748  20629247.749    20629253.868
  21462999.628   -24199985.87049 -18558641.44047  21462998.625    21463005.775
  23264467.999   -14294634.95649 -11116510.21646  23264467.514    23264475.022
  20801094.716   -28034718.04749 -21815209.47947  20801093.772    20801100.545
  20876892.832   -26012501.86149 -20251650.95047  20876892.028    20876897.415
 03  2 27  0 50 30.0000000  0  8G 6G26G16G23G15G29G17G18
  21364603.255   -24948841.07949 -19398551.92047  21364602.693    21364609.756
  21695106.422   -22394861.35649 -17403119.87647  21695106.101    21695113.146
  23614985.778   -14376627.54649 -10894756.91745  23614984.897    23614992.976
  20632569.505   -26374725.09449 -20519708.88848  20632568.600    20632574.738
  21453147.186   -24251760.75049 -18598985.45847  21453146.176    21453153.276
  23275197.315   -14238252.40749 -11072575.77846  23275196.856    23275204.383
  20799141.936   -28044979.95549 -21823205.75747  20799140.994    20799147.767
  20869151.244   -26053184.01749 -20283351.30247  20869150.438    20869155.796
 03  2 27  0 51  0.0000000  0  8G 6G26G16G23G15G29G17G18
  21378526.841   -24875672.20449 -19341537.25647  21378526.284    21378533.366
  21700908.139   -22364372.95549 -17379362.67147  21700907.854    21700914.896
  23616488.235   -14368732.01149 -10888604.55245  23616487.396    23616495.490
  20635959.487   -26356910.64249 -20505827.48848  20635958.583    20635964.720
  21443320.996   -24303397.42949 -18639221.78447  21443319.989    21443327.048
  23286014.243   -14181409.20849 -11028282.38646  23286013.808    23286021.372
  20797222.752   -28055065.30949 -21831064.45647  20797221.793    20797228.573
  20861486.420   -26093462.85149 -20314737.37847  20861485.614    20861490.954
 03  2 27  0 51 30.0000000  0  8G 6G26G16G23G15G29G17G18
  21392527.999   -24802095.76649 -19284205.01847  21392527.451    21392534.567
  21706831.799   -22333243.75049 -17355106.13147  21706831.533    21706838.577
  23618087.304   -14360328.77249 -10882056.56745  23618086.470    23618094.534
  20639418.285   -26338734.55249 -20491664.29248  20639417.399    20639423.509
  21433521.246   -24354895.22649 -18679349.88647  21433520.233    21433527.287
  23296918.555   -14124107.05749 -10983631.37246  23296918.109    23296925.722
  20795337.346   -28064973.27649 -21838784.92647  20795336.388    20795343.162
  20853898.309   -26133338.44049 -20345809.23347  20853897.517    20853902.834
 03  2 27  0 52  0.0000000  0  8G 6G26G16G23G15G29G17G18
  21406606.427   -24728113.04649 -19226556.18947  21406605.875    21406613.045
  21712877.330   -22301474.31949 -17330350.71747  21712877.048    21712884.111
  23619782.880   -14351418.49649 -10875113.50745  23619782.085    23619790.088
  20642945.663   -26320197.99749 -20477220.21448  20642944.767    20642950.875
  21423748.104   -24406253.27749 -18719369.09947  21423747.089    21423754.126
  23307909.887   -14066347.52949 -10938623.94946  23307909.410    23307917.085
  20793485.882   -28074702.64549 -21846366.23147  20793484.930    20793491.691
  20846387.076   -26172810.26849 -20376566.47147  20846386.267    20846391.573
 03  2 27  0 52 30.0000000  0  8G 6G26G16G23G15G29G17G18
  21420761.869   -24653725.95949 -19168592.27547  21420761.315    21420768.500
  21719044.380   -22269066.15649 -17305097.59347  21719044.099    21719051.154
  23621574.614   -14342002.62949 -10867776.46545  23621573.925    23621581.890
  20646541.231   -26301303.05349 -20462496.87148  20646540.328    20646546.456
  21414001.537   -24457471.47749 -18759279.33647  21414000.526    21414007.576
  23318987.735   -14008132.93449 -10893261.93546  23318987.271    23318995.010
  20791668.396   -28084253.54849 -21853808.47647  20791667.438    20791674.199
  20838952.593   -26211878.59649 -20407009.29447  20838951.784    20838957.068
 03  2 27  0 53  0.0000000  0  8G 6G26G16G23G15G29G17G18
  21434994.070   -24578935.47749 -19110314.03047  21434993.523    21435000.706
  21725332.927   -22236019.76349 -17279347.14247  21725332.645    21725339.644
  23623462.519   -14332081.82249 -10860045.96745  23623461.628    23623469.636
  20650204.803   -26282050.76549 -20447495.07348  20650203.901    20650210.031
  21404281.825   -24508548.61949 -18799079.65747  21404280.795    21404287.879
  23330152.060   -13949464.15249 -10847546.01846  23330151.612    23330159.385
  20789885.109   -28093624.65649 -21861110.62147  20789884.153    20789890.895
  20831594.903   -26250543.42549 -20437137.69747  20831594.098    20831599.374
 03  2 27  0 53 30.0000000  0  8G 6G26G16G23G15G29G17G18
  21449302.478   -24503744.36549 -19051723.61647  21449301.937    21449309.108
  21731742.546   -22202337.28949 -17253101.04247  21731742.258    21731749.187
  23625446.077   -14321658.26849 -10851923.73245  23625445.095    23625453.202
  20653935.875   -26262443.81049 -20432216.91748  20653934.968    20653941.080
  21394588.926   -24559484.97549 -18838770.27147  21394587.905    21394594.964
  23341402.201   -13890344.33749 -10801478.63146  23341401.773    23341409.562
  20788135.969   -28102816.48449 -21868273.06847  20788135.014    20788141.737
  20824313.811   -26288805.80649 -20466952.50447  20824313.008    20824318.269
 03  2 27  0 54  0.0000000  0  8G 6G26G16G23G15G29G17G18
  21463687.019   -24428153.45249 -18992821.67647  21463686.449    21463693.630
  21738273.101   -22168019.18049 -17226359.64547  21738272.807    21738279.643
  23627525.184   -14310732.33649 -10843410.02845  23627524.305    23627532.463
  20657734.263   -26242483.05949 -20416663.07248  20657733.359    20657739.490
  21384923.018   -24610279.42649 -18878350.32047  21384921.997    21384929.040
  23352738.041   -13830774.47849 -10755060.56946  23352737.586    23352745.363
  20786421.156   -28111827.76649 -21875294.83447  20786420.221    20786426.934
  20817109.454   -26326664.87349 -20496453.04747  20817108.666    20817113.890
 03  2 27  0 54 30.0000000  0  8G 6G26G16G23G15G29G17G18
  21478147.190   -24352165.10149 -18933610.03547  21478146.618    21478153.812
  21744924.275   -22133067.21349 -17199124.32847  21744923.973    21744930.724
  23629699.525   -14299306.11949 -10834506.49645  23629698.690    23629706.693
  20661599.517   -26222170.89449 -20400835.39348  20661598.613    20661604.742
  21375284.082   -24660932.26149 -18917820.01847  21375283.069    21375290.094
  23364159.032   -13770757.14749 -10708293.83046  23364158.510    23364166.344
  20784740.700   -28120658.50449 -21882175.91247  20784739.754    20784746.495
  20809981.637   -26364121.71149 -20525640.15847  20809980.830    20809986.045
 03  2 27  0 55  0.0000000  0  8G 6G26G16G23G15G29G17G18
  21492682.696   -24275780.62149 -18874089.71447  21492682.126    21492689.356
  21751695.917   -22097482.09749 -17171395.65446  21751695.614    21751702.282
  23631968.947   -14287380.13849 -10825213.53445  23631968.159    23631976.070
  20665531.414   -26201508.61149 -20384734.89848  20665530.521    20665536.657
  21365672.349   -24711442.06649 -18957178.27047  21365671.333    21365678.341
  23375664.848   -13710293.91749 -10661179.63546  23375664.334    23375672.104
  20783094.814   -28129307.59649 -21888915.45147  20783093.883    20783100.617
  20802930.473   -26401175.75449 -20554513.40547  20802929.662    20802934.844
 03  2 27  0 55 30.0000000  0  8G 6G26G16G23G15G29G17G18
  21507293.334   -24199001.48149 -18814261.87347  21507292.771    21507300.013
  21758587.825   -22061264.93449 -17143174.47346  21758587.493    21758594.088
  23634333.244   -14274955.67949 -10815532.14245  23634332.472    23634340.389
  20669529.616   -26180497.75549 -20368362.79548  20669528.723    20669534.876
  21356087.986   -24761808.08949 -18996424.48747  21356086.959    21356093.961
  23387255.283   -13649386.37149 -10613719.20546  23387254.780    23387262.509
  20781483.722   -28137773.86349 -21895512.53147  20781482.799    20781489.535
  20795955.873   -26437827.35449 -20583073.06047  20795955.070    20795960.241
 03  2 27  0 56  0.0000000  0  8G 6G26G16G23G15G29G17G18
  21521978.743   -24121829.37449 -18754127.81747  21521978.194    21521985.445
  21765599.756   -22024416.86749 -17114461.67946  21765599.439    21765606.003
  23636792.162   -14262033.98049 -10805463.28945  23636791.370    23636799.260
  20673593.882   -26159139.86349 -20351720.27348  20673593.009    20673599.149
  21346531.080   -24812029.75049 -19035558.21347  21346530.055    21346537.059
  23398929.863   -13588036.44149 -10565914.04246  23398929.318    23398937.016
  20779907.568   -28146056.50449 -21901966.52647  20779906.650    20779913.366
  20789057.918   -26474076.26149 -20611318.92847  20789057.115    20789062.266
 03  2 27  0 56 30.0000000  0  9G 6G 2G26G16G23G15G29G17G18
  21536737.372   -24044272.50849 -18693693.94847  21536736.837    21536744.102
  25077442.074   -10034128.84549  -7567788.29044  25077441.048    25077452.969
  21772730.285   -21986945.59049 -17085263.27446  21772729.972    21772736.523
  23639344.227   -14248622.85149 -10795013.06445  23639343.423    23639351.334
  20677722.662   -26137442.92349 -20334813.56348  20677721.791    20677727.925
  21337000.541   -24862112.91449 -19074584.01547  21336999.493    21337006.512
  23410686.992   -13526252.50949 -10517770.69146  23410686.449    23410694.116
  20778365.067   -28154162.43449 -21908282.82747  20778364.138    20778370.837
  20782235.309   -26509929.31949 -20639256.35047  20782234.498    20782239.628
 03  2 27  0 57  0.0000000  0  9G 6G 2G26G16G23G15G29G17G18
  21551570.394   -23966324.78849 -18632955.52547  21551569.859    21551577.138
  25073973.776   -10052354.41249  -7581990.02244  25073972.820    25073984.629
  21779980.600   -21948844.75949 -17055574.31246  21779980.294    21779986.831
  23641990.649   -14234715.66349 -10784176.30645  23641989.791    23641997.841
  20681917.123   -26115401.04749 -20317638.07348  20681916.227    20681922.375
  21327497.954   -24912049.25949 -19113495.41647  21327496.921    21327503.920
  23422527.794   -13464028.81149 -10469284.68746  23422527.281    23422534.833
  20776858.003   -28162081.98549 -21914453.89647  20776857.081    20776863.758
  20775489.485   -26545378.85649 -20666879.33947  20775488.669    20775493.788
 03  2 27  0 57 30.0000000  0  9G 6G 2G26G16G23G15G29G17G18
  21566477.506   -23887987.58449 -18571913.60947  21566476.969    21566484.236
  25070585.736   -10070159.04649  -7595863.77144  25070584.825    25070596.310
  21787350.535   -21910115.25849 -17025395.47746  21787350.241    21787356.780
  23644731.263   -14220313.36749 -10772953.73845  23644730.544    23644738.510
  20686176.957   -26093015.40149 -20300194.71348  20686176.048    20686182.197
  21318023.531   -24961837.64949 -19152291.53747  21318022.490    21318029.485
  23434451.924   -13401366.89749 -10420457.22046  23434451.367    23434458.963
  20775386.608   -28169814.26449 -21920479.03947  20775385.670    20775392.351
  20768820.451   -26580424.65849 -20694187.73548  20768819.655    20768824.738
 03  2 27  0 58  0.0000000  0  9G 6G 2G26G16G23G15G29G17G18
  21581458.380   -23809262.92749 -18510569.77647  21581457.827    21581465.083
  25067277.679   -10087543.26449  -7609409.89044  25067276.397    25067288.138
  21794839.788   -21870758.87649 -16994728.15246  21794839.506    21794846.045
  23647565.763   -14205417.92449 -10761346.90445  23647564.961    23647572.989
  20690501.823   -26070288.08449 -20282485.10848  20690500.904    20690507.065
  21308577.283   -25011477.93749 -19190972.24847  21308576.240    21308583.239
  23446458.963   -13338269.14849 -10371290.14546  23446458.435    23446466.090
  20773950.749   -28177359.73249 -21926358.61647  20773949.824    20773956.527
  20762228.150   -26615067.46549 -20721182.10848  20762227.329    20762232.420
 03  2 27  0 58 30.0000000  0  9G 6G 2G26G16G23G15G29G17G18
  21596512.569   -23730152.99749 -18448925.73847  21596512.016    21596519.235
  25064049.456   -10104507.59649  -7622628.81844  25064048.170    25064059.894
  21802448.005   -21830777.28749 -16963573.65646  21802447.720    21802454.276
  23650493.886   -14190030.82749 -10749356.96045  23650493.105    23650501.076
  20694891.328   -26047221.13849 -20264510.85448  20694890.416    20694896.570
  21299159.342   -25060969.50049 -19229537.06947  21299158.309    21299165.262
  23458548.511   -13274737.65649 -10321785.08946  23458547.986    23458555.709
  20772550.597   -28184717.59249 -21932092.00147  20772549.663    20772556.358
  20755712.447   -26649307.65649 -20747862.75348  20755711.630    20755716.719
 03  2 27  0 59  0.0000000  0  9G 6G 2G26G16G23G15G29G17G18
  21611639.373   -23650661.39749 -18386984.29847  21611638.814    21611646.020
  25060900.859   -10121053.83249  -7635521.96644  25060899.810    25060911.364
  21810174.615   -21790173.60949 -16931934.41246  21810174.311    21810180.961
  23653514.897   -14174155.22549 -10736986.35845  23653514.182    23653522.052
  20699344.797   -26023817.92049 -20246274.57848  20699343.892    20699350.053
  21289769.473   -25110313.53149 -19267986.93647  21289768.430    21289775.380
  23470719.862   -13210776.25949 -10271945.04346  23470719.359    23470727.120
  20771186.009   -28191888.49149 -21937679.70647  20771185.068    20771191.758
  20749272.925   -26683147.51249 -20774231.45148  20749272.108    20749277.190
 03  2 27  0 59 30.0000000  0  9G 6G 2G26G16G23G15G29G17G18
  21626838.873   -23570787.65749 -18324745.08947  21626838.311    21626845.496
  25057832.178   -10137180.18149  -7648087.89844  25057831.184    25057842.726
  21818019.718   -21748947.22149 -16899809.93946  21818019.399    21818026.115
  23656628.981   -14157790.57949 -10724234.70345  23656628.277    23656636.300
  20703862.313   -26000078.23049 -20227776.11748  20703861.405    20703867.555
  21280408.165   -25159507.45949 -19306319.84247  21280407.121    21280414.053
  23482972.975   -13146385.14849 -10221770.15446  23482972.487    23482980.354
  20769857.486   -28198869.82149 -21943119.70147  20769856.547    20769863.222
  20742909.968   -26716584.96249 -20800286.58648  20742909.153    20742914.223
 03  2 27  1  0  0.0000000  0  9G 6G 2G26G16G23G15G29G17G18
  21642110.362   -23490535.74149 -18262211.18747  21642109.799    21642116.977
  25054842.889   -10152888.88349  -7660328.41644  25054841.915    25054853.460
  21825982.640   -21707101.58849 -16867202.94746  21825982.317    21825989.094
  23659835.471   -14140940.43449 -10711104.72145  23659834.657    23659842.815
  20708443.110   -25976005.91949 -20209018.46748  20708442.194    20708448.326
  21271075.142   -25208552.77249 -19344536.94447  21271074.102    21271081.005
  23495307.153   -13081568.06849 -10171263.37046  23495306.678    23495314.590
  20768564.784   -28205663.02149 -21948413.10147  20768563.832    20768570.507
  20736623.151   -26749622.24149 -20826029.90148  20736622.355    20736627.418
 03  2 27  1  0 30.0000000  0  9G 6G 2G26G16G23G15G29G17G18
  21657453.544   -23409906.85049 -18199383.54047  21657452.987    21657460.147
  25051933.154   -10168179.47849  -7672243.12444  25051932.148    25051943.635
  21834063.210   -21664637.68149 -16834114.17246  21834062.913    21834069.751
  23663134.216   -14123605.50449 -10697596.99245  23663133.284    23663141.552
  20713087.043   -25951601.80349 -20190002.27148  20713086.149    20713092.275
  21261770.731   -25257447.75549 -19382636.90447  21261769.683    21261776.595
  23507722.101   -13016326.54149 -10120425.83045  23507721.613    23507729.633
  20767308.152   -28212266.61849 -21953558.75947  20767307.202    20767313.867
  20730412.558   -26782259.13749 -20851461.23148  20730411.755    20730416.821
 03  2 27  1  1  0.0000000  0  9G 6G 2G26G16G23G15G29G17G18
  21672868.342   -23328901.77249 -18136262.74847  21672867.786    21672874.962
  25049103.132   -10183051.16249  -7683831.40544  25049102.147    25049113.666
  21842261.350   -21621555.91749 -16800543.95946  21842261.047    21842268.004
  23666525.129   -14105786.10249 -10683711.76845  23666524.127    23666532.438
  20717793.975   -25926866.72349 -20170728.17548  20717793.080    20717799.191
  21252495.218   -25306190.81149 -19420618.48847  21252494.164    21252501.054
  23520217.673   -12950661.55249 -10069258.30345  23520217.153    23520225.207
  20766087.811   -28218679.49449 -21958555.80047  20766086.877    20766093.545
  20724278.260   -26814494.92849 -20876580.00448  20724277.461    20724282.522
 03  2 27  1  1 30.0000000  0  9G 6G 2G26G16G23G15G29G17G18
  21688353.939   -23247524.61149 -18072852.03047  21688353.395    21688360.586
  25046352.444   -10197506.43549  -7695095.21844  25046351.592    25046362.919
  21850576.326   -21577860.09049 -16766495.25346  21850576.041    21850583.075
  23670007.524   -14087486.20049 -10669452.09645  23670006.465    23670014.788
  20722563.110   -25901804.70249 -20151199.32648  20722562.199    20722568.312
  21243248.323   -25354783.46749 -19458482.87347  21243247.266    21243254.152
  23532792.973   -12884577.46449 -10017764.22845  23532792.477    23532800.523
  20764903.616   -28224902.39249 -21963404.80447  20764902.667    20764909.356
  20718219.821   -26846332.03749 -20901388.11948  20718219.015    20718224.093
 03  2 27  1  2  0.0000000  0  9G 6G 2G26G16G23G15G29G17G18
  21703910.235   -23165775.94149 -18009151.83447  21703909.696    21703916.909
  25043681.079   -10211544.19749  -7706033.70844  25043680.002    25043691.317
  21859008.133   -21533550.44849 -16731968.25946  21859007.854    21859014.979
  23673581.353   -14068705.91549 -10654818.12745  23673580.481    23673588.528
  20727394.411   -25876416.07949 -20131415.98648  20727393.504    20727399.615
  21234030.430   -25403223.69649 -19496228.49047  21234029.377    21234036.279
  23545447.859   -12818074.94749  -9965944.10645  23545447.356    23545455.552
  20763756.006   -28230933.29649 -21968104.21147  20763755.071    20763761.746
  20712237.433   -26877769.57249 -20925884.87848  20712236.617    20712241.710
 03  2 27  1  2 30.0000000  0  9G 6G 2G26G16G23G15G29G17G18
  21719536.814   -23083657.93049 -17945163.83047  21719536.268    21719543.513
  25041089.075   -10225165.00949  -7716647.30944  25041088.065    25041099.343
  21867556.430   -21488628.78249 -16696964.35746  21867556.136    21867563.302
  23677246.193   -14049447.13549 -10639811.30245  23677245.434    23677253.342
  20732287.477   -25850702.82949 -20111379.68348  20732286.577    20732292.682
  21224841.601   -25451511.14649 -19533855.04847  21224840.539    21224847.411
  23558181.919   -12751156.57749  -9913799.93845  23558181.451    23558189.629
  20762644.861   -28236772.41449 -21972654.16247  20762643.921    20762650.610
  20706330.975   -26908808.03249 -20950070.66248  20706330.166    20706335.271
 03  2 27  1  3  0.0000000  0  9G 6G 2G26G16G23G15G29G17G18
  21735233.408   -23001171.90249 -17880889.06847  21735232.842    21735240.143
  25038576.426   -10238368.73749  -7726935.90644  25038575.475    25038586.854
  21876220.955   -21443096.39649 -16661484.58246  21876220.677    21876227.864
  23681001.924   -14029710.99649 -10624432.51145  23681001.183    23681009.027
  20737242.068   -25824666.26549 -20091091.45448  20737241.167    20737247.247
  21215682.078   -25499644.70849 -19571361.69947  21215681.020    21215687.857
  23570994.915   -12683823.69949  -9861332.77645  23570994.420    23571002.651
  20761570.485   -28242418.27449 -21977053.52747  20761569.545    20761576.226
  20700500.495   -26939447.33349 -20973945.42048  20700499.682    20700504.810
 03  2 27  1  3 30.0000000  0  9G 6G 2G26G16G23G15G29G17G18
  21750999.694   -22918319.63949 -17816328.92847  21750999.127    21751006.478
  25036143.197   -10251155.44849  -7736899.55344  25036142.189    25036153.653
  21885001.443   -21396954.62949 -16625529.95246  21885001.169    21885008.330
  23684848.182   -14009498.80649 -10608682.75545  23684847.621    23684855.264
  20742257.890   -25798307.95749 -20070552.51448  20742256.994    20742263.060
  21206552.007   -25547623.54549 -19608747.77647  21206550.940    21206557.776
  23583886.392   -12616078.33549  -9808544.19045  23583886.005    23583894.172
  20760533.132   -28247869.58649 -21981301.29047  20760532.213    20760538.880
  20694745.887   -26969687.89349 -20997509.46748  20694745.096    20694750.202
 03  2 27  1  4  0.0000000  0  9G 6G 2G26G16G23G15G29G17G18
  21766835.103   -22835104.04449 -17751485.67447  21766834.534    21766841.940
  25033789.026   -10263526.39249  -7746539.23744  25033788.259    25033799.681
  21893897.403   -21350206.19049 -16589102.59346  21893897.120    21893904.228
  23688784.535   -13988813.21849 -10592564.14445  23688783.996    23688791.620
  20747334.434   -25771630.62749 -20049764.98048  20747333.530    20747339.590
  21197451.277   -25595447.89649 -19646013.47547  21197450.211    21197457.058
  23596855.918   -12547923.50549  -9755436.53945  23596855.477    23596863.684
  20759532.698   -28253126.90949 -21985397.89447  20759531.755    20759538.431
  20689066.936   -26999530.78549 -21020763.64548  20689066.138    20689071.265
 03  2 27  1  4 30.0000000  0  9G 6G 2G26G16G23G15G29G17G18
  21782739.383   -22751526.53149 -17686360.38747  21782738.824    21782746.284
  25031513.961   -10275481.35349  -7755854.77744  25031513.263    25031524.792
  21902908.579   -21302852.31549 -16552203.47446  21902908.272    21902915.319
  23692810.812   -13967655.39249 -10576077.55145  23692810.159    23692817.979
  20752471.422   -25744635.51949 -20028729.82847  20752470.514    20752476.585
  21188380.263   -25643116.32649 -19683157.66647  21188379.210    21188386.062
  23609903.036   -12479361.08449  -9702011.28845  23609902.605    23609910.601
  20758569.461   -28258188.66449 -21989342.10747  20758568.522    20758575.196
  20683463.656   -27028976.04349 -21043707.97848  20683462.857    20683467.998
 03  2 27  1  5  0.0000000  0  9G 6G 2G26G16G23G15G29G17G18
  21798712.214   -22667588.74049 -17620954.38147  21798711.656    21798719.186
  25029318.278   -10287020.53749  -7764846.33444  25029317.674    25029328.983
  21912034.721   -21254894.39749 -16514833.66346  21912034.384    21912041.344
  23696926.587   -13946026.77949 -10559224.12245  23696925.890    23696933.625
  20757668.590   -25717324.18849 -20007448.27147  20757667.676    20757673.761
  21179339.038   -25690628.09149 -19720179.78647  21179337.990    21179344.842
  23623027.422   -12410392.72349  -9648269.71345  23623026.978    23623034.801
  20757643.566   -28263054.23949 -21993133.45847  20757642.633    20757649.275
  20677936.011   -27058023.86649 -21066342.63148  20677935.213    20677940.357
 03  2 27  1  5 30.0000000  0 10G 6G 2G26G16G23G 3G15G29G17G18
  21814752.795   -22583294.97549 -17555270.98347  21814752.241    21814759.814
  25027200.912   -10298146.83549  -7773516.18744  25027200.040    25027211.616
  21921274.960   -21206336.60449 -16476996.40946  21921274.637    21921281.475
  23701131.270   -13923931.29549 -10542006.89745  23701130.488    23701138.320
  20762925.189   -25689700.62749 -19985923.40847  20762924.267    20762930.370
  24584797.340    -6575712.15949  -5106291.51945  24584796.809    24584806.755
  21170327.338   -25737984.86149 -19757081.12247  21170326.288    21170333.143
  23636228.187   -12341022.95049  -9594215.35645  23636227.719    23636235.432
  20756754.708   -28267725.31749 -21996773.24947  20756753.778    20756760.430
  20672483.498   -27086676.90049 -21088669.65248  20672482.708    20672487.862
 03  2 27  1  6  0.0000000  0 10G 6G 2G26G16G23G 3G15G29G17G18
  21830861.325   -22498644.28049 -17489309.46747  21830860.770    21830868.378
  25025162.664   -10308857.73449  -7781862.30544  25025161.981    25025173.352
  21930629.635   -21157177.75549 -16438690.81046  21930629.301    21930636.039
  23705424.974   -13901367.73549 -10524424.92445  23705424.307    23705431.992
  20768241.385   -25661763.74949 -19964154.40847  20768240.456    20768246.578
  24565916.080    -6674933.22749  -5183606.44945  24565915.700    24565925.467
  21161345.797   -25785182.96549 -19793858.83547  21161344.746    21161351.603
  23649505.405   -12271251.11949  -9539847.70745  23649504.899    23649512.522
  20755903.582   -28272197.86449 -22000258.34747  20755902.658    20755909.314
  20667106.596   -27114932.60849 -21110687.07648  20667105.810    20667110.956
 03  2 27  1  6 30.0000000  0 10G 6G 2G26G16G23G 3G15G29G17G18
  21847037.314   -22413639.34249 -17423071.92647  21847036.751    21847044.408
  25023203.319   -10319154.30149  -7789885.60544  25023202.646    25023214.087
  21940098.149   -21107420.40749 -16399918.84446  21940097.826    21940104.461
  23709807.279   -13878338.62349 -10506480.19445  23709806.583    23709814.208
  20773616.740   -25633516.07849 -19942143.22947  20773615.815    20773621.946
  24547065.210    -6773994.50849  -5260796.86745  24547064.681    24547074.260
  21152394.522   -25832221.99949 -19830512.59047  21152393.493    21152400.333
  23662858.523   -12201080.02849  -9485168.93145  23662858.064    23662865.540
  20755090.271   -28276471.77949 -22003588.66947  20755089.331    20755095.999
  20661805.094   -27142792.16949 -21132395.80848  20661804.320    20661809.446
 03  2 27  1  7  0.0000000  0 10G 6G 2G26G16G23G 3G15G29G17G18
  21863280.441   -22328281.42949 -17356559.34347  21863279.886    21863287.557
  25021322.769   -10329036.35449  -7797585.88744  25021322.042    25021333.078
  21949680.404   -21057065.49049 -16360681.24046  21949680.052    21949686.634
  23714278.038   -13854844.64049 -10488173.21945  23714277.467    23714285.108
  20779051.049   -25604958.56649 -19919890.62147  20779050.123    20779056.271
  24528245.332    -6872892.91749  -5337860.36845  24528244.929    24528254.560
  21143473.779   -25879100.57549 -19867041.31547  21143472.748    21143479.577
  23676287.274   -12130511.25949  -9430180.28945  23676286.768    23676294.222
  20754315.000   -28280545.77149 -22006763.20847  20754314.077    20754320.722
  20656579.011   -27170255.45049 -21153795.75148  20656578.208    20656583.336
 03  2 27  1  7 30.0000000  0 10G 6G 2G26G16G23G 3G15G29G17G18
  21879590.254   -22242573.11749 -17289773.72147  21879589.685    21879597.382
  25019521.013   -10338504.60949  -7804963.71844  25019520.007    25019531.347
  21959375.860   -21006115.53949 -16320979.97446  21959375.521    21959382.067
  23718836.799   -13830888.35249 -10469506.01245  23718836.251    23718843.987
  20784543.866   -25576093.54349 -19897398.39047  20784542.940    20784549.091
  24509456.803    -6971626.75949  -5414795.64645  24509456.227    24509465.957
  21134583.608   -25925818.54849 -19903444.89447  21134582.573    21134589.400
  23689791.216   -12059547.34249  -9374883.73545  23689790.759    23689798.147
  20753577.817   -28284419.70149 -22009781.85447  20753576.878    20753583.532
  20651428.190   -27197323.28249 -21174887.55548  20651427.384    20651432.497
 03  2 27  1  8  0.0000000  0 10G 6G 2G26G16G23G 3G15G29G17G18
  21895966.341   -22156516.53549 -17222716.71347  21895965.768    21895973.483
  25017797.878   -10347559.82949  -7812019.71944  25017796.980    25017808.306
  21969184.135   -20954572.52149 -16280816.58646  21969183.801    21969190.334
  23723483.203   -13806471.63649 -10450480.02945  23723482.595    23723490.251
  20790094.842   -25546922.86649 -19874667.99047  20790093.928    20790100.079
  24490700.080    -7070193.62349  -5491600.80145  24490699.552    24490709.253
  21125724.185   -25972375.22949 -19939722.79247  21125723.156    21125729.993
  23703369.945   -11988190.73149  -9319281.20745  23703369.488    23703376.868
  20752878.846   -28288092.88349 -22012644.07147  20752877.912    20752884.536
  20646352.466   -27223996.20849 -21195671.63548  20646351.658    20646356.769
 03  2 27  1  8 30.0000000  0 10G 6G 2G26G16G23G 3G15G29G17G18
  21912408.319   -22070113.61749 -17155389.82647  21912407.756    21912415.494
  25016153.274   -10356202.38749  -7818754.16345  25016152.249    25016163.614
  21979104.968   -20902438.19349 -16240192.44046  21979104.633    21979111.203
  23728216.853   -13781596.25349 -10431096.64345  23728216.218    23728223.969
  20795703.676   -25517448.22449 -19851700.73547  20795702.765    20795708.928
  24471975.511    -7168590.99349  -5568273.92345  24471974.935    24471984.789
  21116895.571   -26018769.75949 -19975874.33747  21116894.538    21116901.350
  23717023.014   -11916443.61649  -9263374.39545  23717022.556    23717029.923
  20752218.302   -28291564.05849 -22015348.88647  20752217.359    20752223.973
  20641351.836   -27250274.74049 -21216148.39848  20641351.030    20641356.121
 03  2 27  1  9  0.0000000  0 10G 6G 2G26G16G23G 3G15G29G17G18
  21928915.804   -21983366.41449 -17087794.67247  21928915.248    21928922.976
  25014587.162   -10364432.75949  -7825167.42845  25014586.042    25014597.346
  21989137.946   -20849714.50849 -16199109.05246  21989137.617    21989144.206
  23733037.451   -13756263.92449 -10411357.18945  23733036.810    23733044.632
  20801370.015   -25487671.43649 -19828498.03847  20801369.092    20801375.254
  24453283.723    -7266816.44849  -5644813.06545  24453283.135    24453292.911
  21108097.941   -26065001.52749 -20011899.05447  21108096.899    21108103.724
  23730749.985   -11844308.15749  -9207164.97445  23730749.494    23730756.851
  20751596.221   -28294832.81749 -22017895.97347  20751595.299    20751601.913
  20636426.133   -27276159.36249 -21236318.21648  20636425.320    20636430.404
 03  2 27  1  9 30.0000000  0 10G 6G 2G26G16G23G 3G15G29G17G18
  21945488.394   -21896277.18649 -17019933.01547  21945487.835    21945495.563
  25013099.197   -10372251.86949  -7831260.22545  25013098.183    25013109.481
  21999282.687   -20796403.73449 -16157568.20546  21999282.344    21999288.933
  23737944.579   -13730476.72549 -10391263.28345  23737943.923    23737951.643
  20807093.426   -25457594.63749 -19805061.56847  20807092.510    20807098.677
  24434625.070    -7364867.62449  -5721216.43445  24434624.422    24434634.260
  21099331.393   -26111069.88649 -20047796.43347  21099330.358    21099337.195
  23744550.442   -11771786.84649  -9150654.90245  23744549.960    23744557.255
  20751012.793   -28297898.67549 -22020284.95047  20751011.853    20751018.506
  20631575.253   -27301650.79549 -21256181.65048  20631574.438    20631579.535
 03  2 27  1 10  0.0000000  0 10G 6G 2G26G16G23G 3G15G29G17G18
  21962125.755   -21808847.54049 -16951806.09547  21962125.207    21962132.926
  25011689.474   -10379659.91849  -7837032.71645  25011688.328    25011699.736
  22009538.842   -20742507.30149 -16115570.99146  22009538.474    22009545.091
  23742938.024   -13704235.96249 -10370815.93445  23742937.376    23742945.211
  20812873.675   -25427219.31349 -19781392.48447  20812872.758    20812878.921
  24416000.111    -7462741.96549  -5797482.00345  24415999.296    24416009.191
  21090596.131   -26156973.69549 -20083565.59247  21090595.095    21090601.932
  23758423.922   -11698881.59949  -9093845.66845  23758423.426    23758430.744
  20750468.285   -28300760.13249 -22022514.66347  20750467.330    20750473.990
  20626799.176   -27326749.18949 -21275738.82048  20626798.365    20626803.452
 03  2 27  1 10 30.0000000  0 10G 6G 2G26G16G23G 3G15G29G17G18
  21978827.401   -21721080.14049 -16883415.97846  21978826.845    21978834.578
  25010357.760   -10386657.98149  -7842485.74745  25010356.680    25010368.102
  22019905.987   -20688027.85249 -16073119.48846  22019905.617    22019912.227
  23748017.281   -13677544.47049 -10350017.39645  23748016.591    23748024.456
  20818710.259   -25396547.73449 -19757492.55147  20818709.327    20818715.501
  24397409.112    -7560437.79049  -5873608.48845  24397408.146    24397418.066
  21081892.271   -26202712.72049 -20119206.34947  21081891.221    21081898.056
  23772369.950   -11625595.08949  -9036739.33945  23772369.461    23772376.842
  20749962.640   -28303417.38649 -22024585.24647  20749961.700    20749968.370
  20622097.656   -27351455.81149 -21294990.71448  20622096.840    20622101.912
 03  2 27  1 11  0.0000000  0 10G 6G 2G26G16G23G 3G15G29G17G18
  21995592.998   -21632976.75349 -16814764.06646  21995592.458    21995600.160
  25009104.072   -10393246.09549  -7847619.32845  25009103.048    25009114.477
  22030383.731   -20632967.05749 -16030214.97846  22030383.343    22030390.017
  23753182.056   -13650403.64449 -10328868.72345  23753181.295    23753189.306
  20824602.989   -25365581.15849 -19733362.74447  20824602.058    20824608.241
  24378852.632    -7657952.05349  -5949593.48745  24378851.733    24378861.675
  21073219.987   -26248285.68649 -20154717.70847  21073218.944    21073225.765
  23786388.127   -11551929.35849  -8979337.50245  23786387.607    23786394.968
  20749496.218   -28305868.55249 -22026495.23647  20749495.283    20749501.934
  20617470.686   -27375770.49949 -21313937.20348  20617469.873    20617474.931
 03  2 27  1 11 30.0000000  0 10G 6G 2G26G16G23G 3G15G29G17G18
  22012422.289   -21544538.56449 -16745851.25646  22012421.757    22012429.451
  25007928.468   -10399424.04049  -7852433.29545  25007927.463    25007938.873
  22040971.885   -20577325.88449 -15986858.22846  22040971.463    22040978.213
  23758432.113   -13622814.37049 -10307370.60845  23758431.360    23758439.326
  20830551.694   -25334320.58549 -19709003.85047  20830550.780    20830556.940
  24360331.417    -7755281.40549  -6025434.40045  24360330.294    24360340.526
  21064579.595   -26293690.91549 -20190098.36647  21064578.566    21064585.375
  23800478.258   -11477885.64649  -8921641.14945  23800477.702    23800485.083
  20749069.219   -28308112.45149 -22028243.72647  20749068.269    20749074.927
  20612918.335   -27399693.16949 -21332578.22648  20612917.544    20612922.570
 03  2 27  1 12  0.0000000  0 10G 6G 2G26G16G23G 3G15G29G17G18
  22029314.621   -21455769.07149 -16676680.29246  22029314.073    22029321.770
  25006830.487   -10405193.78149  -7856929.19545  25006829.313    25006840.979
  22051669.797   -20521107.88149 -15943052.00446  22051669.407    22051676.175
  23763766.902   -13594779.88349 -10285525.58145  23763766.167    23763774.115
  20836555.740   -25302769.04249 -19684418.22347  20836554.823    20836561.001
  24341845.585    -7852424.76649  -6101130.36845  24341844.591    24341854.542
  21055971.081   -26338928.87849 -20225348.69047  21055970.055    21055976.861
  23814639.664   -11403467.79049  -8863653.27345  23814639.128    23814646.439
  20748681.476   -28310149.98949 -22029831.41447  20748680.527    20748687.208
  20608440.257   -27423225.64949 -21350915.20748  20608439.444    20608444.475
 03  2 27  1 12 30.0000000  0  9G 6G26G16G23G 3G15G29G17G18
  22046269.800   -21366669.35349 -16607252.01746  22046269.246    22046276.935
  22062477.229   -20464314.32949 -15898797.30346  22062476.845    22062483.673
  23769186.236   -13566301.42749 -10263334.59345  23769185.465    23769193.540
  20842614.942   -25270927.57949 -19659606.68747  20842614.019    20842620.204
  24323395.709    -7949378.85349  -6176678.84845  24323394.884    24323404.752
  21047394.690   -26383997.97149 -20260467.43047  21047393.653    21047400.465
  23828872.036   -11328677.00449  -8805374.80045  23828871.514    23828878.693
  20748333.412   -28311978.89049 -22031256.53347  20748332.488    20748339.149
  20604036.460   -27446367.64249 -21368947.90848  20604035.653    20604040.667
 03  2 27  1 13  0.0000000  0  9G 6G26G16G23G 3G15G29G17G18
  22063288.323   -21277236.67949 -16537564.30546  22063287.774    22063295.457
  22073394.710   -20406942.31049 -15854091.85146  22073394.337    22073401.206
  23774690.528   -13537375.93149 -10240795.28945  23774689.814    23774697.862
  20848729.913   -25238793.12949 -19634566.85247  20848728.995    20848735.184
  24304983.302    -8046136.24049  -6252074.05144  24304982.561    24304992.331
  21038851.545   -26428892.41449 -20295450.08747  21038850.487    21038857.282
  23843175.896   -11253510.87749  -8746803.86945  23843175.283    23843182.450
  20748026.128   -28313593.67249 -22032514.80247  20748025.181    20748031.866
  20599707.822   -27469114.87949 -21386673.01848  20599707.010    20599712.003
 03  2 27  1 13 30.0000000  0  9G 6G26G16G23G 3G15G29G17G18
  22080368.342   -21187480.80249 -16467624.72946  22080367.779    22080375.491
  22084420.415   -20349001.69349 -15808943.34246  22084420.074    22084427.002
  23780278.119   -13508013.14249 -10217915.22745  23780277.346    23780285.403
  20854898.890   -25206374.99649 -19609305.97047  20854897.965    20854904.177
  24286607.255    -8142702.25349  -6327320.11544  24286606.682    24286616.075
  21030340.313   -26473619.16049 -20330302.06847  21030339.269    21030346.027
  23857549.280   -11177979.25849  -8687948.10745  23857548.693    23857555.728
  20747758.305   -28315001.17649 -22033611.55447  20747757.366    20747764.031
  20595452.684   -27491475.58749 -21404096.92748  20595451.885    20595456.856
 03  2 27  1 14  0.0000000  0  9G 6G26G16G23G 3G15G29G17G18
  22097509.687   -21097402.76349 -16397434.13546  22097509.122    22097516.810
  22095554.133   -20290493.47149 -15763352.53546  22095553.776    22095560.794
  23785948.709   -13478214.04349 -10194695.18945  23785947.920    23785956.046
  20861121.661   -25173673.97249 -19583824.65547  20861120.727    20861126.953
  24268268.286    -8239073.66149  -6402414.53844  24268267.839    24268277.209
  21021861.349   -26518176.16749 -20365021.79547  21021860.289    21021867.050
  23871991.942   -11102083.40449  -8628808.55445  23871991.384    23871998.309
  20747530.308   -28316199.41549 -22034545.24647  20747529.364    20747536.033
  20591271.204   -27513449.48449 -21421219.43048  20591270.400    20591275.371
 03  2 27  1 14 30.0000000  0  9G 6G26G16G23G 3G15G29G17G18
  22114712.030   -21007004.25149 -16326993.81446  22114711.493    22114719.127
  22106795.559   -20231419.30449 -15717320.73546  22106795.234    22106802.256
  23791702.131   -13447979.84649 -10171136.10545  23791701.328    23791709.390
  20867398.037   -25140691.48849 -19558124.00547  20867397.102    20867403.329
  24249966.858    -8335247.26249  -6477354.83744  24249966.448    24249975.712
  21013414.943   -26562562.11449 -20399608.22947  21013413.886    21013420.644
  23886503.523   -11025825.07949  -8569386.54045  23886502.918    23886509.843
  20747342.367   -28317187.15649 -22035314.90447  20747341.414    20747348.097
  20587163.321   -27535036.50249 -21438040.46748  20587162.514    20587167.462
 03  2 27  1 15  0.0000000  0  9G 6G26G16G23G 3G15G29G17G18
  22131975.079   -20916286.69449 -16256304.88146  22131974.503    22131982.156
  22118144.419   -20171780.60749 -15670849.04446  22118144.107    22118151.128
  23797537.992   -13417312.11849 -10147239.23745  23797537.197    23797545.319
  20873727.759   -25107428.54249 -19532204.81947  20873726.830    20873733.069
  24231703.795    -8431219.75449  -6552138.42844  24231703.322    24231712.550
  21005001.382   -26606775.56449 -20434060.25747  21005000.341    21005007.075
  23901083.626   -10949206.09549  -8509683.53145  23901083.054    23901090.046
  20747194.748   -28317962.84449 -22035919.32747  20747193.787    20747200.502
  20583129.072   -27556236.47349 -21454559.90848  20583128.257    20583133.202
 03  2 27  1 15 30.0000000  0  9G 6G26G16G23G 3G15G29G17G18
  22149298.470   -20825252.05249 -16185368.88446  22149297.910    22149305.528
  22129600.326   -20111579.46549 -15623939.09446  22129600.017    22129607.075
  23803456.051   -13386212.66549 -10123005.92745  23803455.281    23803463.443
  20880110.537   -25073886.70749 -19506068.32147  20880109.611    20880115.832
  24213479.338    -8526988.92249  -6626763.59444  24213478.777    24213488.054
  20996620.878   -26650815.28449 -20468376.90747  20996619.833    20996626.560
  23915731.927   -10872228.45649  -8449701.02045  23915731.324    23915738.441
  20747087.591   -28318525.64749 -22036357.86347  20747086.641    20747093.391
  20579168.425   -27577049.87049 -21470778.12048  20579167.629    20579172.545
 03  2 27  1 16  0.0000000  0  9G 6G26G16G23G 3G15G29G17G18
  22166681.961   -20733901.60549 -16114186.80246  22166681.395    22166689.028
  22141162.988   -20050817.14449 -15576591.86346  22141162.662    22141169.762
  23809456.055   -13354682.61849 -10098437.11345  23809455.277    23809463.403
  20886546.242   -25040066.90849 -19479715.22747  20886545.316    20886551.529
  24195294.291    -8622551.03949  -6701227.43444  24195293.898    24195302.676
  20988273.820   -26694679.48049 -20502556.79547  20988272.781    20988279.474
  23930448.224   -10794893.41849  -8389440.00445  23930447.606    23930454.880
  20747021.373   -28318873.55349 -22036628.94947  20747020.417    20747027.174
  20575281.311   -27597476.68149 -21486695.09948  20575280.510    20575285.433
 03  2 27  1 16 30.0000000  0  9G 6G26G16G23G 3G15G29G17G18
  22184124.768   -20642239.35949 -16042761.76246  22184124.180    22184131.823
  22152831.708   -19989497.66049 -15528810.47946  22152831.384    22152838.524
  23815537.212   -13322726.07049 -10073535.94745  23815536.427    23815544.584
  20893034.142   -25005972.72749 -19453148.32447  20893033.224    20893039.412
  24177148.755    -8717905.59049  -6775529.51844  24177148.270    24177157.350
  20979959.934   -26738369.19949 -20536600.72247  20979958.887    20979965.581
  23945231.734   -10717205.34049  -8328903.89045  23945231.092    23945238.360
  20746995.863   -28319007.64349 -22036733.42147  20746994.904    20747001.636
  20571467.308   -27617519.32549 -21502312.72248  20571466.500    20571471.427
 03  2 27  1 17  0.0000000  0  9G 6G26G16G23G 3G15G29G17G18
  22201626.722   -20550266.25049 -15971094.48646  22201626.154    22201633.849
  22164606.240   -19927621.95149 -15480595.66846  22164605.912    22164613.095
  23821699.503   -13290343.22049 -10048302.60345  23821698.731    23821706.820
  20899574.187   -24971604.55049 -19426367.92547  20899573.257    20899579.439
  24159043.373    -8813048.79649  -6849666.92144  24159043.043    24159052.208
  20971679.686   -26781882.08149 -20570506.85647  20971678.639    20971685.355
  23960082.245   -10639165.30949  -8268093.56045  23960081.620    23960088.902
  20747011.492   -28318925.51249 -22036669.41147  20747010.544    20747017.240
  20567726.631   -27637176.58649 -21517630.04948  20567725.820    20567730.749
 03  2 27  1 17 30.0000000  0  9G 6G26G16G23G 3G15G29G17G18
  22219187.382   -20457984.53749 -15899186.73546  22219186.817    22219194.582
  22176486.113   -19865192.61449 -15431949.45846  22176485.789    22176492.997
  23827942.419   -13257536.66149 -10022739.10745  23827941.649    23827949.711
  20906165.961   -24936964.47649 -19399375.65547  20906165.033    20906171.222
  24140978.763    -8907978.31649  -6923637.86744  24140978.079    24140987.515
  20963433.247   -26825217.34149 -20604274.58147  20963432.198    20963438.908
  23974999.294   -10560775.88849  -8207010.96245  23974998.594    23975005.831
  20747068.379   -28318626.61749 -22036436.49647  20747067.414    20747074.104
  20564059.050   -27656449.75749 -21532648.08848  20564058.229    20564063.171
 03  2 27  1 18  0.0000000  0  9G 6G26G16G23G 3G15G29G17G18
  22236806.276   -20365396.70949 -15827040.45346  22236805.710    22236813.543
  22188470.883   -19802212.19849 -15382873.83246  22188470.542    22188477.761
  23834265.506   -13224308.71149  -9996847.26545  23834264.771    23834272.837
  20912809.096   -24902054.61449 -19372173.16547  20912808.154    20912814.376
  24122955.219    -9002691.93249  -6997440.53244  24122954.517    24122964.035
  20955220.708   -26868374.48949 -20637903.51147  20955219.663    20955226.355
  23989982.323   -10482039.64749  -8145658.10445  23989981.691    23989988.863
  20747166.548   -28318110.53249 -22036034.33847  20747165.586    20747172.286
  20560464.361   -27675339.88849 -21547367.64548  20560463.547    20560468.478
 03  2 27  1 18 30.0000000  0  9G 6G26G16G23G 3G15G29G17G18
  22254483.064   -20272504.80849 -15754657.22346  22254482.492    22254490.418
  22200560.167   -19738682.73549 -15333370.37746  22200559.852    22200567.048
  23840668.368   -13190661.64249  -9970628.81645  23840667.659    23840675.723
  20919503.215   -24866876.63849 -19344761.75947  20919502.290    20919508.517
  24104973.226    -9097187.14349  -7071072.99244  24104972.445    24104981.844
  20947042.230   -26911352.60149 -20671392.93447  20947041.175    20947047.882
  24005030.875   -10402958.86849  -8084036.76945  24005030.224    24005037.419
  20747306.292   -28317375.94049 -22035461.91847  20747305.329    20747312.062
  20556942.466   -27693847.43049 -21561789.07948  20556941.646    20556946.593
 03  2 27  1 19  0.0000000  0  9G 6G26G16G23G 3G15G29G17G18
  22272217.354   -20179310.65149 -15682038.48246  22272216.785    22272224.749
  22212753.556   -19674606.19049 -15283440.63246  22212753.271    22212760.409
  23847150.648   -13156597.31049  -9944085.24145  23847149.962    23847158.031
  20926248.122   -24831431.81949 -19317142.41547  20926247.200    20926253.439
  24087033.436    -9191461.11749  -7144533.10044  24087032.834    24087042.092
  20938898.107   -26954150.24449 -20704741.72647  20938897.053    20938903.744
  24020144.657   -10323535.29049  -8022148.31945  24020144.031    24020151.240
  20747487.874   -28316421.67449 -22034718.32747  20747486.914    20747493.627
  20553493.306   -27711972.65449 -21575912.60148  20553492.493    20553497.438
 03  2 27  1 19 30.0000000  0  9G 6G26G16G23G 3G15G29G17G18
  22290008.693   -20085816.91849 -15609186.31246  22290008.099    22290016.153
  22225050.516   -19609985.48549 -15233086.86746  22225050.218    22225057.336
  23853711.888   -13122118.12849  -9917218.41045  23853711.160    23853719.254
  20933043.376   -24795722.61449 -19289317.06647  20933042.456    20933048.675
  24069136.058    -9285511.97949  -7217819.33245  24069135.294    24069144.779
  20930788.402   -26996766.94849 -20737949.52947  20930787.337    20930794.039
  24035323.077   -10243772.29049  -7959995.40245  24035322.492    24035329.683
  20747711.332   -28315247.50049 -22033803.38547  20747710.369    20747717.060
  20550116.674   -27729716.96449 -21589739.31048  20550115.871    20550120.822
 03  2 27  1 20  0.0000000  0  9G 6G26G16G23G 3G15G29G17G18
  22307856.523   -19992026.18749 -15536102.72646  22307855.952    22307864.027
  22237450.541   -19544823.16049 -15182311.06046  22237450.253    22237457.339
  23860351.570   -13087226.54949  -9890030.21545  23860350.792    23860358.871
  20939888.559   -24759751.04549 -19261287.27747  20939887.627    20939893.847
  24051281.690    -9379337.17849  -7290929.73845  24051280.864    24051290.267
  20922713.258   -27039201.96849 -20771015.75747  20922712.188    20922718.888
  24050565.687   -10163671.97649  -7897579.61145  24050565.170    24050572.264
  20747976.724   -28313852.95449 -22032716.73247  20747975.755    20747982.387
  20546812.334   -27747081.31149 -21603269.94448  20546811.529    20546816.475
 03  2 27  1 20 30.0000000  0  9G 6G26G16G23G 3G15G29G17G18
  22325760.646   -19897939.76549 -15462788.70846  22325760.028    22325768.153
  22249953.309   -19479120.86049 -15131114.49146  22249952.988    22249960.119
  23867069.500   -13051923.95749  -9862521.77045  23867068.673    23867076.798
  20946783.495   -24723517.89949 -19233053.66047  20946782.574    20946788.791
  24033470.831    -9472933.57849  -7363861.87945  24033470.234    24033479.381
  20914673.010   -27081453.64049 -20803939.11147  20914671.954    20914678.657
  24065872.206   -10083236.13049  -7834902.36545  24065871.703    24065878.796
  20748284.375   -28312236.34949 -22031457.04347  20748283.402    20748289.979
  20543580.328   -27764065.49749 -21616504.34648  20543579.516    20543584.457
 03  2 27  1 21  0.0000000  0  9G 6G26G16G23G 3G15G29G17G18
  22343720.487   -19803560.74249 -15389246.68946  22343719.884    22343727.955
  22262558.219   -19412881.68449 -15079499.57646  22262557.862    22262565.069
  23873865.045   -13016213.46349  -9834695.46845  23873864.277    23873872.308
  20953727.679   -24687025.93749 -19204618.37747  20953726.757    20953732.983
  24015703.800    -9566299.56549  -7436614.48745  24015703.195    24015712.186
  20906667.652   -27123521.96749 -20836719.60247  20906666.586    20906673.288
  24081241.943   -10002468.09749  -7771966.28545  24081241.343    24081248.547
  20748634.351   -28310397.16649 -22030023.91247  20748633.380    20748639.948
  20540420.389   -27780671.10549 -21629443.75248  20540419.574    20540424.495
 03  2 27  1 21 30.0000000  0  9G 6G26G16G23G 3G15G29G17G18
  22361735.700   -19708890.48849 -15315477.75346  22361735.093    22361743.199
  22275265.019   -19346107.21549 -15027467.56546  22275264.685    22275271.892
  23880737.943   -12980096.26749  -9806552.27645  23880737.180    23880745.266
  20960720.981   -24650275.85449 -19175981.96247  20960720.065    20960726.298
  23997981.226    -9659431.70449  -7509184.87045  23997980.454    23997989.604
  20898697.568   -27165405.07649 -20869355.77047  20898696.504    20898703.198
  24096674.659    -9921369.11049  -7708772.27745  24096674.069    24096681.317
  20749026.993   -28308333.78749 -22028416.08747  20749026.028    20749032.578
  20537332.484   -27796897.92449 -21642088.00348  20537331.661    20537336.594
 03  2 27  1 22  0.0000000  0  9G 6G26G16G23G 3G15G29G17G18
  22379805.763   -19613931.91749 -15241484.16246  22379805.133    22379813.294
  22288073.054   -19278800.54249 -14975020.84846  22288072.708    22288079.968
  23887687.702   -12943575.21849  -9778094.37845  23887686.899    23887694.945
  20967762.914   -24613270.15649 -19147146.37247  20967761.980    20967768.223
  23980303.504    -9752328.20049  -7581571.64745  23980302.492    23980311.833
  20890762.765   -27207102.54449 -20901847.28447  20890761.707    20890768.376
  24112169.682    -9839942.47849  -7645322.93645  24112169.112    24112176.361
  20749462.366   -28306045.87649 -22026633.30447  20749461.407    20749467.958
  20534316.429   -27812747.43549 -21654438.25548  20534315.619    20534320.528
 03  2 27  1 22 30.0000000  0  9G 6G26G16G23G 3G15G29G17G18
  22397930.388   -19518686.82749 -15167267.30246  22397929.766    22397937.929
  22300982.015   -19210963.74649 -14922161.04946  22300981.702    22300988.903
  23894713.959   -12906652.35749  -9749323.39245  23894713.084    23894721.177
  20974853.224   -24576010.41449 -19118112.81247  20974852.302    20974858.543
  23962671.212    -9844986.19049  -7653772.59245  23962670.389    23962679.591
  20882863.589   -27248612.96649 -20934193.03147  20882862.515    20882869.200
  24127726.706    -9758189.97849  -7581619.65945  24127726.112    24127733.437
  20749940.643   -28303532.63549 -22024674.93347  20749939.686    20749946.237
  20531372.084   -27828219.92449 -21666494.72048  20531371.267    20531376.171
 03  2 27  1 23  0.0000000  0  9G 6G26G16G23G 3G15G29G17G18
  22416108.897   -19423158.33649 -15092829.60546  22416108.341    22416116.513
  22313991.296   -19142599.99049 -14868890.63346  22313990.996    22313998.096
  23901816.050   -12869330.65449  -9720241.59645  23901815.277    23901823.378
  20981991.378   -24538499.07349 -19088883.20647  20981990.450    20981996.715
  23945084.520    -9937403.96849  -7725786.36345  23945083.873    23945092.857
  20875000.087   -27289935.91849 -20966392.71447  20874999.019    20875005.696
  24143345.035    -9676115.10749  -7517665.21445  24143344.381    24143351.857
  20750461.895   -28300793.52449 -22022540.55947  20750460.925    20750467.480
  20528499.212   -27843316.88749 -21678258.56748  20528498.396    20528503.300
 03  2 27  1 23 30.0000000  0  9G 6G26G16G23G 3G15G29G17G18
  22434341.228   -19327347.29949 -15018171.73846  22434340.669    22434348.863
  22327100.625   -19073710.42449 -14815210.48846  22327100.319    22327107.397
  23908993.902   -12831610.94549  -9690849.65345  23908993.039    23909001.290
  20989177.352   -24500736.55449 -19059457.87947  20989176.416    20989182.679
  23927544.377   -10029577.60449  -7797609.89445  23927543.656    23927552.740
  20867172.636   -27331069.23949 -20998444.62947  20867171.568    20867178.235
  24159024.501    -9593718.65249  -7453460.14245  24159023.865    24159031.486
  20751026.493   -28297826.63049 -22020228.68747  20751025.534    20751032.090
  20525697.883   -27858038.04049 -21689729.58048  20525697.076    20525701.984
 03  2 27  1 24  0.0000000  0  9G 6G26G16G23G 3G15G29G17G18
  22452626.763   -19231256.46449 -14943295.86246  22452626.200    22452634.410
  22340309.515   -19004297.74249 -14761122.73046  22340309.226    22340316.234
  23916246.979   -12793495.98949  -9661149.78145  23916246.127    23916254.462
  20996410.723   -24462724.98649 -19029838.48047  20996409.788    20996416.048
  23910051.108   -10121504.92449  -7869241.49445  23910050.377    23910059.500
  20859381.356   -27372012.56249 -21030348.48747  20859380.312    20859386.961
  24174764.619    -9511003.60249  -7389006.83645  24174764.069    24174771.811
  20751634.517   -28294631.47149 -22017738.94447  20751633.543    20751640.114
  20522967.826   -27872384.35949 -21700908.51348  20522967.006    20522971.918
 03  2 27  1 24 30.0000000  0  9G 6G26G16G23G 3G15G29G17G18
  22470965.032   -19134888.79049 -14868204.25646  22470964.495    22470972.674
  22353617.259   -18934365.30349 -14706629.95446  22353616.923    22353623.911
  23923574.687   -12754988.83149  -9631144.25545  23923573.845    23923582.069
  21003690.999   -24424466.89849 -19000026.99447  21003690.068    21003696.312
  23892605.076   -10213184.17549  -7940679.80345  23892604.444    23892613.656
  20851626.334   -27412765.36749 -21062103.89447  20851625.290    20851631.954
  24190564.770    -9427972.92249  -7324307.59845  24190564.171    24190572.140
  20752286.127   -28291207.12849 -22015070.62047  20752285.152    20752291.766
  20520308.798   -27886357.52849 -21711796.68148  20520307.976    20520312.902
 03  2 27  1 25  0.0000000  0  9G 6G26G16G23G 3G15G29G17G18
  22489355.619   -19038246.24149 -14792898.47246  22489355.073    22489363.242
  22367023.505   -18863915.32649 -14651733.90746  22367023.182    22367030.189
  23930976.653   -12716091.44949  -9600834.67045  23930975.830    23930984.060
  21011017.902   -24385963.75049 -18970024.54847  21011016.986    21011023.234
  23875206.752   -10304612.71249  -8011922.75245  23875206.109    23875215.317
  20843907.787   -27453326.55149 -21093709.98947  20843906.734    20843913.375
  24206424.541    -9344629.11449  -7259364.37145  24206423.851    24206432.002
  20752981.484   -28287552.82249 -22012223.09947  20752980.531    20752987.129
  20517720.743   -27899957.80249 -21722394.28848  20517719.918    20517724.849
 03  2 27  1 25 30.0000000  0  9G 6G26G16G23G 3G15G29G17G18
  22507797.836   -18941332.09149 -14717381.04646  22507797.296    22507805.469
  22380527.528   -18792951.27349 -14596437.26946  22380527.233    22380534.221
  23938452.283   -12676807.12549  -9570223.57045  23938451.396    23938459.742
  21018390.912   -24347218.29449 -18939833.29247  21018389.981    21018396.248
  23857856.465   -10395788.70249  -8082968.88745  23857855.760    23857865.018
  20836225.710   -27493696.14949 -21125166.80047  20836224.652    20836231.276
  24222343.320    -9260975.15149  -7194179.45845  24222342.671    24222350.773
  20753720.656   -28283668.43749 -22009196.29547  20753719.699    20753726.295
  20515203.280   -27913187.00249 -21732702.74448  20515202.461    20515207.400
 03  2 27  1 26  0.0000000  0 10G 6G26G14G16G23G 3G15G29G17G18
  22526291.005   -18844150.17749 -14641654.98046  22526290.474    22526298.611
  22394128.622   -18721477.25049 -14540743.24346  22394128.337    22394135.252
  24654328.644    -6074728.28749  -4700944.28045  24654327.775    24654339.441
  23946000.842   -12637139.49149  -9539313.79545  23945999.959    23946008.345
  21025809.442   -24308233.74049 -18909455.72047  21025808.515    21025814.791
  23840554.394   -10486711.37949  -8153817.66345  23840553.798    23840563.049
  20828580.056   -27533874.23949 -21156474.37647  20828578.995    20828585.596
  24238320.325    -9177015.14349  -7128756.05645  24238319.781    24238327.947
  20754503.455   -28279554.87049 -22005990.90847  20754502.487    20754509.084
  20512755.974   -27926047.47949 -21742723.88848  20512755.165    20512760.106
 03  2 27  1 26 30.0000000  0 10G 6G26G14G16G23G 3G15G29G17G18
  22544834.603   -18746703.33349 -14565722.46246  22544834.036    22544842.228
  22407826.244   -18649496.31349 -14484654.23446  22407825.895    22407832.781
  24632702.383    -6188373.09749  -4789498.31045  24632701.646    24632713.282
  23953621.673   -12597091.77549  -9508107.84345  23953620.823    23953629.185
  21033273.051   -24269012.40249 -18878893.63847  21033272.099    21033278.388
  23823300.984   -10577378.72749  -8224467.46345  23823300.412    23823309.494
  20820970.952   -27573860.39749 -21187632.39947  20820969.883    20820976.452
  24254354.979    -9092751.85549  -7063096.30845  24254354.431    24254362.808
  20755329.957   -28275211.74049 -22002606.64347  20755328.995    20755335.557
  20510378.587   -27938540.66949 -21752458.82648  20510377.771    20510382.719
 03  2 27  1 27  0.0000000  0 10G 6G26G14G16G23G 3G15G29G17G18
  22563429.416   -18648987.12049 -14489580.06546  22563428.863    22563437.065
  22421621.086   -18577004.35349 -14428167.00446  22421620.784    22421627.513
  24611077.083    -6302013.25749  -4878048.72245  24611076.218    24611087.843
  23961315.701   -12556659.52749  -9476602.24045  23961314.897    23961323.235
  21040782.626   -24229549.33149 -18848143.19547  21040781.700    21040787.962
  23806097.870   -10667781.54349  -8294911.13745  23806097.422    23806106.325
  20813399.813   -27613646.88749 -21218634.85247  20813398.754    20813405.295
  24270448.157    -9008181.29449  -6997197.09645  24270447.549    24270455.987
  20756201.584   -28270631.27949 -21999037.45147  20756200.611    20756207.178
  20508072.227   -27950660.58249 -21761902.90048  20508071.408    20508076.347
 03  2 27  1 27 30.0000000  0 10G 6G26G14G16G23G 3G15G29G17G18
  22582074.404   -18551007.35349 -14413232.28646  22582073.825    22582082.075
  22435512.038   -18504007.44649 -14371286.33146  22435511.748    22435518.396
  24589452.544    -6415649.70149  -4966596.27945  24589451.686    24589463.190
  23969081.814   -12515848.61649  -9444801.60245  23969080.941    23969089.458
  21048337.211   -24189849.78549 -18817208.48947  21048336.270    21048342.555
  23788944.913   -10757920.57549  -8365149.24845  23788944.246    23788953.155
  20805866.167   -27653236.29949 -21249483.71747  20805865.109    20805871.672
  24286598.699    -8923309.37949  -6931063.11045  24286598.078    24286606.540
  20757117.798   -28265816.46149 -21995285.63947  20757116.817    20757123.398
  20505836.082   -27962411.66649 -21771059.58148  20505835.256    20505840.181
 03  2 27  1 28  0.0000000  0 10G 6G26G14G16G23G 3G15G29G17G18
  22600769.323   -18452765.02749 -14336679.92346  22600768.743    22600776.991
  22449498.814   -18430506.77149 -14314013.07646  22449498.486    22449505.043
  24567829.455    -6529278.45249  -5055137.84945  24567828.567    24567839.836
  23976919.756   -12474660.12349  -9412706.72045  23976918.905    23976927.360
  21055936.728   -24149914.09749 -18786089.77347  21055935.799    21055942.058
  23771842.809   -10847792.31649  -8435179.10245  23771842.276    23771850.909
  20798370.502   -27692626.26249 -21280177.17547  20798369.448    20798375.982
  24302806.435    -8838137.10249  -6864695.06545  24302805.828    24302814.292
  20758079.207   -28260764.07549 -21991348.70347  20758078.232    20758084.851
  20503670.211   -27973793.25649 -21779928.34248  20503669.405    20503674.295
 03  2 27  1 28 30.0000000  0 10G 6G26G14G16G23G 3G15G29G17G18
  22619513.633   -18354263.26149 -14259925.39446  22619513.057    22619521.334
  22463580.724   -18356505.93149 -14256350.09146  22463580.397    22463586.870
  24546208.087    -6642897.86849  -5143672.13945  24546207.195    24546218.386
  23984828.957   -12433097.27849  -9380320.16445  23984828.149    23984836.550
  21063580.688   -24109744.89649 -18754789.09847  21063579.757    21063585.995
  23754791.894   -10937395.14049  -8504999.37645  23754791.241    23754799.939
  20790912.788   -27731816.59349 -21310715.07547  20790911.741    20790918.284
  24319070.694    -8752667.70549  -6798095.48245  24319070.128    24319078.447
  20759085.701   -28255474.62249 -21987227.04647  20759084.735    20759091.370
  20501574.364   -27984807.15449 -21788510.59348  20501573.546    20501578.429
 03  2 27  1 29  0.0000000  0 10G 6G26G14G16G23G 3G15G29G17G18
  22638306.800   -18255504.75849 -14182970.81546  22638306.237    22638314.566
  22477757.225   -18282007.81049 -14198299.60446  22477756.913    22477763.369
  24524588.969    -6756505.83049  -5232197.51145  24524588.052    24524599.183
  23992808.839   -12391162.85949  -9347644.04545  23992807.905    23992816.409
  21071268.667   -24069344.32449 -18723308.13147  21071267.725    21071273.983
  23737792.607   -11026726.63349  -8574608.22745  23737791.899    23737800.609
  20783493.256   -27770806.50649 -21341096.80247  20783492.208    20783498.751
  24335390.958    -8666904.35849  -6731266.88645  24335390.400    24335398.583
  20760137.451   -28249947.73549 -21982920.37847  20760136.496    20760143.094
  20499548.194   -27995454.59449 -21796807.29248  20499547.389    20499552.251
 03  2 27  1 29 30.0000000  0 10G 6G26G14G16G23G 3G15G29G17G18
  22657148.257   -18156492.43049 -14105818.45546  22657147.713    22657156.076
  22492027.722   -18207015.69249 -14139864.18946  22492027.414    22492033.891
  24502972.419    -6870100.25749  -5320712.34445  24502971.387    24502982.550
  24000858.905   -12348859.81549  -9314680.70745  24000857.991    24000866.527
  21079000.230   -24028714.69249 -18691648.68047  21078999.302    21079005.541
  23720845.279   -11115785.04749  -8644004.28745  23720844.572    23720853.322
  20776111.955   -27809595.48949 -21371321.96847  20776110.908    20776117.439
  24351766.598    -8580849.83449  -6664211.38745  24351765.994    24351774.115
  20761234.573   -28244182.31849 -21978427.84847  20761233.597    20761240.161
  20497591.545   -28005736.96349 -21804819.52348  20497590.733    20497595.582
 03  2 27  1 30  0.0000000  0 10G 6G26G14G16G23G 3G15G29G17G18
  22676037.728   -18057227.98449 -14028469.63046  22676037.166    22676045.594
  22506391.869   -18131531.63149 -14081045.44246  22506391.540    22506398.033
  24481359.143    -6983677.74349  -5409213.98245  24481358.149    24481369.073
  24008978.718   -12306190.13349  -9281431.67345  24008977.860    24008986.366
  21086775.155   -23987857.10549 -18659811.59847  21086774.210    21086780.457
  23703950.533   -11204567.23249  -8713185.08945  23703949.717    23703958.642
  20768769.196   -27848181.84649 -21401389.24147  20768768.141    20768774.680
  24368197.301    -8494505.99449  -6596930.47745  24368196.709    24368204.796
  20762377.257   -28238177.49049 -21973748.76547  20762376.286    20762382.824
  20495704.230   -28015654.76049 -21812547.67448  20495703.420    20495708.267
 03  2 27  1 30 30.0000000  0 10G 6G26G14G16G23G 3G15G29G17G18
  22694974.490   -17957714.84049 -13950927.01146  22694973.926    22694982.363
  22520848.885   -18055559.30849 -14021846.23846  22520848.542    22520855.065
  24459749.293    -7097236.90649  -5497701.37145  24459748.229    24459759.302
  24017167.621   -12263157.20649  -9247899.60145  24017166.801    24017175.383
  21094592.911   -23946774.34449 -18627799.06347  21094591.988    21094598.245
  23687108.528   -11293071.79549  -8782149.57245  23687107.877    23687116.684
  20761465.005   -27886565.50049 -21431298.55447  20761463.958    20761470.496
  24384682.305    -8407876.51949  -6529427.01445  24384681.787    24384689.748
  20763565.515   -28231933.13949 -21968883.03947  20763564.543    20763571.068
  20493885.974   -28025209.72749 -21819993.10248  20493885.168    20493890.007
 03  2 27  1 31  0.0000000  0 10G 6G26G14G16G23G 3G15G29G17G18
  22713958.411   -17857954.04049 -13873191.43946  22713957.854    22713966.339
  22535398.651   -17979099.90649 -13962267.47346  22535398.328    22535404.828
  24438143.703    -7210773.59849  -5586171.25645  24438142.666    24438153.532
  24025425.517   -12219762.07949  -9214085.29045  24025424.734    24025433.274
  21102453.468   -23905466.77449 -18595611.35347  21102452.556    21102458.806
  23670320.182   -11381294.79549  -8850894.66345  23670319.499    23670328.156
  20754199.879   -27924743.86949 -21461047.90747  20754198.827    20754205.370
  24401221.544    -8320962.07549  -6461701.50145  24401220.997    24401228.933
  20764799.766   -28225446.80349 -21963828.75747  20764798.819    20764805.359
  20492136.873   -28034401.27449 -21827155.33948  20492136.049    20492140.914
 03  2 27  1 31 30.0000000  0 10G 6G26G14G16G23G 3G15G29G17G18
  22732988.781   -17757948.88149 -13795265.43346  22732988.270    22732996.729
  22550040.404   -17902157.24849 -13902312.15546  22550040.052    22550046.570
  24416542.672    -7324286.37549  -5674622.47745  24416541.631    24416552.461
  24033751.638   -12176008.33849  -9179991.54145  24033750.900    24033759.458
  21110356.319   -23863937.03149 -18563250.52147  21110355.415    21110361.658
  23653585.686   -11469234.73149  -8919419.18745  23653585.014    23653593.733
  20746973.775   -27962717.15049 -21490637.45447  20746972.730    20746979.278
  24417814.337    -8233766.42549  -6393756.88945  24417813.878    24417821.707
  20766079.998   -28218718.99349 -21958586.31347  20766079.063    20766085.640
  20490456.570   -28043231.31249 -21834035.88548  20490455.753    20490460.638
 03  2 27  1 32  0.0000000  0 10G 6G26G14G16G23G 3G15G29G17G18
  22752065.283   -17657701.52449 -13717150.71546  22752064.763    22752073.242
  22564773.684   -17824733.79049 -13841982.18146  22564773.322    22564779.836
  24394946.689    -7437772.22649  -5763052.74745  24394945.721    24394956.732
  24042145.559   -12131898.18249  -9145620.06045  24042144.779    24042153.381
  21118301.174   -23822186.65249 -18530717.76447  21118300.255    21118306.502
  23636905.572   -11556888.82049  -8987720.97545  23636904.921    23636913.703
  20739786.967   -28000484.01849 -21520066.15447  20739785.915    20739792.454
  24434460.150    -8146291.83249  -6325594.93845  24434459.786    24434467.559
  20767406.552   -28211748.03549 -21953154.40247  20767405.604    20767412.198
  20488844.866   -28051700.74149 -21840635.43748  20488844.049    20488848.958
 03  2 27  1 32 30.0000000  0 10G 6G26G14G16G23G 3G15G29G17G18
  22771187.264   -17557215.30749 -13638849.87046  22771186.715    22771195.238
  22579597.672   -17746833.23449 -13781280.44346  22579597.280    22579603.805
  24373356.220    -7551229.63949  -5851460.87845  24373355.248    24373366.201
  24050606.631   -12087435.24749  -9110973.70345  24050605.812    24050614.485
  21126287.466   -23780218.51849 -18498015.33147  21126286.536    21126292.789
  23620280.074   -11644255.73049  -9055798.99545  23620279.341    23620288.183
  20732639.488   -28038044.26349 -21549333.85647  20732638.423    20732644.945
  24451158.437    -8058541.57149  -6257218.18345  24451158.135    24451165.874
  20768779.355   -28204534.00449 -21947533.08447  20768778.394    20768784.949
  20487301.436   -28059811.43949 -21846955.45948  20487300.617    20487305.517
 03  2 27  1 33  0.0000000  0 10G 6G26G14G16G23G 3G15G29G17G18
  22790354.704   -17456490.36649 -13560363.01446  22790354.156    22790362.617
  22594512.379   -17668456.06249 -13720207.30446  22594511.985    22594518.538
  24351771.985    -7664653.69949  -5939842.99945  24351771.090    24351782.181
  24059134.865   -12042619.49849  -9076052.42045  24059133.948    24059142.761
  21134315.334   -23738031.85049 -18465142.61247  21134314.419    21134320.634
  23603710.180   -11731330.63849  -9123649.48245  23603709.512    23603718.209
  20725531.998   -28075394.45349 -21578437.87847  20725530.933    20725537.432
  24467909.085    -7970516.12049  -6188626.96845  24467908.759    24467916.457
  20770198.968   -28197074.02249 -21941720.11447  20770197.991    20770204.528
  20485826.536   -28067561.97949 -21852994.83048  20485825.718    20485830.618
 03  2 27  1 33 30.0000000  0 10G 6G26G14G16G23G 3G15G29G17G18
  22809566.845   -17355530.61049 -13481693.17246  22809566.265    22809574.750
  22609516.906   -17589606.69549 -13658766.21146  22609516.477    22609523.085
  24330194.262    -7778043.53649  -6028198.45845  24330193.468    24330204.364
  24067729.382   -11997455.35449  -9040859.65945  24067728.488    24067737.315
  21142384.155   -23695630.00649 -18432102.22047  21142383.252    21142389.455
  23587196.098   -11818112.45749  -9191271.58045  23587195.415    23587204.109
  20718464.348   -28112535.13349 -21607378.64347  20718463.276    20718469.790
  24484711.457    -7882219.47949  -6119824.43645  24484711.087    24484718.852
  20771665.205   -28189368.83049 -21935716.06347  20771664.246    20771670.741
  20484419.710   -28074954.84849 -21858755.49448  20484418.892    20484423.791
 03  2 27  1 34  0.0000000  0 10G 6G26G14G16G23G 3G15G29G17G18
  22828823.021   -17254339.18049 -13402842.81146  22828822.455    22828830.989
  22624610.636   -17510288.35549 -13596959.69146  22624610.248    22624616.834
  24308623.590    -7891397.05349  -6116525.66845  24308622.671    24308633.771
  24076389.643   -11951945.82749  -9005397.75345  24076388.763    24076397.539
  21150493.475   -23653015.32249 -18398895.97547  21150492.569    21150498.751
  23570738.134   -11904599.31749  -9258663.85345  23570737.458    23570746.063
  20711436.666   -28149465.64849 -21636155.63847  20711435.592    20711442.129
  24501564.856    -7793654.67049  -6050812.93445  24501564.370    24501572.085
  20773178.312   -28181417.39349 -21929520.13547  20773177.339    20773183.859
  20483080.628   -28081991.76849 -21864238.79348  20483079.809    20483084.696
 03  2 27  1 34 30.0000000  0 10G 6G26G14G16G23G 3G15G29G17G18
  22848123.073   -17152917.19349 -13323812.80146  22848122.534    22848131.096
  22639793.339   -17430502.71349 -13534789.03046  22639792.947    22639799.502
  24287060.631    -8004710.50749  -6204821.64045  24287059.759    24287070.707
  24085115.332   -11906092.29449  -8969667.81045  24085114.442    24085123.246
  21158643.176   -23610188.41649 -18365524.36047  21158642.257    21158648.438
  23554336.965   -11990787.80349  -9325823.62645  23554336.252    23554344.846
  20704449.384   -28186183.81049 -21664767.16847  20704448.329    20704454.858
  24518469.032    -7704822.83949  -5981593.34545  24518468.438    24518476.325
  20774738.604   -28173218.03549 -21923131.01647  20774737.638    20774744.173
  20481809.362   -28088672.32749 -21869444.41048  20481808.539    20481813.455
 03  2 27  1 35  0.0000000  0 10G 6G26G14G16G23G 3G15G29G17G18
  22867466.499   -17051267.35449 -13244605.23646  22867465.933    22867474.570
  22655064.390   -17350252.79349 -13472256.57846  22655064.015    22655070.508
  24265505.684    -8117981.24349  -6293084.32345  24265504.732    24265515.866
  24093905.995   -11859897.56849  -8933671.98645  24093905.106    24093913.851
  21166832.916   -23567151.19049 -18331988.85947  21166831.997    21166838.176
  23537992.951   -12076675.67649  -9392749.13245  23537992.287    23538000.840
  20697502.733   -28222688.61949 -21693212.45147  20697501.668    20697508.198
  24535423.424    -7615726.97249  -5912168.02045  24535422.949    24535430.798
  20776346.218   -28164770.03049 -21916548.14047  20776345.255    20776351.805
  20480605.601   -28094997.97049 -21874373.47048  20480604.792    20480609.692
 03  2 27  1 35 30.0000000  0 10G 6G26G14G16G23G 3G15G29G17G18
  22886852.899   -16949391.58249 -13165221.62146  22886852.341    22886861.102
  22670423.360   -17269540.96449 -13409364.21946  22670423.022    22670429.414
  24243959.515    -8231206.42849  -6381311.53645  24243958.507    24243969.737
  24102761.102   -11813363.83349  -8897412.00745  24102760.227    24102768.917
  21175062.395   -23523904.94949 -18298290.48547  21175061.460    21175067.636
  23521706.775   -12162259.82049  -9459437.97345  23521706.232    23521714.749
  20690596.966   -28258978.67649 -21721490.38647  20690595.899    20690602.408
  24552427.692    -7526369.16549  -5842538.60945  24552427.348    24552434.927
  20778001.387   -28156072.24049 -21909770.62147  20778000.400    20778006.986
  20479469.372   -28100968.90649 -21879026.13148  20479468.539    20479473.456
 03  2 27  1 36  0.0000000  0 10G 6G26G14G16G23G 3G15G29G17G18
  22906281.693   -16847292.99949 -13085664.37946  22906281.151    22906289.941
  22685869.547   -17188370.81249 -13346114.72046  22685869.180    22685875.557
  24222422.404    -8344384.19449  -6469501.84145  24222421.396    24222432.384
  24111680.109   -11766494.41449  -8860890.44745  24111679.182    24111687.943
  21183331.199   -23480452.26449 -18264431.24747  21183330.256    21183336.440
  23505478.672   -12247538.78649  -9525888.99745  23505478.047    23505486.558
  20683732.083   -28295053.79649 -21749600.83447  20683731.011    20683737.505
  24569481.277    -7436752.41249  -5772707.39445  24569480.872    24569488.474
  20779704.083   -28147124.47349 -21902798.31647  20779703.091    20779709.711
  20478400.257   -28106587.20249 -21883404.01548  20478399.429    20478404.336
 03  2 27  1 36 30.0000000  0 10G 6G26G14G16G23G 3G15G29G17G18
  22925752.317   -16744974.51049 -13005935.78146  22925751.772    22925760.666
  22701402.313   -17106745.55849 -13282510.59046  22701401.946    22701408.264
  24200894.841    -8457512.31149  -6557653.43645  24200893.900    24200904.620
  24120662.432   -11719292.40249  -8824109.73945  24120661.504    24120670.299
  21191638.909   -23436795.03749 -18230412.62047  21191637.954    21191644.130
  23489309.079   -12332510.36149  -9592100.49645  23489308.411    23489316.860
  20676908.275   -28330913.03349 -21777543.06147  20676907.205    20676913.666
  24586583.482    -7346879.79149  -5702676.79545  24586583.153    24586590.669
  20781454.522   -28137925.71349 -21895630.42547  20781453.529    20781460.162
  20477397.970   -28111854.12549 -21887508.09448  20477397.143    20477402.044
 03  2 27  1 37  0.0000000  0 10G 6G26G14G16G23G 3G15G29G17G18
  22945264.497   -16642437.80249 -12926037.13846  22945263.964    22945272.888
  22717021.237   -17024667.41849 -13218553.57146  22717020.863    22717027.188
  24179377.282    -8570587.46749  -6645763.76945  24179376.346    24179386.948
  24129707.726   -11671759.52149  -8787071.19545  24129706.832    24129715.626
  21199985.291   -23392934.47949 -18196235.55547  21199984.336    21199990.506
  23473198.574   -12417171.25049  -9658069.88545  23473197.884    23473206.394
  20670125.862   -28366554.80349 -21805315.83547  20670124.790    20670131.240
  24603734.029    -7256753.21649  -5632448.35345  24603733.670    24603741.290
  20783252.941   -28128474.64549 -21888265.92847  20783251.954    20783258.588
  20476462.489   -28116770.02249 -21891338.64448  20476461.661    20476466.571
 03  2 27  1 37 30.0000000  0 10G 6G26G14G16G23G 3G15G29G17G18
  22964817.862   -16539684.92449 -12845970.06646  22964817.277    22964826.212
  22732725.864   -16942138.71049 -13154245.47546  22732725.492    22732731.776
  24157870.419    -8683606.74949  -6733830.59545  24157869.445    24157879.900
  24138815.474   -11623898.19649  -8749776.72545  24138814.586    24138823.310
  21208370.114   -23348871.89649 -18161901.07247  21208369.142    21208375.326
  23457147.629   -12501519.02449  -9723795.29345  23457146.965    23457155.391
  20663385.151   -28401977.48749 -21832917.89647  20663384.087    20663390.513
  24620932.543    -7166374.63349  -5562023.55545  24620932.104    24620939.758
  20785099.656   -28118769.98349 -21880703.83047  20785098.666    20785105.287
  20475593.679   -28121335.52049 -21894896.16148  20475592.852    20475597.751
 03  2 27  1 38  0.0000000  0 10G 6G26G14G16G23G 3G15G29G17G18
  22984411.734   -16436719.11749 -12765737.07646  22984411.143    22984420.083
  22748515.555   -16859162.99249 -13089589.04546  22748515.181    22748521.529
  24136374.612    -8796568.09349  -6821852.29145  24136373.676    24136383.813
  24147985.074   -11575711.71649  -8712228.89545  24147984.279    24147992.883
  21216792.959   -23304609.56449 -18127410.94047  21216792.001    21216798.188
  23441156.621   -12585551.73149  -9789275.19045  23441155.936    23441164.353
  20656686.209   -28437180.54749 -21860348.82047  20656685.145    20656691.551
  24638178.371    -7075747.41349  -5491404.98745  24638177.794    24638185.632
  20786994.787   -28108810.95849 -21872943.52847  20786993.814    20787000.398
  20474791.252   -28125552.21749 -21898181.89048  20474790.438    20474795.340
 03  2 27  1 38 30.0000000  0 10G 6G26G14G16G23G 3G15G29G17G18
  23004045.769   -16333542.10149 -12685339.51746  23004045.171    23004054.045
  22764389.865   -16775742.48749 -13024586.03246  22764389.471    22764395.849
  24114890.392    -8909468.06649  -6909826.15045  24114889.559    24114899.438
  24157216.261   -11527201.99049  -8674429.20345  24157215.498    24157224.047
  21225253.611   -23260148.44849 -18092765.91047  21225252.653    21225258.859
  23425226.220   -12669265.94849  -9854506.92545  23425225.504    23425233.915
  20650029.422   -28472162.03549 -21887607.08647  20650028.363    20650034.762
  24655471.217    -6984873.00649  -5420593.80345  24655470.683    24655478.469
  20788938.551   -28098596.32349 -21864984.04847  20788937.568    20788944.160
  20474055.161   -28129420.33949 -21901196.00048  20474054.347    20474059.255
 03  2 27  1 39  0.0000000  0 10G 6G26G14G16G23G 3G15G29G17G18
  23023719.215   -16230158.00949 -12604780.59146  23023718.621    23023727.484
  22780347.928   -16691881.76249 -12959240.01046  22780347.584    22780353.993
  24093417.972    -9022305.85649  -6997751.54945  24093417.165    24093427.007
  24166508.030   -11478373.55149  -8636381.13945  24166507.345    24166515.802
  21233751.379   -23215492.13749 -18057968.77647  21233750.430    21233756.635
  23409356.567   -12752661.06449  -9919490.00345  23409355.830    23409364.220
  20643414.680   -28506922.68849 -21914693.27347  20643413.612    20643419.996
  24672810.209    -6893756.00949  -5349593.59745  24672809.660    24672817.461
  20790930.716   -28088127.29949 -21856826.34247  20790929.739    20790936.395
  20473384.854   -28132942.72749 -21903940.70548  20473384.051    20473388.947
 03  2 27  1 39 30.0000000  0 10G 6G26G14G16G23G 3G15G29G17G18
  23043432.054   -16126566.78049 -12524060.25046  23043431.484    23043440.336
  22796389.755   -16607581.18249 -12893551.21846  22796389.448    22796395.835
  24071958.463    -9135076.18949  -7085624.40545  24071957.610    24071967.373
  24175860.511   -11429226.26049  -8598084.63145  24175859.711    24175868.341
  21242286.517   -23170639.73149 -18023018.83847  21242285.582    21242291.788
  23393548.570   -12835732.26149  -9984220.68846  23393547.824    23393556.174
  20636842.690   -28541458.56749 -21941604.31247  20636841.622    20636847.985
  24690195.437    -6802396.30349  -5278404.32145  24690194.824    24690202.752
  20792971.961   -28077400.10649 -21848467.45947  20792970.986    20792977.695
  20472780.596   -28136118.03849 -21906414.95648  20472779.789    20472784.682
 03  2 27  1 40  0.0000000  0 10G 6G26G14G16G23G 3G15G29G17G18
  23063183.657   -16022771.72349 -12443181.10646  23063183.081    23063191.941
  22812514.546   -16522844.51349 -12827522.63646  22812514.224    22812520.705
  24050512.062    -9247777.42749  -7173443.39645  24050511.198    24050520.839
  24185272.897   -11379764.00049  -8559542.70045  24185272.095    24185280.855
  21250858.447   -23125593.81949 -17987918.11147  21250857.508    21250863.726
  23377802.477   -12918478.10249 -10048697.84546  23377801.745    23377810.009
  20630313.489   -28575769.51649 -21968340.08247  20630312.422    20630318.778
  24707626.133    -6710797.19749  -5207028.42345  24707625.517    24707633.430
  20795062.361   -28066414.85049 -21839907.49247  20795061.389    20795068.121
  20472242.067   -28138947.99049 -21908620.09948  20472241.252    20472246.121
 03  2 27  1 40 30.0000000  0 10G 6G26G14G16G23G 3G15G29G17G18
  23082973.457   -15918776.02849 -12362145.59046  23082972.851    23082981.736
  22828721.713   -16437675.28149 -12761157.00346  22828721.445    22828727.912
  24029079.165    -9360407.59249  -7261207.00845  24029078.315    24029087.828
  24194744.627   -11329989.82949  -8520757.72945  24194743.746    24194752.458
  21259466.820   -23080356.49249 -17952668.22047  21259465.878    21259472.067
  23362118.649   -13000896.82649 -10112920.12346  23362117.923    23362126.147
  20623827.258   -28609854.83149 -21994900.02747  20623826.192    20623832.546
  24725101.904    -6618961.98049  -5135468.59145  24725101.328    24725109.069
  20797201.998   -28055170.82649 -21831145.88547  20797201.027    20797207.719
  20471768.946   -28141434.33749 -21910557.49648  20471768.140    20471772.978
 03  2 27  1 41  0.0000000  0 10G 6G26G14G16G23G 3G15G29G17G18
  23102800.898   -15814582.36049 -12280955.83246  23102800.294    23102809.192
  22845010.579   -16352076.79849 -12694456.87246  22845010.279    22845016.733
  24007660.271    -9472964.27849  -7348913.35245  24007659.404    24007668.832
  24204275.188   -11279906.60449  -8481731.91745  24204274.370    24204283.081
  21268111.221   -23034929.72849 -17917270.71147  21268110.264    21268116.448
  23346497.588   -13082985.82849 -10176885.45646  23346496.877    23346505.054
  20617384.059   -28643713.86949 -22021283.65747  20617382.993    20617389.365
  24742622.016    -6526893.36649  -5063726.90445  24742621.490    24742629.099
  20799391.073   -28043667.34849 -21822182.10947  20799390.092    20799396.718
  20471360.965   -28143578.31449 -21912228.11548  20471360.142    20471364.983
 03  2 27  1 41 30.0000000  0 10G 6G26G14G16G23G 3G15G29G17G18
  23122665.792   -15710191.95449 -12199612.75846  23122665.202    23122674.117
  22861380.813   -16266050.62249 -12627423.48846  22861380.495    22861387.012
  23986256.016    -9585443.59949  -7436559.40745  23986255.102    23986264.624
  24213864.199   -11229516.12249  -8442466.71545  24213863.311    24213872.153
  21276791.601   -22989314.09349 -17881726.03047  21276790.644    21276796.810
  23330939.883   -13164741.56949 -10240591.12446  23330939.227    23330947.258
  20610984.392   -28677344.17749 -22047489.04147  20610983.323    20610989.692
  24760186.378    -6434592.42049  -4991804.04445  24760185.770    24760193.529
  20801629.948   -28031901.95249 -21813014.23747  20801628.962    20801635.515
  20471018.109   -28145379.97549 -21913631.98648  20471017.280    20471022.098
 03  2 27  1 42  0.0000000  0 10G 6G26G14G16G23G 3G15G29G17G18
  23142567.524   -15605607.85049 -12118118.75046  23142566.934    23142575.876
  22877831.815   -16179600.26949 -12560059.58046  22877831.497    22877837.966
  23964866.856    -9697843.63549  -7524143.68545  23964865.959    23964875.233
  24223511.095   -11178821.55249  -8402964.53645  24223510.133    24223519.157
  21285507.450   -22943511.85049 -17846035.93447  21285506.510    21285512.632
  23315445.917   -13246162.34549 -10304035.76646  23315445.223    23315453.276
  20604628.351   -28710745.14449 -22073515.72447  20604627.273    20604633.664
  24777794.266    -6342062.42049  -4919702.68445  24777793.541    24777801.444
  20803918.613   -28019874.89749 -21803642.47847  20803917.618    20803924.151
  20470740.108   -28146840.79949 -21914770.27448  20470739.282    20470744.092
 03  2 27  1 42 30.0000000  0 10G 6G26G14G16G23G 3G15G29G17G18
  23162505.609   -15500832.84349 -12036476.00146  23162505.021    23162513.963
  22894362.877   -16092729.00149 -12492367.69046  22894362.533    22894368.989
  23943493.327    -9810161.86649  -7611664.20045  23943492.455    23943501.727
  24233215.245   -11127825.95349  -8363227.79345  24233214.364    24233223.316
  21294258.481   -22897524.81449 -17810201.85047  21294257.532    21294263.630
  23300016.083   -13327246.11049 -10367217.80446  23300015.376    23300023.434
  20598316.142   -28743915.77049 -22099362.92047  20598315.083    20598321.463
  24795445.233    -6249306.09749  -4847424.98745  24795444.531    24795452.352
  20806257.157   -28007585.38849 -21794066.20347  20806256.179    20806262.699
  20470526.725   -28147962.13349 -21915644.02048  20470525.900    20470530.716
 03  2 27  1 43  0.0000000  0 10G 6G26G14G16G23G 3G15G29G17G18
  23182479.615   -15395869.08449 -11954686.16246  23182479.053    23182487.952
  22910973.496   -16005439.57049 -12424349.96246  22910973.163    22910979.648
  23922135.793    -9922395.31849  -7699118.65845  23922134.911    23922144.172
  24242976.273   -11076531.67249  -8323258.31145  24242975.417    24242984.255
  21303044.347   -22851354.62949 -17774225.05047  21303043.390    21303049.475
  23284650.932   -13407990.14849 -10430135.10746  23284650.222    23284658.304
  20592047.976   -28776854.93949 -22125029.75247  20592046.923    20592053.291
  24813138.797    -6156325.91849  -4774972.91845  24813138.062    24813145.905
  20808645.906   -27995032.30649 -21784284.53747  20808644.935    20808651.464
  20470377.755   -28148744.88249 -21916253.92348  20470376.923    20470381.756
 03  2 27  1 43 30.0000000  0 10G 6G26G14G16G23G 3G15G29G17G18
  23202489.147   -15290718.78849 -11872750.96946  23202488.522    23202497.501
  22927663.195   -15917734.47249 -12356008.32246  22927662.799    22927669.322
  23900794.929   -10034541.21749  -7786504.90845  23900794.175    23900803.185
  24252793.648   -11024941.52349  -8283058.26445  24252792.832    24252801.625
  21311864.831   -22805002.58649 -17738106.54747  21311863.874    21311869.953
  23269350.901   -13488391.74749 -10492785.56346  23269350.194    23269358.304
  20585824.190   -28809561.05949 -22150514.98947  20585823.131    20585829.490
  24830874.538    -6063124.13049  -4702348.11545  24830873.943    24830881.536
  20811085.011   -27982214.54149 -21774296.62947  20811084.046    20811090.566
  20470293.050   -28149189.80249 -21916600.57548  20470292.222    20470297.055
 03  2 27  1 44  0.0000000  0 10G 6G26G14G16G23G 3G15G29G17G18
  23222533.607   -15185384.85849 -11790672.69146  23222533.006    23222542.018
  22944431.315   -15829617.18949 -12287345.49546  22944430.991    22944437.458
  23879471.171   -10146597.37749  -7873821.23845  23879470.388    23879479.482
  24262666.712   -10973058.31749  -8242629.87145  24262665.946    24262674.732
  21320719.531   -22758470.64349 -17701847.87047  21320718.584    21320724.665
  23254116.454   -13568448.91149 -10555167.64146  23254115.761    23254123.802
  20579644.910   -28842033.13149 -22175817.85547  20579643.839    20579650.196
  24848651.861    -5969703.41249  -4629552.75245  24848651.397    24848658.954
  20813574.626   -27969131.53349 -21764102.05147  20813573.663    20813580.154
  20470272.404   -28149298.19249 -21916685.00348  20470271.576    20470276.416
 03  2 27  1 44 30.0000000  0 10G 6G26G14G16G23G 3G15G29G17G18
  23242612.566   -15079869.70249 -11708453.18546  23242611.945    23242621.025
  22961277.417   -15741090.44149 -12218363.62146  22961277.039    22961283.539
  23858164.974   -10258560.73049  -7961065.24345  23858164.178    23858173.298
  24272595.099   -10920884.71149  -8201975.18645  24272594.352    24272603.055
  21329608.172   -22711760.39149 -17665450.24747  21329607.230    21329613.323
  23238948.040   -13648158.95049 -10617279.22846  23238947.372    23238955.393
  20573510.428   -28874269.91849 -22200937.37847  20573509.356    20573515.717
  24866470.415    -5876066.18949  -4556588.70045  24866469.880    24866477.508
  20816114.939   -27955782.00349 -21753699.79347  20816113.964    20816120.407
  20470315.565   -28149071.23949 -21916508.10948  20470314.726    20470319.584
 03  2 27  1 45  0.0000000  0 10G 6G26G14G16G23G 3G15G29G17G18
  23262725.603   -14974175.18849 -11626093.92846  23262724.971    23262734.174
  22978200.914   -15652156.87349 -12149064.73746  22978200.523    22978206.995
  23836877.086   -10370428.37149  -8048234.70945  23836876.224    23836885.376
  24282578.293   -10868422.98949  -8161095.99245  24282577.621    24282586.456
  21338530.535   -22664872.90549 -17628914.52947  21338529.603    21338535.706
  23223846.158   -13727519.33149 -10679118.34646  23223845.506    23223853.477
  20567420.979   -28906269.86749 -22225872.35947  20567419.912    20567426.284
  24884329.734    -5782214.51449  -4483457.51445  24884329.218    24884336.943
  20818706.227   -27942164.78449 -21743088.95547  20818705.250    20818711.650
  20470422.446   -28148509.33049 -21916070.21248  20470421.602    20470426.473
 03  2 27  1 45 30.0000000  0  9G 6G26G14G16G23G 3G15G17G18
  23282872.318   -14868303.49549 -11543596.60746  23282871.733    23282881.050
  22995201.399   -15562819.07449 -12079450.88946  22995201.003    22995207.431
  23815607.986   -10482197.36249  -8135327.27745  23815607.138    23815616.273
  24292615.780   -10815675.62849  -8119994.22845  24292615.053    24292624.086
  21347486.376   -22617809.39049 -17592241.64247  21347485.433    21347491.577
  23208811.373   -13806527.21549 -10740682.80546  23208810.655    23208818.592
  20561376.957   -28938031.24249 -22250621.43547  20561375.896    20561382.257
  20821348.669   -27928278.31249 -21732268.30547  20821347.711    20821354.079
  20470592.917   -28147613.43949 -21915372.06648  20470592.084    20470596.939
 03  2 27  1 46  0.0000000  0  9G 6G26G14G16G23G 3G15G17G18
  23303052.129   -14762258.11549 -11460963.95146  23303051.493    23303061.004
  23012278.000   -15473081.06449 -12009525.18846  23012277.592    23012284.055
  23794357.968   -10593866.06849  -8222341.70845  23794357.040    23794366.192
  24302706.973   -10762646.41449  -8078672.83645  24302706.196    24302715.359
  21356475.168   -22570572.73649 -17555433.84347  21356474.211    21356480.366
  23193843.928   -13885181.16249 -10801971.47446  23193843.196    23193851.106
  20555378.343   -28969553.87149 -22275184.47647  20555377.279    20555383.621
  20824042.325   -27914122.85949 -21721238.05647  20824041.356    20824047.747
  20470826.508   -28146385.78949 -21914415.40548  20470825.692    20470830.496
 03  2 27  1 46 30.0000000  0  9G 6G26G14G16G23G 3G15G17G18
  23323264.746   -14656040.47649 -11378197.05446  23323264.120    23323273.709
  23029430.372   -15382944.86849 -11939289.23246  23029429.927    23029436.413
  23773127.810   -10705430.75949  -8309275.10945  23773126.897    23773135.937
  24312851.450   -10709337.19849  -8037133.26145  24312850.634    24312859.772
  21365496.806   -22523163.48749 -17518491.56147  21365495.845    21365502.001
  23178944.482   -13963477.73949 -10862981.67846  23178943.731    23178951.653
  20549425.618   -29000835.65249 -22299559.85147  20549424.549    20549430.855
  20826787.560   -27899696.46049 -21709996.67947  20826786.596    20826793.012
  20471123.247   -28144826.35849 -21913200.22148  20471122.427    20471127.205
 03  2 27  1 47  0.0000000  0  9G 6G26G14G16G23G 3G15G17G18
  23343509.348   -14549654.62749 -11295299.07846  23343508.805    23343518.462
  23046657.657   -15292414.70549 -11868746.25546  23046657.241    23046663.677
  23751917.683   -10816890.24449  -8396126.51845  23751916.880    23751925.756
  24323048.439   -10655752.02749  -7995378.65645  24323047.704    24323056.760
  21374550.763   -22475584.47849 -17481416.99647  21374549.807    21374555.966
  23164113.243   -14041415.86049 -10923712.56546  23164112.499    23164120.370
  20543518.650   -29031876.75649 -22323747.68247  20543517.569    20543523.842
  20829584.331   -27884999.30749 -21698544.32447  20829583.350    20829589.777
  20471482.622   -28142937.73749 -21911728.52748  20471481.788    20471486.543
 03  2 27  1 47 30.0000000  0  9G 6G26G14G16G23G 3G15G17G18
  23363785.648   -14443102.40449 -11212271.46945  23363785.078    23363794.826
  23063959.398   -15201493.11749 -11797898.26945  23063958.964    23063965.485
  23730728.258   -10928241.14749  -8482893.34845  23730727.409    23730736.220
  24333297.503   -10601893.31249  -7953410.89145  24333296.779    24333305.837
  21383636.815   -22427836.90649 -17444211.08447  21383635.857    21383642.002
  23149350.730   -14118992.94049 -10984162.13646  23149349.959    23149357.805
  20537657.841   -29062675.55049 -22347746.69647  20537656.756    20537663.019
  20832432.852   -27870030.27549 -21686880.11247  20832431.868    20832438.305
  20471904.514   -28140720.43049 -21910000.71348  20471903.686    20471908.416
 03  2 27  1 48  0.0000000  0  9G 6G26G14G16G23G 3G15G17G18
  23384092.854   -14336387.78149 -11129117.31445  23384092.290    23384102.068
  23081334.772   -15110184.60849 -11726748.79645  23081334.355    23081340.908
  23709559.758   -11039482.36049  -8569574.67945  23709558.804    23709567.643
  24343597.790   -10547765.36149  -7911233.33745  24343596.988    24343606.210
  21392754.371   -22379923.77749 -17406876.16847  21392753.415    21392759.540
  23134657.083   -14196207.93949 -11044329.56246  23134656.321    23134664.136
  20531843.057   -29093232.17149 -22371557.00347  20531841.982    20531848.255
  20835333.019   -27854789.63749 -21675004.25547  20835332.030    20835338.474
  20472388.502   -28138176.93849 -21908018.73248  20472387.681    20472392.397
 03  2 27  1 48 30.0000000  0  9G 6G26G14G16G23G 3G15G17G18
  23404430.964   -14229510.91749 -11045836.73445  23404430.409    23404440.165
  23098783.723   -15018489.56049 -11655298.13545  23098783.285    23098789.850
  23688413.042   -11150608.70649  -8656166.50645  23688412.103    23688420.966
  24353949.238   -10493368.37349  -7868846.13245  24353948.472    24353957.684
  21401903.607   -22331844.20449 -17369411.55547  21401902.651    21401908.789
  23120033.264   -14273056.12649 -11104211.17346  23120032.525    23120040.352
  20526075.088   -29123542.86549 -22395175.68247  20526074.015    20526080.281
  20838285.514   -27839273.92549 -21662914.05947  20838284.526    20838290.950
  20472934.831   -28135305.75549 -21905781.40948  20472934.013    20472938.736
 03  2 27  1 49  0.0000000  0  9G 6G26G14G16G23G 3G15G17G18
  23424799.344   -14122474.95249 -10962432.18245  23424798.739    23424808.551
  23116305.566   -14926411.77749 -11583549.23845  23116305.195    23116311.643
  23667288.556   -11261618.20849  -8742667.30445  23667287.698    23667296.497
  24364351.229   -10438705.82449  -7826252.01245  24364350.560    24364359.725
  21411084.072   -22283600.53949 -17331819.08147  21411083.125    21411089.261
  23105479.533   -14349535.84849 -11163805.65646  23105478.820    23105486.609
  20520354.040   -29153606.95949 -22418602.20847  20520352.965    20520359.224
  20841290.417   -27823482.86949 -21650609.31247  20841289.436    20841295.856
  20473543.166   -28132108.72849 -21903290.18648  20473542.352    20473547.064
 03  2 27  1 49 30.0000000  0  9G 6G26G14G16G23G 3G15G17G18
  23445197.385   -14015283.11049 -10878906.17245  23445196.758    23445206.485
  23133899.622   -14833955.05949 -11511505.09545  23133899.244    23133905.571
  23646186.615   -11372508.98949  -8829075.56745  23646185.767    23646194.530
  24374803.035   -10383781.40449  -7783453.83345  24374802.235    24374811.657
  21420295.325   -22235195.06349 -17294100.52047  21420294.379    21420300.539
  23090996.274   -14425645.40449 -11223111.71246  23090995.616    23091003.329
  20514680.000   -29183423.97149 -22441836.20247  20514678.923    20514685.178
  20844347.666   -27807416.73149 -21638090.22147  20844346.669    20844353.106
  20474213.085   -28128588.01949 -21900546.74248  20474212.268    20474216.966
 03  2 27  1 50  0.0000000  0  9G 6G26G14G16G23G 3G15G17G18
  23465624.833   -13907937.01049 -10795259.95445  23465624.146    23465633.807
  23151565.398   -14741121.46149 -11439167.24245  23151565.005    23151571.180
  23625107.985   -11483277.38549  -8915388.48745  23625107.139    23625115.886
  24385304.408   -10328596.80849  -7740452.93545  24385303.626    24385313.042
  21429537.245   -22186628.45249 -17256256.40347  21429536.291    21429542.442
  23076584.065   -14501381.41049 -11282126.68646  23076583.414    23076591.118
  20509053.400   -29212991.69949 -22464875.95847  20509052.329    20509058.569
  20847457.605   -27791073.72449 -21625355.39347  20847456.626    20847463.074
  20474944.603   -28124743.73349 -21897551.16748  20474943.781    20474948.482
 03  2 27  1 50 30.0000000  0  9G 6G26G14G16G23G 3G15G17G18
  23486080.888   -13800440.04349 -10711496.18045  23486080.245    23486089.846
  23169302.173   -14647914.73149 -11366538.63145  23169301.766    23169307.922
  23604052.929   -11593921.73949  -9001604.73845  23604052.045    23604060.925
  24395854.527   -10273156.05449  -7697252.42245  24395853.722    24395863.010
  21438809.366   -22137903.22849 -17218288.69247  21438808.392    21438814.542
  23062243.280   -14576742.41049 -11340849.45446  23062242.602    23062250.320
  20503474.325   -29242309.87749 -22487721.25948  20503473.241    20503479.486
  20850620.360   -27774453.30549 -21612404.40147  20850619.367    20850625.847
  20475737.312   -28120577.91249 -21894305.04448  20475736.483    20475741.189
 03  2 27  1 51  0.0000000  0  9G 6G26G14G16G23G 3G15G17G18
  23506565.226   -13692794.60049 -10627616.71745  23506564.574    23506574.180
  23187109.358   -14554338.01549 -11293621.73445  23187108.909    23187115.032
  23583021.999   -11704439.11749  -9087722.03745  23583021.095    23583030.034
  24406452.878   -10217461.63949  -7653854.25445  24406452.085    24406461.298
  21448111.425   -22089020.75449 -17180198.45047  21448110.452    21448116.570
  23047974.249   -14651726.22449 -11399278.32046  23047973.560    23047981.279
  20497942.992   -29271377.04549 -22510370.97248  20497941.910    20497948.152
  20853835.997   -27757554.83649 -21599236.74647  20853835.021    20853841.532
  20476591.040   -28116091.47649 -21890809.09248  20476590.212    20476594.903
 03  2 27  1 51 30.0000000  0 10G 6G26G14G16G23G 3G 9G15G17G18
  23527077.668   -13585001.38449 -10543622.12245  23527077.103    23527086.529
  23204986.638   -14460392.62249 -11220417.54645  23204986.212    23204992.344
  23562016.120   -11814825.12849  -9173736.96145  23562015.196    23562024.207
  24417099.214   -10161514.80549  -7610259.40345  24417098.605    24417107.702
  21457443.439   -22039980.74649 -17141985.45547  21457442.481    21457448.550
  23033777.764   -14726328.82749 -11457410.12846  23033777.088    23033784.778
  24478335.628    -8620039.44759  -6697021.80145  24478335.192    24478344.389
  20492459.950   -29300190.46349 -22532822.96348  20492458.876    20492465.110
  20857105.058   -27740375.68349 -21585850.37547  20857104.077    20857110.599
  20477505.860   -28111283.95949 -21887062.95248  20477505.028    20477509.714
 03  2 27  1 52  0.0000000  0 10G 6G26G14G16G23G 3G 9G15G17G18
  23547617.328   -13477064.99649 -10459515.93345  23547616.704    23547626.161
  23222933.061   -14366083.50349 -11146929.91445  23222932.599    23222938.860
  23541035.257   -11925079.41449  -9259649.23845  23541034.311    23541043.543
  24427792.759   -10105320.39949  -7566471.63945  24427792.061    24427801.140
  21466804.737   -21990786.80849 -17103652.50547  21466803.771    21466809.799
  23019653.897   -14800549.91849 -11515244.68446  23019653.226    23019660.891
  24465054.125    -8689833.32049  -6751406.51645  24465053.656    24465063.120
  20487025.088   -29328750.69049 -22555077.66948  20487024.018    20487030.240
  20860427.321   -27722916.96049 -21572246.16147  20860426.327    20860432.830
  20478481.199   -28106158.46849 -21883069.04348  20478480.363    20478485.057
 03  2 27  1 52 30.0000000  0 10G 6G26G14G16G23G 3G 9G15G17G18
  23568183.826   -13368987.47049 -10375299.77745  23568183.266    23568192.764
  23240948.252   -14271413.08349 -11073160.76345  23240947.786    23240954.102
  23520080.182   -12035198.53749  -9345456.18145  23520079.248    23520088.484
  24438532.897   -10048880.63049  -7522492.67145  24438532.246    24438541.409
  21476195.114   -21941439.89749 -17065200.35447  21476194.140    21476200.186
  23005603.162   -14874386.63949 -11572779.71746  23005602.483    23005610.078
  24451806.526    -8759449.03549  -6805652.39445  24451805.987    24451815.572
  20481638.774   -29357055.94749 -22577133.69548  20481637.707    20481643.940
  20863803.145   -27705176.93749 -21558422.75447  20863802.160    20863808.617
  20479516.906   -28100715.60949 -21878827.83648  20479516.066    20479520.739
 03  2 27  1 53  0.0000000  0 10G 6G26G14G16G23G 3G 9G15G17G18
  23588776.974   -13260769.73949 -10290974.37445  23588776.440    23588786.003
  23259031.860   -14176383.15049 -10999111.47145  23259031.378    23259037.728
  23499151.607   -12145178.24449  -9431154.47245  23499150.657    23499159.922
  24449319.466    -9992196.91949  -7478323.63945  24449318.968    24449328.023
  21485614.609   -21891940.09649 -17026629.06447  21485613.639    21485619.687
  22991626.376   -14947834.98149 -11630012.14346  22991625.709    22991633.273
  24438593.759    -8828881.90249  -6859755.79645  24438593.184    24438602.788
  20476301.442   -29385103.54249 -22598988.94448  20476300.372    20476306.595
  20867232.951   -27687153.10849 -21544378.20147  20867231.966    20867238.371
  20480613.143   -28094954.89249 -21874338.95248  20480612.307    20480616.967
 03  2 27  1 53 30.0000000  0 10G 6G26G14G16G23G 3G 9G15G17G18
  23609395.779   -13152417.18249 -10206543.89745  23609395.296    23609404.881
  23277182.773   -14080999.47049 -10924786.52845  23277182.362    23277188.647
  23478249.556   -12255018.90949  -9516744.42645  23478248.637    23478257.798
  24460151.390    -9935275.16149  -7433969.10445  24460150.840    24460160.084
  21495062.304   -21842291.82749 -16987942.08147  21495061.329    21495067.434
  22977723.297   -15020895.81449 -11686942.60846  22977722.604    22977730.157
  24425415.887    -8898131.69249  -6913716.57145  24425415.287    24425424.948
  20471012.912   -29412895.03749 -22620644.63648  20471011.843    20471018.038
  20870716.381   -27668847.54649 -21530114.11347  20870715.394    20870721.774
  20481769.014   -28088880.46849 -21869605.62648  20481768.177    20481772.828
 03  2 27  1 54  0.0000000  0 10G 6G26G14G16G23G 3G 9G15G17G18
  23630040.274   -13043929.73249 -10122008.30845  23630039.804    23630049.414
  23295400.935   -13985262.61249 -10850186.38145  23295400.529    23295406.771
  23457374.881   -12364715.36449  -9602221.98945  23457373.958    23457383.170
  24471028.491    -9878115.62049  -7389429.28645  24471027.980    24471037.436
  21504538.480   -21792494.20049 -16949138.71247  21504537.498    21504543.611
  22963894.973   -15093564.11149 -11743567.21546  22963894.297    22963901.769
  24412274.031    -8967192.51149  -6967530.09245  24412273.484    24412282.940
  20465773.848   -29440426.50749 -22642097.71148  20465772.770    20465778.935
  20874254.074   -27650256.81049 -21515627.81347  20874253.105    20874259.490
  20482984.867   -28082490.99549 -21864626.81148  20482984.045    20482988.699
 03  2 27  1 54 30.0000000  0 10G 6G26G14G16G23G 3G 9G15G17G18
  23650709.665   -12935311.14249 -10037370.53245  23650709.195    23650718.953
  23313685.512   -13889176.91349 -10775314.41045  23313685.082    23313691.206
  23436527.900   -12474266.19049  -9687586.08345  23436526.990    23436536.119
  24481950.103    -9820722.36249  -7344707.34445  24481949.539    24481959.146
  21514042.538   -21742549.97949 -16910221.11747  21514041.559    21514047.692
  22950141.500   -15165838.90149 -11799885.18446  22950140.768    22950148.290
  24399168.513    -9036062.38149  -7021194.80045  24399167.907    24399177.368
  20460584.244   -29467698.00649 -22663348.20948  20460583.153    20460589.305
  20877845.922   -27631381.43949 -21500919.71547  20877844.949    20877851.376
  20484260.196   -28075789.01849 -21859404.48748  20484259.362    20484264.007
 03  2 27  1 55  0.0000000  0 10G 6G26G14G16G23G 3G 9G15G17G18
  23671403.561   -12826563.95649  -9952632.54145  23671403.109    23671412.896
  23332035.867   -13792745.38849 -10700172.94245  23332035.428    23332041.482
  23415709.163   -12583668.81149  -9772834.68545  23415708.313    23415717.334
  24492915.687    -9763098.34149  -7299805.58545  24492915.067    24492924.636
  21523574.188   -21692460.69849 -16871190.48347  21523573.210    21523579.339
  22936463.331   -15237718.21149 -11855894.98846  22936462.587    22936470.041
  24386099.974    -9104738.26249  -7074708.36645  24386099.434    24386108.751
  20455444.319   -29494708.52149 -22684395.34148  20455443.231    20455449.357
  20881492.071   -27612220.64449 -21485989.20447  20881491.094    20881497.521
  20485594.794   -28068775.74449 -21853939.58848  20485593.959    20485598.609
 03  2 27  1 55 30.0000000  0 10G 6G26G14G16G23G 3G 9G15G17G18
  23692121.576   -12717690.04349  -9867795.81345  23692121.056    23692130.935
  23350451.534   -13695970.24749 -10624763.72545  23350451.098    23350457.071
  23394919.207   -12692919.87849  -9857965.19745  23394918.385    23394927.302
  24503924.669    -9705245.85449  -7254725.79845  24503924.036    24503933.591
  21533133.346   -21642227.02649 -16832047.35847  21533132.373    21533138.472
  22922861.003   -15309198.66049 -11911593.98946  22922860.284    22922867.701
  24373069.274    -9173215.63449  -7128067.23145  24373068.616    24373077.839
  20450354.470   -29521455.82149 -22705237.36748  20450353.385    20450359.503
  20885192.898   -27592772.66549 -21470834.91347  20885191.922    20885198.347
  20486988.557   -28061451.42349 -21848232.31048  20486987.714    20486992.359
 03  2 27  1 56  0.0000000  0 10G 6G26G14G16G23G 3G 9G15G17G18
  23712863.142   -12608692.52949  -9782862.75745  23712862.656    23712872.684
  23368931.837   -13598855.52049 -10549089.91345  23368931.355    23368937.374
  23374158.577   -12802017.12449  -9942975.83845  23374157.747    23374166.596
  24514976.559    -9647168.29749  -7209470.63245  24514975.875    24514985.505
  21542719.546   -21591851.08549 -16792793.38047  21542718.576    21542724.642
  22909334.856   -15380278.88049 -11966981.11946  22909334.148    22909341.493
  24360076.667    -9241492.33549  -7181269.71045  24360076.130    24360085.067
  20445314.736   -29547939.44249 -22725873.93348  20445313.654    20445319.785
  20888948.432   -27573037.28149 -21455456.67847  20888947.453    20888953.849
  20488441.154   -28053817.86949 -21842284.07348  20488440.328    20488444.956
 03  2 27  1 56 30.0000000  0 10G 6G26G14G16G23G 3G 9G15G17G18
  23733627.821   -12499573.72349  -9697835.20445  23733627.322    23733637.375
  23387476.186   -13501403.98649 -10473153.62345  23387475.658    23387481.853
  23353427.737   -12910957.83549 -10027864.50245  23353426.929    23353435.732
  24526070.717    -9588868.36349  -7164042.17945  24526070.055    24526079.612
  21552332.540   -21541334.36449 -16753429.69847  21552331.581    21552337.631
  22895885.307   -15450956.53849 -12022054.56346  22895884.569    22895891.920
  24347122.960    -9309564.99349  -7234313.19245  24347122.487    24347131.204
  20440325.480   -29574158.00649 -22746303.95648  20440324.398    20440330.532
  20892758.870   -27553013.29549 -21439853.55947  20892757.885    20892764.228
  20489952.402   -28045876.08449 -21836095.64548  20489951.562    20489956.201
 03  2 27  1 57  0.0000000  0 10G 6G26G14G16G23G 3G 9G15G17G18
  23754415.080   -12390336.19449  -9612715.11745  23754414.581    23754424.585
  23406084.019   -13403618.62649 -10396957.22545  23406083.525    23406089.738
  23332727.220   -13019739.24649 -10112629.03645  23332726.410    23332735.075
  24537206.610    -9530348.65549  -7118442.47445  24537205.896    24537215.622
  21561972.081   -21490678.27149 -16713957.41147  21561971.118    21561977.163
  22882512.770   -15521229.34649 -12076812.54446  22882512.037    22882519.385
  24334208.711    -9377430.30249  -7287195.12945  24334208.198    24334216.655
  20435386.975   -29600109.95649 -22766526.22648  20435385.897    20435392.008
  20896624.351   -27532700.09249 -21424025.08347  20896623.349    20896629.673
  20491522.118   -28037627.21749 -21829667.93048  20491521.285    20491525.919
 03  2 27  1 57 30.0000000  0 10G 6G26G14G16G23G 3G 9G15G17G18
  23775224.557   -12280982.35349  -9527504.40545  23775224.024    23775234.054
  23424754.812   -13305502.48949 -10320503.10045  23424754.370    23424760.588
  23312057.530   -13128358.55349 -10197267.26246  23312056.729    23312065.274
  24548383.848    -9471612.19549  -7072673.87145  24548383.118    24548392.957
  21571637.856   -21439884.21749 -16674377.62047  21571636.887    21571642.916
  22869217.810   -15591094.82449 -12131253.11246  22869217.080    22869224.396
  24321334.427    -9445085.03849  -7339912.97245  24321333.851    24321342.168
  20430499.474   -29625793.83149 -22786539.61248  20430498.410    20430504.503
  20900545.046   -27512096.41449 -21407970.26947  20900544.064    20900550.390
  20493150.050   -28029072.23849 -21823001.68648  20493149.218    20493153.851
 03  2 27  1 58  0.0000000  0 10G 6G26G14G16G23G 3G 9G15G17G18
  23796055.743   -12171514.28749  -9442204.67945  23796055.203    23796065.163
  23443488.117   -13207057.99449 -10243793.11145  23443487.701    23443493.900
  23291419.273   -13236812.74849 -10281776.80246  23291418.477    23291426.926
  24559601.820    -9412661.56549  -7026738.38045  24559601.072    24559610.936
  21581329.730   -21388953.05049 -16634690.98147  21581328.767    21581334.779
  22856000.792   -15660550.42249 -12185374.30346  22856000.070    22856007.381
  24308500.923    -9512525.57949  -7392463.92845  24308500.256    24308508.529
  20425663.290   -29651208.05349 -22806342.87548  20425662.208    20425668.315
  20904521.263   -27491201.05649 -21391688.16847  20904520.282    20904526.642
  20494836.056   -28020212.19349 -21816097.72648  20494835.211    20494839.839
 03  2 27  1 58 30.0000000  0 10G 6G26G14G16G23G 3G 9G15G17G18
  23816907.998   -12061935.36249  -9356818.59545  23816907.358    23816917.488
  23462283.173   -13108289.34249 -10166830.56945  23462282.770    23462289.016
  23270812.667   -13345100.33849 -10366156.52746  23270811.893    23270820.260
  24570859.737    -9353500.71949  -6980639.10445  24570858.968    24570868.907
  21591047.255   -21337887.30249 -16594899.47847  21591046.280    21591052.274
  22842861.983   -15729595.07749 -12239175.28646  22842861.246    22842868.557
  24295708.571    -9579749.54749  -7444846.13345  24295708.011    24295716.025
  20420878.444   -29676352.34549 -22825935.81247  20420877.361    20420883.480
  20908553.048   -27470013.83449 -21375178.64447  20908552.071    20908558.461
  20496579.685   -28011049.19649 -21808957.70648  20496578.834    20496583.468
 03  2 27  1 59  0.0000000  0 10G 6G26G14G16G23G 3G 9G15G17G18
  23837780.936   -11952247.89749  -9271347.90545  23837780.348    23837790.341
  23481139.374   -13009199.35449 -10089617.63145  23481138.986    23481145.148
  23250238.367   -13453218.38049 -10450404.13346  23250237.566    23250245.899
  24582157.174    -9294132.30749  -6934378.05945  24582156.467    24582166.293
  21600790.120   -21286688.12949 -16555003.99647  21600789.155    21600795.145
  22829801.871   -15798226.26549 -12292654.07746  22829801.108    22829808.449
  24282958.087    -9646753.45149  -7497056.86045  24282957.469    24282965.416
  20416145.280   -29701224.98249 -22845317.05947  20416144.198    20416150.340
  20912640.590   -27448533.79549 -21358440.94647  20912639.611    20912645.975
  20498380.833   -28001584.05249 -21801582.24448  20498379.977    20498384.611
 03  2 27  1 59 30.0000000  0 10G 6G26G14G16G23G 3G 9G15G17G18
  23858674.171   -11842453.50749  -9185793.92145  23858673.554    23858683.618
  23500056.321   -12909790.12949 -10012155.92645  23500055.960    23500062.098
  23229696.989   -13561163.03549 -10534516.64146  23229696.176    23229704.463
  24593493.776    -9234558.16749  -6887956.72245  24593492.979    24593502.889
  21610558.255   -21235356.21449 -16515005.07447  21610557.263    21610563.280
  22816820.980   -15866440.81249 -12345808.22546  22816820.254    22816827.554
  24270250.236    -9713533.26549  -7549092.99845  24270249.666    24270257.488
  20411464.226   -29725823.98449 -22864485.08247  20411463.148    20411469.302
  20916784.183   -27426759.13949 -21341473.67147  20916783.212    20916789.527
  20500239.378   -27991817.22349 -21793971.70748  20500238.530    20500243.140
 03  2 27  2  0  0.0000000  0 10G 6G26G14G16G23G 3G 9G15G17G18
  23879587.078   -11732556.15649  -9100159.68845  23879586.446    23879596.436
  23519033.135   -12810066.24349  -9934449.04545  23519032.742    23519038.921
  23209188.842   -13668933.31349 -10618493.27246  23209188.004    23209196.216
  24604868.714    -9174782.77449  -6841378.56945  24604867.894    24604877.911
  21620351.080   -21183894.36449 -16474904.89147  21620350.103    21620356.115
  22803919.576   -15934238.07149 -12398637.21046  22803918.846    22803926.163
  24257585.351    -9780087.24149  -7600953.16545  24257584.684    24257592.488
  20406835.231   -29750149.41249 -22883439.94148  20406834.153    20406840.274
  20920983.627   -27404690.99649 -21324277.70947  20920982.635    20920988.947
  20502154.853   -27981751.15449 -21786128.00148  20502154.024    20502158.610
 03  2 27  2  0 30.0000000  0 10G 6G26G14G16G23G 3G 9G15G17G18
  23900519.424   -11622556.50749  -9014445.73045  23900518.814    23900528.722
  23538069.565   -12710028.92049  -9856497.91745  23538069.184    23538075.388
  23188714.705   -13776524.69449 -10702330.49246  23188713.878    23188722.001
  24616281.789    -9114807.20149  -6794644.42445  24616280.953    24616290.905
  21630168.719   -21132302.16149 -16434703.14547  21630167.757    21630173.755
  22791098.287   -16001614.01549 -12451137.88946  22791097.541    22791104.859
  24244964.482    -9846410.13349  -7652633.26445  24244963.730    24244971.493
  20402258.891   -29774198.18849 -22902179.21748  20402257.811    20402263.895
  20925239.536   -27382325.78349 -21306850.24647  20925238.549    20925244.875
  20504127.401   -27971385.27749 -21778050.67548  20504126.559    20504131.148
 03  2 27  2  1  0.0000000  0 10G 6G26G14G16G23G 3G 9G15G17G18
  23921470.460   -11512458.68849  -8928655.31145  23921469.761    23921479.682
  23557164.748   -12609682.82549  -9778306.19445  23557164.355    23557170.676
  23168274.804   -13883936.31749 -10786027.63846  23168273.978    23168282.004
  24627732.129    -9054635.91749  -6747757.78745  24627731.316    24627741.181
  21640010.546   -21080582.73749 -16394402.27947  21640009.593    21640015.580
  22778357.266   -16068568.39349 -12503310.08446  22778356.522    22778363.810
  24232387.804    -9912500.34349  -7704132.03945  24232387.027    24232394.751
  20397735.177   -29797970.47649 -22920703.04248  20397734.093    20397740.162
  20929551.763   -27359664.73449 -21289192.26447  20929550.774    20929557.125
  20506156.440   -27960722.46249 -21769741.97248  20506155.604    20506160.172
 03  2 27  2  1 30.0000000  0 10G 6G26G14G16G23G 3G 9G15G17G18
  23942439.852   -11402264.40449  -8842789.73145  23942439.263    23942449.099
  23576318.263   -12509030.18949  -9699875.58345  23576317.885    23576324.268
  23147869.790   -13991164.62449 -10869581.94146  23147868.944    23147876.907
  24639219.256    -8994271.14249  -6700720.38345  24639218.434    24639228.344
  21649876.519   -21028736.54349 -16354002.62047  21649875.563    21649881.549
  22765697.030   -16135098.06249 -12555151.33346  22765696.316    22765703.607
  24219856.122    -9978353.92649  -7755446.41945  24219855.363    24219863.078
  20393264.437   -29821464.29849 -22939009.87548  20393263.368    20393269.433
  20933920.583   -27336706.21749 -21271302.48747  20933919.609    20933925.965
  20508241.947   -27949763.00649 -21761202.12048  20508241.110    20508245.686
 03  2 27  2  2  0.0000000  0 10G 6G26G14G16G23G 3G 9G15G17G18
  23963426.840   -11291977.42849  -8756851.91045  23963426.214    23963436.027
  23595529.291   -12408075.39649  -9621209.53745  23595528.836    23595535.465
  23127499.987   -14098208.01449 -10952992.15046  23127499.106    23127506.972
  24650742.413    -8933717.12449  -6653535.50545  24650741.596    24650751.432
  21659766.117   -20976766.22949 -16313506.23547  21659765.167    21659771.145
  22753117.836   -16201201.83849 -12606660.70946  22753117.145    22753124.439
  24207369.770   -10043968.86749  -7806574.83945  24207368.948    24207376.973
  20388846.677   -29844679.57449 -22957099.64948  20388845.616    20388851.695
  20938346.019   -27313450.42849 -21253181.05847  20938345.045    20938351.372
  20510383.454   -27938509.28449 -21752432.95548  20510382.628    20510387.195
 03  2 27  2  2 30.0000000  0 10G 6G26G14G16G23G 3G 9G15G17G18
  23984431.459   -11181598.09449  -8670842.10945  23984430.874    23984440.615
  23614797.690   -12306819.23149  -9542308.64445  23614797.276    23614803.947
  23107166.225   -14205061.91249 -11036254.71946  23107165.362    23107173.146
  24662301.475    -8872974.55549  -6606203.72045  24662300.684    24662310.440
  21669679.465   -20924671.14649 -16272912.63447  21669678.514    21669684.504
  22740620.464   -16266875.83949 -12657835.19646  22740619.746    22740627.041
  24194929.820   -10109339.99249  -7857513.24345  24194929.049    24194937.076
  20384482.653   -29867612.63949 -22974969.52148  20384481.577    20384487.654
  20942828.603   -27289894.41849 -21234825.70047  20942827.632    20942833.901
  20512581.132   -27926960.40149 -21743433.79748  20512580.296    20512584.868
 03  2 27  2  3  0.0000000  0 10G 6G26G14G16G23G 3G 9G15G17G18
  24005452.631   -11071131.68449  -8584764.47045  24005452.031    24005461.733
  23634122.273   -12205267.63449  -9463177.55445  23634121.897    23634128.585
  23086868.476   -14311726.35149 -11119369.62946  23086867.584    23086875.344
  24673895.313    -8812048.99349  -6558729.32645  24673894.458    24673904.272
  21679615.814   -20872455.24949 -16232224.89247  21679614.855    21679620.848
  22728204.757   -16332120.66849 -12708675.25046  22728204.061    22728211.336
  24182536.316   -10174466.67249  -7908261.16845  24182535.510    24182543.842
  20380172.034   -29890264.92749 -22992620.59848  20380170.951    20380177.009
  20947367.946   -27266040.14849 -21216237.93047  20947366.960    20947373.200
  20514834.203   -27915120.28649 -21734207.70048  20514833.357    20514837.934
 03  2 27  2  3 30.0000000  0 10G 6G26G14G16G23G 3G 9G15G17G18
  24026490.569   -10960577.09649  -8498618.12445  24026490.017    24026499.622
  23653503.229   -12103420.03549  -9383815.84845  23653502.781    23653509.588
  23066607.973   -14418195.09349 -11202332.07546  23066607.121    23066614.766
  24685524.026    -8750939.98349  -6511112.00045  24685523.178    24685532.999
  21689575.519   -20820116.51949 -16191441.44347  21689574.570    21689580.573
  22715871.870   -16396930.38249 -12759176.25446  22715871.169    22715878.378
  24170190.642   -10239342.11449  -7958813.33545  24170189.916    24170198.322
  20375915.754   -29912631.74849 -23010049.23948  20375914.668    20375920.683
  20951964.854   -27241883.02749 -21197414.18147  20951963.867    20951970.125
  20517143.102   -27902986.76349 -21724752.96948  20517142.258    20517146.840
 03  2 27  2  4  0.0000000  0 10G 6G26G14G16G23G 3G 9G15G17G18
  24047544.065   -10849940.60549  -8412407.95645  24047543.472    24047553.230
  23672939.195   -12001283.20349  -9304228.76345  23672938.795    23672945.630
  23046384.554   -14524469.04349 -11285142.71546  23046383.621    23046391.317
  24697186.428    -8689654.01149  -6463356.76945  24697185.584    24697195.390
  21699557.661   -20767659.89949 -16150566.12847  21699556.710    21699562.670
  22703621.389   -16461306.70649 -12809339.55546  22703620.721    22703627.853
  24157892.686   -10303966.64749  -8009169.96645  24157892.150    24157900.688
  20371713.337   -29934715.36149 -23027257.19948  20371712.247    20371718.252
  20956618.737   -27217426.18349 -21178356.87747  20956617.756    20956624.047
  20519506.985   -27890564.32249 -21715073.10648  20519506.142    20519510.720
 03  2 27  2  4 30.0000000  0  9G 6G26G14G23G 3G 9G15G17G18
  24068613.889   -10739218.27349  -8326130.92245  24068613.296    24068623.063
  23692430.812   -11898853.84949  -9224413.74645  23692430.401    23692437.275
  23026199.885   -14630539.23949 -11367794.62246  23026198.955    23026206.567
  21709563.209   -20715080.41049 -16109595.07947  21709562.263    21709568.184
  22691455.049   -16525241.32649 -12859158.67146  22691454.343    22691461.431
  24145644.298   -10368330.87349  -8059323.76545  24145643.770    24145652.455
  20367566.267   -29956508.07749 -23044238.50848  20367565.178    20367571.185
  20961331.102   -27192662.21249 -21159060.25647  20961330.133    20961336.445
  20521926.813   -27877847.82349 -21705164.10848  20521925.966    20521930.528
 03  2 27  2  5  0.0000000  0  9G 6G26G14G23G 3G 9G15G17G18
  24089698.703   -10628417.06949  -8239792.40445  24089698.168    24089707.981
  23711976.747   -11796139.25449  -9144376.45545  23711976.330    23711983.227
  23006053.609   -14736407.49449 -11450289.15746  23006052.702    23006060.300
  21719591.024   -20662383.81349 -16068532.76847  21719590.071    21719595.957
  22679372.274   -16588736.58649 -12908635.41146  22679371.568    22679378.603
  24133445.174   -10432435.95849  -8109275.62845  24133444.555    24133453.474
  20363473.972   -29978012.95849 -23060995.50448  20363472.891    20363478.902
  20966101.295   -27167594.66149 -21139527.08347  20966100.311    20966106.609
  20524401.512   -27864843.04849 -21695030.47748  20524400.663    20524405.205
 03  2 27  2  5 30.0000000  0  9G 6G26G14G23G 3G 9G15G17G18
  24110797.683   -10517541.47349  -8153395.94245  24110797.103    24110807.089
  23731575.949   -11693144.79149  -9064121.09345  23731575.553    23731582.534
  22985945.867   -14842073.32649 -11532625.98646  22985944.962    22985952.574
  21729640.437   -20609573.57949 -16027381.91447  21729639.474    21729645.340
  22667373.094   -16651792.36649 -12957769.70646  22667372.345    22667379.372
  24121295.677   -10496280.87249  -8159024.75845  24121295.065    24121304.220
  20359436.306   -29999230.88749 -23077528.90348  20359435.216    20359441.237
  20970929.074   -27142224.70249 -21119758.26847  20970928.098    20970934.364
  20526930.507   -27851553.02649 -21684674.58348  20526929.662    20526934.188
 03  2 27  2  6  0.0000000  0  9G 6G26G14G23G 3G 9G15G17G18
  24131910.304   -10406594.03049  -8066943.49245  24131909.736    24131919.599
  23751227.907   -11589873.33749  -8983649.91045  23751227.517    23751234.600
  22965877.233   -14947533.90849 -11614802.87146  22965876.295    22965883.863
  21739711.260   -20556650.93249 -15986143.45747  21739710.302    21739716.152
  22655457.977   -16714406.65549 -13006559.98646  22655457.203    22655464.153
  24109196.402   -10559862.20949  -8208568.51345  24109195.921    24109205.054
  20355453.502   -30020160.42449 -23093837.58948  20355452.414    20355458.437
  20975814.542   -27116551.52649 -21099753.18147  20975813.556    20975819.807
  20529513.500   -27837979.17949 -21674097.52348  20529512.654    20529517.171
 03  2 27  2  6 30.0000000  0  9G 6G26G14G23G 3G 9G15G17G18
  24153036.384   -10295576.09349  -7980436.12545  24153035.781    24153045.894
  23770932.197   -11486326.97649  -8902964.51845  23770931.786    23770938.927
  22945848.347   -15052785.59149 -11696816.98446  22945847.420    22945854.919
  21749803.379   -20503616.20749 -15944817.67147  21749802.415    21749808.283
  22643627.407   -16776576.39049 -13055003.85946  22643626.653    22643633.593
  24097148.042   -10623175.86249  -8257903.67545  24097147.522    24097156.861
  20351526.020   -30040799.21249 -23109919.72448  20351524.943    20351530.966
  20980758.057   -27090572.99849 -21079510.15547  20980757.054    20980763.353
  20532150.481   -27824121.57649 -21663299.35048  20532149.639    20532154.158
 03  2 27  2  7  0.0000000  0  9G 6G26G14G23G 3G 9G15G17G18
  24174175.641   -10184489.00749  -7893874.85645  24174175.027    24174185.169
  23790688.467   -11382507.40949  -8822066.18745  23790688.049    23790695.289
  22925859.911   -15157824.97349 -11778665.66346  22925858.979    22925866.394
  21759916.828   -20450469.50749 -15903404.63647  21759915.854    21759921.740
  22631882.041   -16838298.51449 -13103098.93546  22631881.265    22631888.214
  24085151.541   -10686217.43249  -8307026.82945  24085151.107    24085160.326
  20347654.326   -30061144.89349 -23125773.45748  20347653.253    20347659.252
  20985759.935   -27064287.49849 -21059027.92747  20985758.962    20985765.321
  20534841.451   -27809980.21449 -21652280.08448  20534840.616    20534845.126
 03  2 27  2  7 30.0000000  0  9G 6G26G14G23G 3G 9G15G17G18
  24195327.351   -10073336.62449  -7807262.73245  24195326.694    24195336.897
  23810495.823   -11278419.14449  -8740958.48345  23810495.378    23810502.554
  22905912.205   -15262650.32049 -11860347.58646  22905911.238    22905918.567
  21770051.077   -20397213.58549 -15861906.48647  21770050.138    21770056.010
  22620222.008   -16899572.10849 -13150844.51146  22620221.247    22620228.183
  24073207.237   -10748984.96449  -8355936.43645  24073206.686    24073215.932
  20343838.437   -30081197.28249 -23141398.65248  20343837.365    20343843.360
  20990820.074   -27037695.79649 -21038307.09847  20990819.108    20990825.533
  20537585.926   -27795557.89249 -21641041.89148  20537585.086    20537589.591
 03  2 27  2  8  0.0000000  0  9G 6G26G14G23G 3G 9G15G17G18
  24216491.009    -9962121.21549  -7720601.48045  24216490.282    24216500.429
  23830353.724   -11174065.13649  -8659643.71845  23830353.289    23830360.604
  22886005.760   -15367258.80949 -11941860.50846  22886004.818    22886012.042
  21780205.865   -20343849.61349 -15820324.13947  21780204.918    21780210.796
  22608647.645   -16960395.32449 -13198239.12746  22608646.910    22608653.814
  24061315.732   -10811475.41849  -8404630.13245  24061315.238    24061324.203
  20340078.690   -30100954.82849 -23156794.10048  20340077.617    20340083.575
  20995938.915   -27010796.00549 -21017346.20147  20995937.954    20995944.371
  20540383.675   -27780855.33649 -21629585.31948  20540382.839    20540387.351
 03  2 27  2  8 30.0000000  0  9G 6G26G14G23G 3G 9G15G17G18
  24237666.323    -9850844.14149  -7633892.19645  24237665.713    24237675.741
  23850261.868   -11069447.25949  -8578123.36045  23850261.377    23850268.796
  22866141.226   -15471646.88249 -12023201.69146  22866140.341    22866147.454
  21790381.199   -20290377.77049 -15778657.74947  21790380.244    21790386.133
  22597159.616   -17020764.95549 -13245280.31746  22597158.872    22597165.858
  24049477.827   -10873684.33649  -8453104.44545  24049477.334    24049486.130
  20336375.518   -30120414.99949 -23171957.83248  20336374.441    20336380.387
  21001116.655   -26983587.17749 -20996144.50047  21001115.680    21001122.018
  20543234.753   -27765872.71049 -21617910.51648  20543233.915    20543238.426
 03  2 27  2  9  0.0000000  0  9G 6G26G14G23G 3G 9G15G17G18
  24258852.961    -9739507.98849  -7547136.87345  24258852.336    24258862.417
  23870219.664   -10964568.58249  -8496399.77745  23870219.271    23870226.636
  22846319.149   -15575811.93049 -12104369.08946  22846318.263    22846325.328
  21800576.857   -20236799.30449 -15736908.28947  21800575.915    21800581.767
  22585758.273   -17080678.86649 -13291966.39946  22585757.546    22585764.513
  24037694.115   -10935608.57249  -8501356.95545  24037693.591    24037702.097
  20332729.074   -30139576.99949 -23186889.22848  20332727.995    20332733.923
  21006353.371   -26956068.31149 -20974701.21247  21006352.405    21006358.658
  20546138.902   -27750611.14349 -21606018.36248  20546138.065    20546142.579
 03  2 27  2  9 30.0000000  0  9G 6G26G14G23G 3G 9G15G17G18
  24280050.060    -9628116.80749  -7460338.67045  24280049.432    24280059.388
  23890226.169   -10859433.64649  -8414476.51145  23890225.831    23890233.222
  22826539.687   -15679752.85049 -12185361.85746  22826538.806    22826545.852
  21810792.238   -20183117.09349 -15695077.98447  21810791.283    21810797.091
  22574443.694   -17140136.88049 -13338297.24346  22574442.989    22574449.985
  24025964.836   -10997246.46849  -8549386.34745  24025964.401    24025972.691
  20329139.375   -30158440.85849 -23201588.29248  20329138.310    20329144.234
  21011648.999   -26928239.70249 -20953016.56047  21011648.019    21011654.233
  20549095.569   -27735073.53149 -21593911.10148  20549094.748    20549099.257
 03  2 27  2 10  0.0000000  0  9G 6G26G14G23G 3G 9G15G17G18
  24301257.447    -9516671.36549  -7373498.19845  24301256.880    24301266.874
  23910281.152   -10754043.95649  -8332354.74845  23910280.837    23910288.236
  22806803.704   -15783465.39849 -12266176.66446  22806802.820    22806809.867
  21821027.455   -20129330.74649 -15653166.53147  21821026.488    21821032.262
  22563216.608   -17199135.13649 -13384269.82346  22563215.921    22563222.935
  24014290.930   -11058593.33749  -8597188.96745  24014290.333    24014298.711
  20325606.979   -30177003.58349 -23216052.71248  20325605.906    20325611.829
  21017003.842   -26900099.53049 -20931089.13647  21017002.852    21017009.093
  20552104.899   -27719259.26149 -21581588.25048  20552104.064    20552108.586
 03  2 27  2 10 30.0000000  0  9G 6G26G14G23G 3G 9G15G17G18
  24322474.609    -9405174.72749  -7286617.80245  24322473.951    24322483.950
  23930384.016   -10648402.93249  -8250037.10245  23930383.680    23930391.249
  22787111.548   -15886947.54249 -12346811.93346  22787110.642    22787117.750
  21831282.130   -20075442.13749 -15611175.39747  21831281.178    21831286.939
  22552077.219   -17257672.46249 -13429883.24346  22552076.523    22552083.528
  24002672.880   -11119646.45849  -8644762.69445  24002672.226    24002680.539
  20322132.123   -30195264.06049 -23230281.60448  20322131.042    20322136.940
  21022418.089   -26871647.03149 -20908918.33947  21022417.114    21022423.393
  20555166.504   -27703170.22249 -21569051.29548  20555165.685    20555170.188
 03  2 27  2 11  0.0000000  0  9G 6G26G14G23G 3G 9G15G17G18
  24343701.030    -9293629.56749  -7199699.62345  24343700.427    24343710.409
  23950534.038   -10542513.84249  -8167526.15745  23950533.730    23950541.288
  22767463.687   -15990196.76249 -12427265.70146  22767462.814    22767469.942
  21841556.000   -20021452.57149 -15569105.60047  21841555.026    21841560.785
  22541025.893   -17315747.15949 -13475136.17746  22541025.183    22541032.212
  23991111.232   -11180403.05449  -8692105.34745  23991110.690    23991118.839
  20318714.940   -30213221.36749 -23244274.26748  20318713.857    20318719.711
  21027891.922   -26842881.82449 -20886503.88347  21027890.944    21027897.230
  20558280.185   -27686807.58849 -21556301.15748  20558279.359    20558283.838
 03  2 27  2 11 30.0000000  0  9G 6G26G14G23G 3G 9G15G17G18
  24364936.080    -9182038.73549  -7112745.83645  24364935.406    24364945.582
  23970730.688   -10436380.11349  -8084824.55445  23970730.429    23970737.793
  22747860.606   -16093210.97149 -12507536.35446  22747859.735    22747866.845
  21851848.787   -19967363.72749 -15526958.43747  21851847.811    21851853.587
  22530062.875   -17373357.82249 -13520027.51846  22530062.163    22530069.208
  23979606.583   -11240860.25749  -8739214.71445  23979606.055    23979614.102
  20315355.659   -30230874.46849 -23258029.88548  20315354.573    20315360.414
  21033425.318   -26813803.74749 -20863845.63147  21033424.353    21033430.590
  20561445.568   -27670173.21249 -21543339.26948  20561444.728    20561449.213
 03  2 27  2 12  0.0000000  0  9G 6G26G14G23G 3G 9G15G17G18
  24386179.701    -9070403.34049  -7025757.33545  24386178.999    24386189.308
  23990973.573   -10330003.45649  -8001933.70045  23990973.364    23990980.667
  22728303.001   -16195986.20849 -12587620.79546  22728302.114    22728309.203
  21862160.467   -19913175.51749 -15484733.84647  21862159.482    21862165.257
  22519188.803   -17430501.00749 -13564554.60446  22519188.141    22519195.143
  23968159.663   -11301013.57049  -8786087.29245  23968159.099    23968167.159
  20312054.714   -30248220.71349 -23271546.40348  20312053.628    20312059.451
  21039018.768   -26784410.12849 -20840941.51547  21039017.781    21039023.966
  20564662.735   -27653266.85149 -21530165.46048  20564661.891    20564666.351
 03  2 27  2 12 30.0000000  0  9G 6G26G14G23G 3G 9G15G17G18
  24407431.073    -8958727.19249  -6938737.07245  24407430.447    24407440.934
  24011261.841   -10223388.19649  -7918856.86145  24011261.660    24011268.989
  22708791.173   -16298521.15249 -12667517.98246  22708790.272    22708797.308
  21872490.568   -19858890.47949 -15442433.80747  21872489.591    21872495.337
  22508403.785   -17487176.27249 -13608717.07046  22508403.097    22508410.108
  23956770.955   -11360861.28649  -8832721.77345  23956770.363    23956778.442
  20308812.144   -30265260.37149 -23284824.02048  20308811.063    20308816.886
  21044672.096   -26754701.77649 -20817792.14547  21044671.097    21044677.267
  20567931.155   -27636090.94649 -21516781.61548  20567930.308    20567934.760
 03  2 27  2 13  0.0000000  0  9G 6G26G14G23G 3G 9G15G17G18
  24428689.728    -8847012.89249  -6851687.08345  24428689.080    24428699.637
  24031594.951   -10116537.50749  -7835596.57645  24031594.723    24031602.041
  22689325.517   -16400813.43149 -12747226.07646  22689324.677    22689331.654
  21882838.823   -19804509.98549 -15400059.39047  21882837.866    21882843.577
  22497708.169   -17543381.84349 -13652513.55046  22497707.481    22497714.455
  23945440.986   -11420400.33749  -8879115.70945  23945440.367    23945448.384
  20305628.158   -30281992.14649 -23297861.73048  20305627.067    20305632.900
  21050385.356   -26724678.22549 -20794397.16647  21050384.372    21050390.572
  20571250.659   -27618646.83649 -21503188.78948  20571249.820    20571254.248
 03  2 27  2 13 30.0000000  0  9G 6G26G14G23G 3G 9G15G17G18
  24449955.353    -8735261.60949  -6764608.26545  24449954.648    24449965.373
  24051972.425   -10009453.17049  -7752154.22845  24051972.256    24051979.428
  22669906.753   -16502859.10849 -12826742.02846  22669905.911    22669912.855
  21893205.252   -19750034.13249 -15357610.67447  21893204.280    21893209.965
  22487102.547   -17599114.58849 -13695941.59646  22487101.853    22487108.807
  23934170.574   -11479626.26149  -8925265.65645  23934170.059    23934177.940
  20302503.260   -30298413.47649 -23310657.53848  20302502.170    20302508.004
  21056158.987   -26694337.19549 -20770754.79847  21056158.015    21056164.248
  20574621.181   -27600934.66149 -21489387.06748  20574620.337    20574624.750
 03  2 27  2 14  0.0000000  0  9G 6G26G14G23G 3G 9G15G17G18
  24471227.313    -8623477.08849  -6677503.54745  24471226.662    24471237.418
  24072393.672    -9902139.45049  -7668533.15645  24072393.379    24072400.652
  22650535.176   -16604656.91449 -12906064.82646  22650534.311    22650541.223
  21903589.363   -19695465.23849 -15315089.45847  21903588.401    21903594.087
  22476586.992   -17654373.91249 -13739000.75446  22476586.273    22476593.223
  23922960.090   -11538537.29049  -8971170.21545  23922959.620    23922967.414
  20299437.440   -30314524.17749 -23323211.31548  20299436.343    20299442.185
  21061992.896   -26663679.46849 -20746865.65547  21061991.936    21061998.192
  20578042.275   -27582956.60349 -21475378.17348  20578041.428    20578045.829
 03  2 27  2 14 30.0000000  0  9G 6G26G14G23G 3G 9G15G17G18
  24492505.181    -8511661.54249  -6590374.64745  24492504.541    24492515.303
  24092858.035    -9794598.79049  -7584735.21145  24092857.802    24092864.865
  22631211.250   -16706204.05349 -12985192.29346  22631210.379    22631217.289
  21913991.002   -19640804.19849 -15272496.43547  21913990.060    21913995.742
  22466161.945   -17709157.79349 -13781689.44246  22466161.230    22466168.110
  23911810.240   -11597129.94649  -9016826.68045  23911809.719    23911817.618
  20296431.090   -30330322.56849 -23335521.72048  20296429.984    20296435.832
  21067887.434   -26632703.63649 -20722728.63147  21067886.476    21067892.734
  20581513.739   -27564713.76449 -21461162.95448  20581512.895    20581517.302
 03  2 27  2 15  0.0000000  0  9G 6G26G14G23G 3G 9G15G17G18
  24513788.539    -8399817.10949  -6503223.23345  24513788.037    24513798.651
  24113365.050    -9686834.05749  -7500762.54245  24113364.775    24113371.858
  22611935.531   -16807497.59549 -13064122.15746  22611934.684    22611941.565
  21924409.938   -19586051.96849 -15229832.35847  21924408.988    21924414.720
  22455827.765   -17763464.11949 -13824006.00846  22455827.024    22455833.872
  23900721.529   -11655401.07949  -9062232.61845  23900720.975    23900728.848
  20293484.427   -30345807.18349 -23347587.62448  20293483.334    20293489.181
  21073842.621   -26601409.17849 -20698343.33347  21073841.643    21073847.863
  20585035.448   -27546206.77549 -21446741.90548  20585034.607    20585039.044
 03  2 27  2 15 30.0000000  0  9G 6G26G14G23G 3G 9G15G17G18
  24535076.878    -8287946.80449  -6416051.69245  24535076.340    24535087.181
  24133913.950    -9578848.70349  -7416617.95345  24133913.540    24133920.737
  22592708.544   -16908535.22249 -13142852.61546  22592707.714    22592714.554
  21934845.999   -19531210.03849 -15187098.40247  21934845.053    21934850.818
  22445584.656   -17817291.74349 -13865949.57946  22445583.926    22445590.758
  23889694.614   -11713347.85649  -9107385.82745  23889694.060    23889701.897
  20290597.656   -30360977.10149 -23359408.30248  20290596.572    20290602.400
  21079858.461   -26569795.91149 -20673709.60447  21079857.468    21079863.658
  20588607.113   -27527437.33249 -21432116.34148  20588606.274    20588610.719
 03  2 27  2 16  0.0000000  0  8G26G14G23G 3G 9G15G17G18
  24154504.658    -9470643.45249  -7332302.03545  24154504.145    24154511.404
  22573531.114   -17009312.28849 -13221380.03946  22573530.291    22573537.101
  21945299.324   -19476277.45349 -15144293.80047  21945298.376    21945304.152
  22435433.447   -17870636.45749 -13907516.87246  22435432.723    22435439.518
  23878730.416   -11770964.97949  -9152282.18645  23878729.770    23878737.557
  20287771.462   -30375828.72349 -23370980.96348  20287770.389    20287776.187
  21085935.553   -26537860.71549 -20648825.02147  21085934.541    21085940.758
  20592228.944   -27508404.43149 -21417285.48548  20592228.107    20592232.556
 03  2 27  2 16 30.0000000  0  8G26G14G23G 3G 9G15G17G18
  24175136.081    -9362224.04449  -7247819.34045  24175135.642    24175142.839
  22554403.287   -17109828.76149 -13299704.41046  22554402.433    22554409.340
  21955769.266   -19421257.67149 -15101421.25147  21955768.318    21955774.096
  22425373.974   -17923498.93049 -13948708.38846  22425373.258    22425380.066
  23867829.129   -11828251.77649  -9196921.12845  23867828.436    23867836.214
  20285005.639   -30390362.98949 -23382306.33548  20285004.564    20285010.358
  21092073.635   -26505604.70649 -20623690.45747  21092072.622    21092078.878
  20595900.218   -27489111.70549 -21402252.16748  20595899.386    20595903.811
 03  2 27  2 17  0.0000000  0  8G26G14G23G 3G 9G15G17G18
  24195807.850    -9253592.51349  -7163171.35245  24195807.361    24195814.719
  22535325.694   -17210081.55149 -13377823.32146  22535324.840    22535331.742
  21966255.683   -19366151.32549 -15058481.24247  21966254.738    21966260.521
  22415406.754   -17975876.83549 -13989522.32446  22415406.017    22415412.848
  23856991.309   -11885204.66149  -9241299.86845  23856990.629    23856998.335
  20282300.568   -30404578.09549 -23393383.01148  20282299.496    20282305.284
  21098272.902   -26473027.13549 -20598305.32647  21098271.880    21098278.157
  20599620.823   -27469559.93449 -21387016.99648  20599619.950    20599624.386
 03  2 27  2 17 30.0000000  0  8G26G14G23G 3G 9G15G17G18
  24216519.450    -9144751.50849  -7078360.10145  24216519.003    24216526.318
  22516298.865   -17310067.38549 -13455734.21946  22516298.021    22516304.928
  21976758.396   -19310959.17149 -15015474.37047  21976757.427    21976763.232
  22405532.113   -18027767.97149 -14029956.95946  22405531.393    22405538.244
  23846217.563   -11941820.38549  -9285415.90145  23846216.868    23846224.601
  20279656.599   -30418472.23849 -23404209.58748  20279655.527    20279661.311
  21104533.677   -26440126.49749 -20572668.45147  21104532.656    21104538.936
  20603390.602   -27449749.58849 -21371580.34948  20603389.730    20603394.145
 03  2 27  2 18  0.0000000  0  8G26G14G23G 3G 9G15G17G18
  24237269.891    -9035706.33749  -6993389.73345  24237269.518    24237276.904
  22497322.863   -17409786.32449 -13533437.14846  22497322.048    22497328.913
  21987276.744   -19255684.83949 -14972403.47147  21987275.766    21987281.622
  22395749.986   -18079173.17849 -14070012.94546  22395749.265    22395756.139
  23835508.224   -11998097.85549  -9329268.35245  23835507.462    23835515.270
  20277073.429   -30432046.68849 -23414787.06548  20277072.355    20277078.135
  21110855.540   -26406904.78849 -20546781.40047  21110854.530    21110860.786
  20607208.832   -27429684.46849 -21355945.17448  20607207.977    20607212.372
 03  2 27  2 18 30.0000000  0  9G26G14G23G 3G 9G15G31G17G18
  24258058.492    -8926460.64649  -6908263.05745  24258058.046    24258065.623
  22478398.014   -17509236.49949 -13610930.65346  22478397.180    22478404.031
  21997810.350   -19200330.14249 -14929269.94347  21997809.383    21997815.282
  22386060.524   -18130091.42349 -14109689.47446  22386059.773    22386066.719
  23824863.583   -12054034.84349  -9372855.49345  23824862.811    23824870.590
  20274551.301   -30445300.54349 -23425114.71748  20274550.221    20274555.974
  24381152.031    -4324534.70049  -3344306.71145  24381151.111    24381159.891
  21117238.486   -26373362.22049 -20520644.32347  21117237.471    21117243.745
  20611075.301   -27409366.02449 -21340112.58848  20611074.440    20611078.824
 03  2 27  2 19  0.0000000  0  9G26G14G23G 3G 9G15G31G17G18
  24278884.801    -8817016.87949  -6822982.00145  24278884.387    24278891.790
  22459524.884   -17608414.91049 -13688212.40446  22459524.045    22459530.855
  22008359.158   -19144895.66949 -14886074.26447  22008358.171    22008364.110
  22376464.125   -18180520.72249 -14148985.00546  22376463.376    22376470.313
  23814284.421   -12109627.78849  -9416174.53945  23814283.724    23814291.424
  20272090.486   -30458232.24949 -23435191.34848  20272089.414    20272095.124
  24364271.734    -4413240.72249  -3413428.17345  24364270.786    24364279.715
  21123682.687   -26339497.34349 -20494256.10347  21123681.690    21123687.994
  20614989.768   -27388795.25749 -21324083.40548  20614988.930    20614993.297
 03  2 27  2 19 30.0000000  0  9G26G14G23G 3G 9G15G31G17G18
  24299749.055    -8707373.33049  -6737545.22045  24299748.634    24299756.142
  22440704.834   -17707314.39949 -13765276.81346  22440703.984    22440710.770
  22018923.847   -19089377.91349 -14842813.67847  22018922.867    22018928.783
  22366962.074   -18230454.36349 -14187894.30546  22366961.315    22366968.254
  23803772.138   -12164869.10749  -9459219.60245  23803771.412    23803779.278
  20269692.045   -30470836.08149 -23445012.49548  20269690.955    20269696.668
  24347451.656    -4501630.44149  -3482303.18345  24347450.821    24347459.648
  21130189.273   -26305304.83849 -20467612.59147  21130188.295    21130194.601
  20618952.887   -27367968.74149 -21307854.93948  20618952.037    20618956.387
 03  2 27  2 20  0.0000000  0  9G26G14G23G 3G 9G15G31G17G18
  24320650.539    -8597534.38749  -6651956.15245  24320650.215    24320657.546
  22421938.097   -17805933.70549 -13842122.89946  22421937.256    22421943.992
  22029503.932   -19033779.11449 -14799489.94547  22029502.952    22029508.860
  22357554.340   -18279892.10049 -14226417.18646  22357553.588    22357560.531
  23793327.089   -12219757.09749  -9501989.34745  23793326.433    23793334.338
  20267356.052   -30483111.68249 -23454577.88348  20267354.962    20267360.663
  24330692.026    -4589702.62549  -3550930.75045  24330691.154    24330700.010
  21136758.062   -26270785.40649 -20440714.33847  21136757.077    21136763.389
  20622964.238   -27346888.81749 -21291429.00848  20622963.400    20622967.722
 03  2 27  2 20 30.0000000  0  9G26G14G23G 3G 9G15G31G17G18
  24341588.507    -8487503.57549  -6566217.64445  24341588.070    24341595.470
  22403225.005   -17904271.03549 -13918749.25546  22403224.151    22403230.849
  22040099.132   -18978101.07949 -14756104.47747  22040098.158    22040104.013
  22348241.173   -18328833.03349 -14264552.94146  22348240.435    22348247.359
  23782949.689   -12274289.44549  -9544481.98145  23782949.097    23782957.008
  20265082.662   -30495058.28949 -23463886.90448  20265081.566    20265087.290
  24313993.194    -4677455.12049  -3619309.25845  24313992.353    24314001.121
  21143389.135   -26235939.01549 -20413561.30947  21143388.157    21143394.439
  20627023.520   -27325557.12949 -21274806.89948  20627022.679    20627026.999
 03  2 27  2 21  0.0000000  0  9G26G14G23G 3G 9G15G31G17G18
  24362562.202    -8377285.20049  -6480332.99345  24362561.850    24362569.028
  22384565.874   -18002325.03049 -13995154.83446  22384565.008    22384571.635
  22050708.922   -18922346.24049 -14712659.14947  22050707.933    22050713.833
  22339022.623   -18377276.97649 -14302301.43646  22339021.887    22339028.804
  23772640.371   -12328464.35849  -9586696.10145  23772639.715    23772647.765
  20262871.822   -30506676.18149 -23472939.78548  20262870.736    20262876.468
  24297355.404    -4764886.87549  -3687437.82545  24297354.521    24297363.305
  21150082.339   -26200766.07749 -20386153.83247  21150081.343    21150087.576
  20631130.147   -27303976.50349 -21257990.81748  20631129.306    20631133.629
 03  2 27  2 21 30.0000000  0  9G26G14G23G 3G 9G15G31G17G18
  24383571.231    -8266881.08549  -6394303.67945  24383570.826    24383578.002
  22365961.365   -18100091.97549 -14071336.75246  22365960.508    22365967.027
  22061333.319   -18866514.41549 -14669153.82347  22061332.327    22061338.281
  22329899.171   -18425220.95649 -14339660.33346  22329898.433    22329905.360
  23762399.918   -12382277.44549  -9628628.29045  23762399.303    23762407.355
  20260724.025   -30517962.72649 -23481734.47248  20260722.933    20260728.692
  24280779.402    -4851993.88249  -3755313.36345  24280778.518    24280787.332
  21156838.090   -26165264.62349 -20358490.37047  21156837.077    21156843.284
  20635284.225   -27282146.54749 -21240980.45348  20635283.371    20635287.710
 03  2 27  2 22  0.0000000  0  9G26G14G23G 3G 9G15G31G17G18
  24404614.822    -8156295.77049  -6308133.26045  24404614.287    24404621.465
  22347411.661   -18197570.93149 -14147294.26346  22347410.790    22347417.237
  22071971.910   -18810608.19949 -14625590.52647  22071970.923    22071976.879
  22320870.838   -18472665.02549 -14376629.69946  22320870.103    22320877.031
  23752228.596   -12435727.57449  -9670277.64345  23752227.965    23752236.042
  20258639.275   -30528918.10749 -23490271.11648  20258638.197    20258643.947
  24264265.388    -4938775.28049  -3822935.15745  24264264.539    24264273.523
  21163656.096   -26129435.67849 -20330571.71647  21163655.096    21163661.259
  20639485.267   -27260069.99849 -21223777.93348  20639484.412    20639488.760
 03  2 27  2 22 30.0000000  0  9G26G14G23G 3G 9G15G31G17G18
  24425692.631    -8045530.78149  -6221822.84245  24425692.156    24425699.252
  22328917.399   -18294758.54349 -14223024.76246  22328916.503    22328922.885
  22082624.652   -18754627.59149 -14581969.27447  22082623.678    22082629.632
  22311938.131   -18519606.44549 -14413207.40246  22311937.417    22311944.313
  23742127.210   -12488810.58549  -9711640.93745  23742126.638    23742134.585
  20256617.999   -30539539.86849 -23498547.80848  20256616.926    20256622.671
  24247813.982    -5025227.43049  -3890300.39645  24247812.969    24247822.115
  21170536.756   -26093277.71849 -20302396.69247  21170535.743    21170541.905
  20643733.142   -27237747.18149 -21206383.51748  20643732.302    20643736.641
 03  2 27  2 23  0.0000000  0  8G14G23G 3G 9G15G31G17G18
  22310479.086   -18391652.14449 -14298526.15046  22310478.198    22310484.512
  22093291.364   -18698573.70449 -14538290.91147  22093290.373    22093296.317
  22303101.378   -18566043.75349 -14449392.28446  22303100.645    22303107.537
  23732096.293   -12541523.53949  -9752715.86345  23732095.692    23732103.456
  20254660.443   -30549826.82149 -23506563.59048  20254659.361    20254665.122
  24231425.762    -5111347.73149  -3957407.04645  24231424.594    24231433.819
  21177480.117   -26056790.07849 -20273964.77947  21177479.116    21177485.276
  20648027.680   -27215179.18749 -21188798.04948  20648026.839    20648031.171
 03  2 27  2 23 30.0000000  0  8G14G23G 3G 9G15G31G17G18
  22292097.110   -18488249.53849 -14373796.73946  22292096.223    22292102.493
  22103971.785   -18642447.78849 -14494556.43547  22103970.819    22103976.695
  22294360.842   -18611975.61449 -14485183.30946  22294360.096    22294366.977
  23722136.329   -12593863.73949  -9793500.33745  23722135.717    23722143.230
  20252766.808   -30559777.82649 -23514317.60148  20252765.732    20252771.493
  24215101.119    -5197133.88449  -4024253.31345  24215100.046    24215109.035
  21184486.318   -26019972.27849 -20245275.60147  21184485.326    21184491.482
  20652368.639   -27192367.25349 -21171022.50248  20652367.803    20652372.124
 03  2 27  2 24  0.0000000  0  8G14G23G 3G 9G15G31G17G18
  22273772.029   -18584547.99949 -14448834.39446  22273771.119    22273777.401
  22114665.736   -18586250.67949 -14450766.48447  22114664.786    22114670.646
  22285716.778   -18657400.39349 -14520579.22646  22285716.050    22285722.891
  23712247.947   -12645828.09549  -9833991.94945  23712247.302    23712254.582
  20250937.415   -30569391.27249 -23521808.57348  20250936.338    20250942.096
  24198840.569    -5282583.16749  -4090837.06345  24198839.602    24198848.711
  21191555.480   -25982823.75849 -20216328.73047  21191554.482    21191560.649
  20656755.787   -27169312.51449 -21153057.75748  20656754.946    20656759.254
 03  2 27  2 24 30.0000000  0  8G14G23G 3G 9G15G31G17G18
  22255503.951   -18680546.90349 -14523638.63546  22255503.046    22255509.314
  22125372.719   -18529985.07649 -14406923.16947  22125371.754    22125377.600
  22277169.196   -18702318.11149 -14555580.01746  22277168.447    22277175.287
  23702431.266   -12697415.28049  -9874189.64845  23702430.609    23702437.707
  20249172.153   -30578667.69149 -23529036.92548  20249171.061    20249176.814
  24182644.357    -5367694.70349  -4157157.65045  24182643.315    24182652.316
  21198687.415   -25945345.22249 -20187124.70047  21198686.415    21198692.592
  20661188.618   -27146017.84549 -21134906.04848  20661187.787    20661192.080
 03  2 27  2 25  0.0000000  0  8G14G23G 3G 9G15G31G17G18
  22237293.821   -18776241.23549 -14598205.53646  22237292.943    22237299.189
  22136093.001   -18473649.59749 -14363025.39547  22136092.062    22136097.875
  22268718.790   -18746725.12249 -14590182.85646  22268718.077    22268724.866
  23692687.362   -12748620.26249  -9914089.55245  23692686.714    23692693.612
  20247471.752   -30587603.41549 -23535999.80348  20247470.648    20247476.396
  24166513.298    -5452463.54349  -4223211.18645  24166512.371    24166521.080
  21205882.641   -25907533.84049 -20157661.29647  21205881.664    21205887.866
  20665667.338   -27122481.82749 -21116566.27448  20665666.507    20665670.805
 03  2 27  2 25 30.0000000  0  8G14G23G 3G 9G15G31G17G18
  22219141.789   -18871630.47349 -14672534.71146  22219140.909    22219147.167
  22146826.079   -18417246.93049 -14319075.28147  22146825.142    22146830.935
  22260365.527   -18790621.87449 -14624388.09346  22260364.800    22260371.557
  23683016.463   -12799441.51249  -9953690.43745  23683015.799    23683022.472
  20245836.042   -30596199.07449 -23542697.70148  20245834.940    20245840.680
  24150447.664    -5536888.87549  -4288997.02745  24150446.785    24150455.538
  21213140.946   -25869391.08049 -20127939.68247  21213139.969    21213146.187
  20670191.403   -27098707.49549 -21098040.81548  20670190.575    20670194.878
 03  2 27  2 26  0.0000000  0  8G14G23G 3G 9G15G31G17G18
  22201048.465   -18966711.10449 -14746623.41646  22201047.595    22201053.828
  22157571.943   -18360777.25449 -14275072.94247  22157571.003    22157576.781
  22252109.785   -18834006.08649 -14658193.94846  22252109.066    22252115.792
  23673419.217   -12849875.37149  -9992989.48745  23673418.523    23673425.039
  20244265.453   -30604452.48049 -23549128.90848  20244264.367    20244270.069
  24134448.004    -5620967.38449  -4354512.61845  24134447.080    24134455.826
  21220462.678   -25830914.95249 -20097958.29547  21220461.710    21220467.960
  20674760.800   -27074695.05149 -21079329.81248  20674759.962    20674764.279
 03  2 27  2 26 30.0000000  0  8G14G23G 3G 9G15G31G17G18
  22183014.161   -19061481.61349 -14820470.47746  22183013.280    22183019.490
  22168330.216   -18304242.39649 -14231019.80747  22168329.255    22168335.016
  22243951.706   -18876876.99849 -14691599.81946  22243951.003    22243957.712
  23663896.033   -12899919.91149 -10031985.14545  23663895.366    23663901.818
  20242760.085   -30612363.19449 -23555293.07548  20242758.980    20242764.677
  24118514.643    -5704697.34449  -4419756.59445  24118513.761    24118522.354
  21227847.703   -25792106.60749 -20067718.03447  21227846.737    21227852.966
  20679375.139   -27050446.51949 -21060434.83648  20679374.297    20679378.613
 03  2 27  2 27  0.0000000  0  8G14G23G 3G 9G15G31G17G18
  22165039.495   -19155939.10849 -14894073.62246  22165038.593    22165044.782
  22179100.815   -18247642.60749 -14186916.07347  22179099.839    22179105.592
  22235891.711   -18919232.49749 -14724604.07546  22235890.993    22235897.685
  23654447.610   -12949571.40749 -10070674.52945  23654446.947    23654453.402
  20241320.316   -30619929.22649 -23561188.66048  20241319.226    20241324.870
  24102648.279    -5788075.56349  -4484726.48745  24102647.355    24102655.835
  21235296.386   -25752963.93449 -20037217.25447  21235295.381    21235301.595
  20684034.363   -27025962.16949 -21041356.10848  20684033.532    20684037.813
 03  2 27  2 27 30.0000000  0  8G14G23G 3G 9G15G31G17G18
  22147124.792   -19250081.18749 -14967431.00546  22147123.915    22147130.034
  22189883.541   -18190979.15249 -14142762.73247  22189882.564    22189888.302
  22227930.020   -18961071.32949 -14757205.72147  22227929.305    22227935.970
  23645074.431   -12998827.35449 -10109055.70045  23645073.756    23645080.281
  20239946.366   -30627149.41949 -23566814.76348  20239945.267    20239950.891
  24086849.286    -5871099.75149  -4549420.51045  24086848.392    24086856.643
  21242808.711   -25713486.65849 -20006455.74347  21242807.720    21242813.897
  20688738.198   -27001243.37349 -21022094.69748  20688737.345    20688741.622
 03  2 27  2 28  0.0000000  0  8G14G23G 3G 9G15G31G17G18
  22129270.639   -19343905.04249 -15040540.41346  22129269.756    22129275.819
  22200678.265   -18134252.44449 -14098560.09047  22200677.291    22200683.013
  22220067.007   -19002391.65349 -14789403.33247  22220066.278    22220072.952
  23635777.161   -13047684.24149 -10147125.90945  23635776.523    23635783.135
  20238638.545   -30634022.01549 -23572170.01148  20238637.433    20238643.039
  24071118.174    -5953766.82949  -4613836.26845  24071117.242    24071125.329
  21250384.853   -25673673.98349 -19975432.87847  21250383.856    21250390.018
  20693486.507   -26976290.84649 -21002651.15548  20693485.648    20693489.928
 03  2 27  2 28 30.0000000  0  8G14G23G 3G 9G15G31G17G18
  22111477.341   -19437409.08149 -15113400.62446  22111476.463    22111482.502
  22211484.670   -18077464.29849 -14054309.58447  22211483.680    22211489.394
  22212302.707   -19043193.09349 -14821196.62147  22212301.973    22212308.647
  23626556.184   -13096140.21049 -10184883.70745  23626555.486    23626562.204
  20237396.928   -30640546.57349 -23577254.06048  20237395.823    20237401.418
  24055455.315    -6036075.32849  -4677972.62344  24055454.516    24055462.288
  21258024.640   -25633526.54449 -19944149.16347  21258023.627    21258029.826
  20698278.898   -26951106.60449 -20983027.06348  20698278.040    20698282.320
 03  2 27  2 29  0.0000000  0  8G14G23G 3G 9G15G31G17G18
  22093745.515   -19530590.16949 -15186009.20847  22093744.629    22093750.667
  22222302.718   -18020614.99349 -14010011.41447  22222301.701    22222307.419
  22204637.553   -19083473.69049 -14852584.05947  22204636.810    22204643.502
  23617412.148   -13144191.85949 -10222326.45445  23617411.436    23617418.314
  20236221.910   -30646721.07949 -23582065.34648  20236220.806    20236226.420
  24039861.244    -6118022.03149  -4741827.07144  24039860.352    24039868.057
  21265728.398   -25593042.61649 -19912603.24647  21265727.403    21265733.645
  20703115.236   -26925691.25049 -20963222.88247  20703114.392    20703118.670
 03  2 27  2 29 30.0000000  0  8G14G23G 3G 9G15G31G17G18
  22076075.494   -19623446.37949 -15258364.61047  22076074.592    22076080.643
  22233132.179   -17963705.81749 -13965666.58547  22233131.174    22233136.871
  22197071.674   -19123232.53449 -14883564.93547  22197070.927    22197077.605
  23608345.460   -13191836.84249 -10259452.33245  23608344.704    23608351.783
  20235113.591   -30652545.07649 -23586603.50748  20235112.493    20235118.112
  24024336.454    -6199604.91049  -4805398.00044  24024335.369    24024343.285
  21273496.186   -25552222.39749 -19880795.28947  21273495.206    21273501.463
  20707995.299   -26900046.20249 -20943239.72347  20707994.464    20707998.747
 03  2 27  2 30  0.0000000  0  8G14G23G 3G 9G15G31G17G18
  22058467.700   -19715975.57049 -15330465.20047  22058466.792    22058472.857
  22243972.781   -17906737.84849 -13921275.93847  22243971.789    22243977.480
  22189605.291   -19162468.40549 -14914138.29547  22189604.546    22189611.230
  23599356.617   -13239072.35849 -10296259.14845  23599355.916    23599363.118
  20234072.243   -30658017.34849 -23590867.59248  20234071.134    20234076.758
  24008881.309    -6280821.61749  -4868683.60444  24008880.248    24008888.482
  21281328.136   -25511065.19049 -19848724.74447  21281327.154    21281333.435
  20712918.866   -26874172.64049 -20923078.50048  20712918.025    20712922.299
 03  2 27  2 30 30.0000000  0  8G14G23G 3G 9G15G31G17G18
  22040922.773   -19808174.31249 -15402308.29447  22040921.888    22040927.930
  22254824.610   -17849711.00649 -13876839.42047  22254823.616    22254829.331
  22182238.819   -19201179.25649 -14944302.55047  22182238.056    22182244.747
  23590446.473   -13285894.52549 -10332743.86445  23590445.905    23590453.202
  20233098.259   -30663135.49149 -23594855.73648  20233097.148    20233102.766
  23993496.392    -6361668.61549  -4931681.14844  23993495.388    23993503.909
  21289224.528   -25469569.59149 -19816390.51847  21289223.537    21289229.789
  20717885.928   -26848070.70049 -20902739.31448  20717885.077    20717889.351
 03  2 27  2 31  0.0000000  0  8G14G23G 3G 9G15G31G17G18
  22023440.862   -19900042.05149 -15473893.47047  22023439.970    22023445.974
  22265687.159   -17792627.93949 -13832359.08047  22265686.166    22265691.887
  22174972.190   -19239365.47049 -14974058.00147  22174971.437    22174978.137
  23581615.123   -13332302.66849 -10368905.97245  23581614.489    23581621.957
  20232191.522   -30667900.32149 -23598568.58648  20232190.426    20232196.051
  23978181.996    -6442145.33349  -4994390.14744  23978181.122    23978189.762
  21297185.079   -25427736.83249 -19783793.57447  21297184.066    21297190.334
  20722895.851   -26821743.42949 -20882224.54748  20722894.998    20722899.256
 03  2 27  2 31 30.0000000  0  8G14G23G 3G 9G15G31G17G18
  22006022.639   -19991575.05349 -15545217.80547  22006021.738    22006027.687
  22276560.518   -17735488.14949 -13787834.53947  22276559.529    22276565.227
  22167805.901   -19277024.31449 -15003402.51347  22167805.148    22167811.829
  23572863.331   -13378292.47549 -10404742.10345  23572862.767    23572870.256
  20231352.536   -30672308.95949 -23602003.87348  20231351.447    20231357.073
  23962938.834    -6522247.81449  -5056807.52444  23962937.584    23962946.524
  21305210.003   -25385565.63749 -19750932.91947  21305208.991    21305215.263
  20727948.747   -26795190.30549 -20861533.78948  20727947.900    20727952.137
 03  2 27  2 32  0.0000000  0  8G14G23G 3G 9G15G31G17G18
  21988668.378   -20082772.03949 -15616280.31247  21988667.492    21988673.390
  22287444.225   -17678293.73549 -13743267.44247  22287443.224    22287448.979
  22160740.002   -19314155.66949 -15032335.99847  22160739.250    22160745.913
  23564191.485   -13423862.37649 -10440251.03245  23564190.880    23564198.465
  20230581.461   -30676360.99049 -23605161.28248  20230580.381    20230586.009
  23947767.169    -6601974.77549  -5118932.30644  23947765.986    23947775.010
  21313299.355   -25343055.69349 -19717808.29247  21313298.350    21313304.671
  20733044.237   -26768413.36049 -20840668.61948  20733043.383    20733047.601
 03  2 27  2 32 30.0000000  0  8G14G23G 3G 9G15G31G17G18
  21971378.804   -20173629.15849 -15687077.98147  21971377.922    21971383.765
  22298338.464   -17621043.93849 -13698657.17347  22298337.452    22298343.264
  22153774.993   -19350756.96349 -15060856.45347  22153774.271    22153780.918
  23555600.381   -13469007.95349 -10475429.28245  23555599.818    23555607.499
  20229878.672   -30680054.04449 -23608038.97148  20229877.597    20229883.198
  23932667.784    -6681322.14449  -5180761.30244  23932666.700    23932675.553
  21321453.470   -25300205.31949 -19684418.39947  21321452.476    21321458.787
  20738182.321   -26741412.46949 -20819628.94347  20738181.456    20738185.663
 03  2 27  2 33  0.0000000  0  8G14G23G 3G 9G15G31G17G18
  21954153.966   -20264146.08949 -15757610.56847  21954153.076    21954158.880
  22309242.686   -17563741.58649 -13654005.96147  22309241.693    22309247.522
  22146910.710   -19386828.97849 -15088964.48047  22146909.973    22146916.585
  23547090.297   -13513728.13849 -10510276.08045  23547089.690    23547097.393
  20229244.130   -30683388.70349 -23610637.38848  20229243.036    20229248.634
  23917640.700    -6760289.39249  -5242294.11144  23917639.623    23917648.457
  21329672.049   -25257016.39549 -19650764.69447  21329671.066    21329677.352
  20743362.482   -26714190.56749 -20798417.05147  20743361.630    20743365.842
 03  2 27  2 33 30.0000000  0  8G14G23G 3G 9G15G31G17G18
  21936994.463   -20354319.49949 -15827875.48047  21936993.576    21936999.318
  22320156.939   -17506386.82349 -13609313.90647  22320155.937    22320161.762
  22140147.481   -19422369.85649 -15116658.63747  22140146.755    22140153.320
  23538661.808   -13558019.65649 -10544788.82845  23538661.144    23538668.845
  20228678.130   -30686363.12649 -23612955.10348  20228677.028    20228682.616
  23902686.553    -6838873.46649  -5303528.34144  23902685.386    23902694.269
  21337955.405   -25213487.32249 -19616845.95347  21337954.411    21337960.663
  20748584.603   -26686748.00349 -20777033.21747  20748583.754    20748587.954
 03  2 27  2 34  0.0000000  0  8G14G23G 3G 9G15G31G17G18
  21919900.818   -20444146.94949 -15897870.81347  21919899.929    21919905.643
  22331081.052   -17448980.21449 -13564581.45947  22331080.035    22331085.900
  22133485.615   -19457378.15449 -15143937.79747  22133484.887    22133491.421
  23530315.424   -13601879.89449 -10578965.52445  23530314.822    23530322.358
  20228180.996   -30688975.65749 -23614990.82548  20228179.902    20228185.461
  23887805.720    -6917071.66649  -5364461.88644  23887804.747    23887813.454
  21346303.659   -25169617.21349 -19582661.46247  21346302.642    21346308.848
  20753848.560   -26659085.65249 -20755478.11247  20753847.720    20753851.905
 03  2 27  2 34 30.0000000  0  8G14G23G 3G 9G15G31G17G18
  21902873.294   -20533626.74849 -15967595.24447  21902872.397    21902878.098
  22342014.773   -17391523.02949 -13519809.59847  22342013.776    22342019.650
  22126925.230   -19491853.09649 -15170801.35347  22126924.479    22126931.008
  23522051.569   -13645306.61149 -10612804.40245  23522050.924    23522058.435
  20227752.822   -30691225.70349 -23616744.08348  20227751.739    20227757.291
  23872998.795    -6994882.12649  -5425093.30845  23872997.808    23873006.440
  21354716.697   -25125406.57649 -19548211.62247  21354715.698    21354721.841
  20759154.038   -26631204.94649 -20733752.85647  20759153.187    20759157.389
 03  2 27  2 35  0.0000000  0  8G14G23G 3G 9G15G31G17G18
  21885912.387   -20622756.57649 -16037046.97447  21885911.489    21885917.189
  22352957.940   -17334016.26149 -13474999.10347  22352956.930    22352962.841
  22120466.479   -19525793.90949 -15197248.68947  22120465.740    22120472.240
  23513870.741   -13688297.11849 -10646303.39245  23513870.106    23513877.467
  20227393.857   -30693111.90649 -23618213.82248  20227392.777    20227398.339
  23858266.143    -7072302.45149  -5485420.74445  23858265.166    23858273.339
  21363194.555   -25080855.13049 -19513496.21147  21363193.559    21363199.694
  20764500.922   -26603106.93749 -20711858.27147  20764500.076    20764504.260
 03  2 27  2 35 30.0000000  0  8G14G23G 3G 9G15G31G17G18
  21869018.482   -20711534.35049 -16106224.38247  21869017.594    21869023.284
  22363910.335   -17276460.83149 -13430150.68247  22363909.328    22363915.299
  22114109.575   -19559199.63749 -15223279.07647  22114108.861    22114115.331
  23505773.399   -13730848.95549 -10679460.54945  23505772.782    23505779.898
  20227104.280   -30694633.37449 -23619399.35648  20227103.198    20227108.785
  23843608.121    -7149330.42849  -5545442.45345  23843607.254    23843615.363
  21371737.451   -25035962.03749 -19478514.58547  21371736.445    21371742.594
  20769888.869   -26574793.04449 -20689795.46447  20769888.006    20769892.204
 03  2 27  2 36  0.0000000  0  8G14G23G 3G 9G15G31G17G18
  21852192.227   -20799956.59049 -16175124.73847  21852191.353    21852197.042
  22374872.068   -17218856.22649 -13385263.93847  22374871.059    22374877.084
  22107854.917   -19592067.90349 -15248890.66047  22107854.221    22107860.663
  23497760.318   -13772958.41149 -10712273.02445  23497759.659    23497766.614
  20226884.647   -30695787.52449 -23620298.66448  20226883.560    20226889.127
  23829025.458    -7225962.42749  -5605155.58645  23829024.690    23829032.716
  21380345.545   -24990726.06449 -19443265.77147  21380344.545    21380350.767
  20775317.905   -26546263.02349 -20667564.24047  20775317.047    20775321.235
 03  2 27  2 36 30.0000000  0  8G14G23G 3G 9G15G31G17G18
  21835433.696   -20888022.92549 -16243747.76947  21835432.804    21835438.514
  22385842.711   -17161205.09549 -13340340.94247  22385841.704    22385847.708
  22101702.398   -19624399.59349 -15274084.12847  22101701.680    22101708.128
  23489831.509   -13814624.49349 -10744740.01045  23489830.860    23489837.661
  20226734.823   -30696574.77649 -23620912.07748  20226733.734    20226739.300
  23814518.293    -7302197.86949  -5664559.72845  23814517.373    23814525.559
  21389018.708   -24945148.31649 -19407750.63947  21389017.691    21389023.976
  20780787.574   -26517519.75049 -20645166.85047  20780786.711    20780790.890
 03  2 27  2 37  0.0000000  0  8G14G23G 3G 9G15G31G17G18
  21818743.662   -20975729.46549 -16312090.44547  21818742.769    21818748.458
  22396822.342   -17103506.81949 -13295381.21347  22396821.353    22396827.279
  22095652.449   -19656192.20549 -15298857.54047  22095651.739    22095658.152
  23481987.933   -13855843.01849 -10776858.24545  23481987.248    23481993.951
  20226655.279   -30696992.76349 -23621237.75648  20226654.199    20226659.759
  23800087.330    -7378032.84749  -5723651.82745  23800086.373    23800094.491
  21397757.164   -24899227.23949 -19371967.98247  21397756.152    21397762.455
  20786297.907   -26488562.65149 -20622602.84447  20786297.036    20786301.188
 03  2 27  2 37 30.0000000  0  8G14G23G 3G 9G15G31G17G18
  21802122.352   -21063074.63249 -16380151.52647  21802121.456    21802127.150
  22407810.667   -17045762.83749 -13250385.86847  22407809.656    22407815.517
  22089705.148   -19687445.23149 -15323210.48847  22089704.446    22089710.831
  23474229.844   -13896611.89649 -10808626.11045  23474229.110    23474235.811
  20226646.073   -30697040.93949 -23621275.26748  20226644.985    20226650.560
  23785732.972    -7453465.62249  -5782430.49045  23785731.941    23785740.097
  21406561.008   -24852962.82149 -19335917.78847  21406559.987    21406566.324
  20791848.545   -26459393.67149 -20599873.73647  20791847.673    20791851.812
 03  2 27  2 38  0.0000000  0  8G14G23G 3G 9G15G31G17G18
  21785570.136   -21150056.71749 -16447929.68547  21785569.254    21785574.922
  22418807.445   -16987974.26849 -13205355.76947  22418806.453    22418812.223
  22083860.604   -19718158.29849 -15347142.69447  22083859.902    22083866.290
  23466557.639   -13936929.29849 -10840042.15245  23466556.881    23466563.505
  20226707.352   -30696718.67549 -23621024.12348  20226706.273    20226711.866
  23771455.409    -7528494.40849  -5840894.35645  23771454.345    23771462.445
  21415430.082   -24806355.46949 -19299600.36947  21415429.067    21415435.411
  20797439.261   -26430014.23049 -20576980.63247  20797438.403    20797442.514
 03  2 27  2 38 30.0000000  0  8G14G23G 3G 9G15G31G17G18
  21769087.639   -21236672.38149 -16515422.32447  21769086.755    21769092.435
  22429812.709   -16930140.84949 -13160290.72946  22429811.705    22429817.469
  22078119.179   -19748329.37949 -15370652.57847  22078118.467    22078124.865
  23458972.006   -13976791.59449 -10871103.56745  23458971.272    23458977.834
  20226839.611   -30696023.47849 -23620482.37548  20226838.521    20226844.132
  23757255.432    -7603115.75049  -5899040.72545  23757254.385    23757262.306
  21424364.752   -24759403.29949 -19263014.26447  21424363.752    21424370.083
  20803070.040   -26400424.03249 -20553923.30147  20803069.175    20803073.314
 03  2 27  2 39  0.0000000  0  8G14G23G 3G 9G15G31G17G18
  21752675.112   -21322920.44249 -16582628.52247  21752674.227    21752679.895
  22440826.170   -16872264.35049 -13115192.11746  22440825.170    22440830.944
  22072480.901   -19777958.58649 -15393740.22747  22072480.190    22072486.578
  23451473.254   -14016197.12949 -10901809.04845  23451472.564    23451479.167
  20227042.837   -30694955.45649 -23619650.11948  20227041.750    20227047.360
  23743133.153    -7677328.34049  -5956868.58945  23743132.202    23743139.961
  21433364.891   -24712107.21949 -19226160.17747  21433363.871    21433370.218
  20808740.510   -26370625.36249 -20530703.52247  20808739.649    20808743.790
 03  2 27  2 39 30.0000000  0  8G14G23G 3G 9G15G31G17G18
  21736333.071   -21408798.02149 -16649546.02847  21736332.181    21736337.825
  22451847.893   -16814344.74349 -13070059.92246  22451846.910    22451852.641
  22066946.033   -19807044.17249 -15416404.27547  22066945.312    22066951.716
  23444061.931   -14055142.93849 -10932156.30145  23444061.165    23444067.909
  20227317.375   -30693512.65849 -23618525.83148  20227316.290    20227321.862
  23729089.255    -7751129.14449  -6014375.56645  23729088.344    23729096.034
  21442430.702   -24664466.02549 -19189037.17847  21442429.715    21442436.064
  20814450.567   -26340618.63049 -20507321.61747  20814449.716    20814453.863
 03  2 27  2 40  0.0000000  0  8G14G23G 3G 9G15G31G17G18
  21720061.931   -21494302.94849 -16716173.16047  21720061.045    21720066.672
  22462877.693   -16756382.82949 -13024894.75946  22462876.714    22462882.382
  22061514.768   -19835585.41249 -15438644.16247  22061514.052    22061520.474
  23436738.532   -14093626.52749 -10962143.40845  23436737.755    23436744.602
  20227663.461   -30691694.02849 -23617108.68548  20227662.361    20227667.912
  23715124.114    -7824515.93749  -6071559.94945  23715123.082    23715130.834
  21451562.201   -24616479.71549 -19151645.25147  21451561.203    21451567.545
  20820200.046   -26310404.76349 -20483778.30447  20820199.196    20820203.338
 03  2 27  2 40 30.0000000  0  8G14G23G 3G 9G15G31G17G18
  21703862.008   -21579433.71249 -16782508.73747  21703861.130    21703866.725
  22473915.254   -16698380.20549 -12979697.89446  22473914.273    22473919.864
  22056187.122   -19863582.03749 -15460459.67347  22056186.380    22056192.824
  23429503.507   -14131645.98949 -10991768.85245  23429502.803    23429509.600
  20228081.123   -30689499.16749 -23615398.37848  20228080.022    20228085.536
  23701238.060    -7897487.12249  -6128420.49645  23701237.005    23701244.697
  21460759.318   -24568148.65849 -19113984.70047  21460758.316    21460764.643
  20825988.640   -26279985.48949 -20460074.93747  20825987.779    20825991.935
 03  2 27  2 41  0.0000000  0  8G14G23G 3G 9G15G31G17G18
  21687733.598   -21664188.76249 -16848551.54347  21687732.695    21687738.281
  22484960.349   -16640337.79649 -12934470.02046  22484959.347    22484964.939
  22050963.188   -19891033.74349 -15481850.57547  22050962.436    22050968.894
  23422357.186   -14169199.26249 -11021031.04345  23422356.510    23422363.240
  20228570.513   -30686927.25449 -23613394.25948  20228569.403    20228574.935
  23687431.503    -7970040.76349  -6184955.67445  23687430.383    23687438.088
  21470022.123   -24519472.36749 -19076055.13247  21470021.104    21470027.453
  20831816.024   -26249362.20649 -20436212.59847  20831815.174    20831819.318
 03  2 27  2 41 30.0000000  0  8G14G23G 3G 9G15G31G17G18
  21671677.401   -21748564.30449 -16914298.62947  21671676.511    21671682.019
  22496013.034   -16582254.98249 -12889210.67246  22496012.065    22496017.635
  22045843.312   -19917938.35049 -15502815.16447  22045842.571    22045849.070
  23415300.375   -14206282.44049 -11049926.94345  23415299.645    23415306.315
  20229132.136   -30683975.71849 -23611094.33548  20229131.034    20229136.556
  23673705.074    -8042173.18949  -6241162.66045  23673703.906    23673711.480
  21479350.848   -24470449.58349 -19037855.57347  21479349.836    21479356.165
  20837682.301   -26218534.50849 -20412190.97647  20837681.443    20837685.579
 03  2 27  2 42  0.0000000  0  8G14G23G 3G 9G15G31G17G18
  21655693.639   -21832559.35449 -16979749.22647  21655692.736    21655698.191
  22507073.047   -16524133.69449 -12843921.33746  22507072.068    22507077.654
  22040827.514   -19944296.33649 -15523353.81247  22040826.773    22040833.256
  23408333.297   -14242894.23649 -11078455.53745  23408332.549    23408339.190
  20229765.966   -30680644.75249 -23608498.74448  20229764.865    20229770.387
  23660059.009    -8113883.44349  -6297040.68445  23660057.893    23660065.430
  21488745.334   -24421081.18749 -18999386.69747  21488744.322    21488750.653
  20843587.045   -26187504.67549 -20388011.84547  20843586.186    20843590.314
 03  2 27  2 42 30.0000000  0  8G14G23G 3G 9G15G31G17G18
  21639782.670   -21916171.70449 -17044901.61947  21639781.791    21639787.170
  22518140.358   -16465974.29349 -12798602.31146  22518139.397    22518144.974
  22035915.948   -19970106.48949 -15543465.58147  22035915.233    22035921.705
  23401456.431   -14279032.11649 -11106614.82745  23401455.790    23401462.252
  20230472.325   -30676932.80649 -23605606.28948  20230471.226    20230476.729
  23646493.751    -8185168.87949  -6352587.68745  23646492.723    23646500.164
  21498205.636   -24371367.06449 -18960648.43547  21498204.603    21498210.929
  20849530.128   -26156273.53449 -20363675.86147  20849529.281    20849533.372
 03  2 27  2 43  0.0000000  0  8G14G23G 3G 9G15G31G17G18
  21623944.984   -21999398.98549 -17109753.96047  21623944.095    21623949.437
  22529214.894   -16407777.15549 -12753253.87346  22529213.930    22529219.495
  22031108.803   -19995367.97449 -15563149.81647  22031108.081    22031114.553
  23394670.247   -14314693.46149 -11134402.80745  23394669.648    23394675.957
  20231251.373   -30672838.75649 -23602416.08748  20231250.257    20231255.721
  23633009.745    -8256027.17549  -6407801.86345  23633008.699    23633016.140
  21507731.895   -24321306.47249 -18921640.18347  21507730.868    21507737.158
  20855511.359   -26124841.74949 -20339183.53047  20855510.511    20855514.575
 03  2 27  2 43 30.0000000  0  8G14G23G 3G 9G15G31G17G18
  21608180.698   -22082240.52549 -17174305.71347  21608179.818    21608185.126
  22540296.244   -16349544.34749 -12707877.62146  22540295.288    22540300.870
  22026405.964   -20020081.38949 -15582406.97447  22026405.227    22026411.698
  23387975.017   -14349877.17449 -11161818.58645  23387974.353    23387980.625
  20232103.117   -30668362.84849 -23598928.33348  20232102.007    20232107.434
  23619607.218    -8326457.36249  -6462682.42845  23619606.357    23619613.734
  21517323.909   -24270899.94549 -18882362.35947  21517322.887    21517329.185
  20861530.317   -26093211.93949 -20314536.89447  20861529.464    20861533.523
 03  2 27  2 44  0.0000000  0  8G14G23G 3G 9G15G31G17G18
  21592490.512   -22164692.76049 -17238554.11947  21592489.611    21592494.907
  22551384.434   -16291275.22549 -12662473.08446  22551383.483    22551389.202
  22021807.810   -20044244.67349 -15601235.46347  22021807.090    22021813.518
  23381371.421   -14384579.58149 -11188859.32545  23381370.714    23381376.920
  20233028.007   -30663502.47249 -23595140.99648  20233026.897    20233032.291
  23606286.857    -8396455.90949  -6517226.66945  23606285.979    23606293.359
  21526982.039   -24220146.03049 -18842813.85747  21526981.021    21526987.330
  20867587.051   -26061383.47749 -20289735.47047  20867586.211    20867590.229
 03  2 27  2 44 30.0000000  0  8G14G23G 3G 9G15G31G17G18
  21576874.659   -22246754.18549 -17302498.00747  21576873.781    21576879.045
  22562479.186   -16232970.98149 -12617041.18946  22562478.271    22562484.165
  22017314.332   -20067857.87149 -15619635.31747  22017313.601    22017320.018
  23374859.641   -14418798.88349 -11215523.63045  23374858.932    23374865.178
  20234026.121   -30658257.25749 -23591053.78648  20234024.996    20234030.379
  23593048.973    -8466021.14649  -6571433.25245  23593048.093    23593055.541
  21536706.144   -24169045.43649 -18802995.21147  21536705.159    21536711.447
  20873681.282   -26029357.93549 -20264780.48147  20873680.432    20873684.447
 03  2 27  2 45  0.0000000  0  8G14G23G 3G 9G15G31G17G18
  21561333.645   -22328422.42049 -17366135.50347  21561332.780    21561338.035
  22573580.545   -16174631.90449 -12571582.13446  22573579.626    22573585.752
  22012925.776   -20090919.85949 -15637605.65347  22012925.039    22012931.410
  23368440.365   -14452532.49349 -11241809.46745  23368439.686    23368445.834
  20235097.749   -30652625.57149 -23586665.44048  20235096.634    20235102.020
  23579893.981    -8535150.59249  -6625300.25145  23579893.040    23579900.625
  21546496.311   -24117597.70349 -18762906.06347  21546495.312    21546501.626
  20879812.953   -25997135.93349 -20239672.40747  20879812.097    20879816.101
 03  2 27  2 45 30.0000000  0  8G14G23G 3G 9G15G31G17G18
  21545867.835   -22409695.31849 -17429464.95147  21545866.967    21545872.222
  22584688.543   -16116258.62349 -12526096.45346  22584687.646    22584693.780
  22008642.258   -20113429.87849 -15655145.88947  22008641.515    22008647.860
  23362113.923   -14485777.98349 -11267714.97545  23362113.286    23362119.343
  20236243.135   -30646606.46649 -23581975.20848  20236242.021    20236247.405
  23566822.361    -8603841.94649  -6678825.87545  23566821.429    23566828.954
  21556352.673   -24065802.00049 -18722545.77447  21556351.678    21556357.981
  20885981.776   -25964718.49049 -20214412.04647  20885980.916    20885984.914
 03  2 27  2 46  0.0000000  0  8G14G23G 3G 9G15G31G17G18
  21530477.656   -22490571.06149 -17492484.92447  21530476.791    21530482.037
  22595803.002   -16057852.09249 -12480584.85446  22595802.082    22595808.128
  22004463.859   -20135387.46749 -15672255.65447  22004463.117    22004469.394
  23355880.713   -14518533.35649 -11293238.56745  23355880.051    23355886.157
  20237462.354   -30640199.27749 -23576982.57348  20237461.237    20237466.605
  23553834.448    -8672093.42449  -6732008.73645  23553833.510    23553840.990
  21566275.189   -24013658.76249 -18681914.68847  21566274.199    21566280.473
  20892187.545   -25932106.77649 -20189000.29947  20892186.690    20892190.686
 03  2 27  2 46 30.0000000  0  8G14G23G 3G 9G15G31G17G18
  21515163.178   -22571048.80349 -17555194.76847  21515162.323    21515167.550
  22606923.523   -15999413.96549 -12435048.64246  22606922.603    22606928.494
  22000390.479   -20156793.16349 -15688935.36847  22000389.737    22000395.984
  23349741.029   -14550797.40149 -11318379.29645  23349740.311    23349746.459
  20238755.493   -30633403.69849 -23571687.29948  20238754.382    20238759.763
  23540930.452    -8739903.75449  -6784847.83645  23540929.584    23540937.052
  21576263.682   -23961169.03049 -18641013.61047  21576262.704    21576268.954
  20898429.905   -25899302.83349 -20163438.76547  20898429.049    20898433.051
 03  2 27  2 47  0.0000000  0  8G14G23G 3G 9G15G31G17G18
  21499925.106   -22651125.06649 -17617591.77547  21499924.232    21499929.465
  22618050.133   -15940943.50649 -12389487.24446  22618049.191    22618055.047
  21996422.448   -20177645.09649 -15705183.57947  21996421.704    21996427.918
  23343695.449   -14582566.59049 -11343134.44645  23343694.796    23343700.923
  20240123.016   -30626217.28449 -23566087.48348  20240121.895    20240127.270
  23528111.059    -8807269.46749  -6837340.48245  23528110.168    23528117.648
  21586318.513   -23908330.68749 -18599840.88947  21586317.513    21586323.758
  20904708.971   -25866305.95949 -20137726.89747  20904708.122    20904712.099
 03  2 27  2 47 30.0000000  0  8G14G23G 3G 9G15G31G17G18
  21484763.648   -22730798.75449 -17679675.07547  21484762.788    21484767.987
  22629182.535   -15882442.16449 -12343901.77446  22629181.604    22629187.522
  21992559.734   -20197943.63149 -15721000.56747  21992558.998    21992565.190
  23337744.363   -14613839.57849 -11367502.93445  23337743.656    23337749.871
  20241564.944   -30618639.88249 -23560182.99448  20241563.827    20241569.207
  23515376.536    -8874189.34149  -6889485.72745  23515375.704    23515383.127
  21596439.448   -23855144.85649 -18558397.39547  21596438.457    21596444.692
  20911024.347   -25833118.16949 -20111866.26047  20911023.490    20911027.477
 03  2 27  2 48  0.0000000  0  8G14G23G 3G 9G15G31G17G18
  21469679.322   -22810067.12949 -17741442.56347  21469678.471    21469683.637
  22640320.885   -15823909.44749 -12298291.85346  22640319.943    22640325.995
  21988802.607   -20217687.38549 -15736385.26047  21988801.889    21988808.043
  23331888.278   -14644613.08649 -11391482.22245  23331887.651    23331893.768
  20243081.575   -30610669.62249 -23553972.38848  20243080.467    20243085.867
  23502727.426    -8940660.30549  -6941281.17945  23502726.651    23502734.051
  21606626.798   -23801610.17449 -18516682.06847  21606625.784    21606632.041
  20917376.059   -25799739.50149 -20085856.88047  20917375.222    20917379.191
 03  2 27  2 48 30.0000000  0  8G14G23G 3G 9G15G31G17G18
  21454672.593   -22888927.70049 -17802892.27947  21454671.720    21454676.871
  22651465.206   -15765345.80349 -12252657.83646  22651464.268    22651470.345
  21985151.200   -20236875.51249 -15751337.00447  21985150.477    21985156.633
  23326127.732   -14674884.65349 -11415070.38245  23326127.119    23326133.236
  20244673.231   -30602305.23549 -23547454.66748  20244672.125    20244677.536
  23490164.187    -9006680.00049  -6992724.99145  23490163.399    23490170.850
  21616880.532   -23747726.39949 -18474694.72447  21616879.516    21616885.768
  20923764.032   -25766170.44149 -20059699.14647  20923763.200    20923767.150
 03  2 27  2 49  0.0000000  0  8G14G23G 3G 9G15G31G17G18
  21439743.547   -22967380.08949 -17864023.92847  21439742.675    21439747.799
  22662615.057   -15706753.37749 -12207001.39546  22662614.099    22662620.096
  21981605.315   -20255509.13849 -15765856.66747  21981604.562    21981610.722
  23320462.796   -14704653.81849 -11438267.05845  23320462.130    23320468.280
  20246339.755   -30593547.33949 -23540630.31548  20246338.651    20246344.086
  23477686.876    -9072247.94049  -7043816.79445  23477686.146    23477693.520
  21627200.481   -23693494.77849 -18432436.33147  21627199.471    21627205.749
  20930187.708   -25732413.85449 -20033395.29847  20930186.863    20930190.808
 03  2 27  2 49 30.0000000  0  8G14G23G 3G 9G15G31G17G18
  21424892.571   -23045422.24549 -17924835.91847  21424891.686    21424896.791
  22673770.352   -15648132.53249 -12161322.80246  22673769.356    22673775.207
  21978165.042   -20273587.63649 -15779943.75847  21978164.294    21978170.465
  23314893.909   -14733918.28949 -11461070.46545  23314893.215    23314899.296
  20248081.363   -30584394.97149 -23533498.57648  20248080.256    20248085.688
  23465296.027    -9137361.89649  -7094554.85745  23465295.225    23465302.672
  21637586.716   -23638914.91249 -18389906.57347  21637585.701    21637591.995
  20936646.932   -25698470.35049 -20006945.79747  20936646.072    20936649.998
 03  2 27  2 50  0.0000000  0  8G14G23G 3G 9G15G31G17G18
  21410119.944   -23123052.45249 -17985326.90047  21410119.063    21410124.134
  22684930.853   -15589483.97049 -12115622.62746  22684929.860    22684935.575
  21974830.455   -20291110.74149 -15793598.08347  21974829.712    21974835.873
  23309421.404   -14762676.08049 -11483479.05845  23309420.694    23309426.827
  20249898.248   -30574847.13449 -23526058.67548  20249897.148    20249902.572
  23452991.906    -9202020.06349  -7144937.75945  23452991.063    23452998.452
  21648039.151   -23583987.01649 -18347105.62147  21648038.145    21648044.383
  20943141.549   -25664340.87449 -19980351.37947  20943140.695    20943144.608
 03  2 27  2 50 30.0000000  0  8G14G23G 3G 9G15G31G17G18
  21395426.378   -23200267.24749 -18045494.19547  21395425.505    21395430.570
  22696096.767   -15530806.70549 -12069900.08046  22696095.760    22696101.431
  21971601.912   -20308076.55649 -15806818.16347  21971601.187    21971607.350
  23304046.054   -14790923.43349 -11505489.91845  23304045.315    23304051.501
  20251790.911   -30564901.11349 -23518308.51448  20251789.808    20251795.222
  23440775.165    -9266218.73849  -7194962.62145  23440774.290    23440781.768
  21658558.104   -23528709.72149 -18304032.40847  21658557.063    21658563.298
  20949671.624   -25630024.95949 -19953611.69747  20949670.765    20949674.665
 03  2 27  2 51  0.0000000  0  8G14G23G 3G 9G15G31G17G18
  21380812.058   -23277065.68249 -18105337.05147  21380811.193    21380816.220
  22707267.786   -15472102.24149 -12024156.33846  22707266.786    22707272.484
  21968479.314   -20324485.66549 -15819604.43847  21968478.589    21968484.755
  23298767.903   -14818659.58549 -11527102.43045  23298767.129    23298773.368
  20253759.344   -30554556.92549 -23510248.09048  20253758.235    20253763.639
  23428646.122    -9329956.85249  -7244628.61445  23428645.266    23428652.679
  21669143.477   -23473083.46149 -18260687.27347  21669142.435    21669148.625
  20956236.778   -25595524.53049 -19926728.23847  20956235.910    20956239.817
 03  2 27  2 51 30.0000000  0  8G14G23G 3G 9G15G31G17G18
  21366277.270   -23353446.07749 -18164854.16447  21366276.395    21366281.399
  22718443.874   -15413371.39049 -11978392.03646  22718442.899    22718448.617
  21965462.700   -20340337.96449 -15831956.84347  21965461.947    21965468.160
  23293587.370   -14845882.54149 -11548315.06245  23293586.646    23293592.915
  20255803.611   -30543814.16949 -23501877.09848  20255802.520    20255807.906
  23416605.039    -9393232.73549  -7293934.42345  23416604.162    23416611.507
  21679795.127   -23417108.79049 -18217070.65747  21679794.091    21679800.253
  20962836.860   -25560840.71249 -19899701.87547  20962835.991    20962839.903
 03  2 27  2 52  0.0000000  0  8G14G23G 3G 9G15G31G17G18
  21351822.507   -23429406.07749 -18224043.69847  21351821.642    21351826.620
  22729625.049   -15354614.16449 -11932607.19546  22729624.088    22729629.760
  21962552.210   -20355632.45449 -15843874.59247  21962551.472    21962557.708
  23288505.046   -14872589.64849 -11569125.74445  23288504.314    23288510.625
  20257924.021   -30532671.20449 -23493194.25448  20257922.932    20257928.317
  23404652.433    -9456043.81949  -7342878.05845  23404651.537    23404658.911
  21690513.168   -23360784.96549 -18173181.97146  21690512.151    21690518.308
  20969471.761   -25525973.96849 -19872532.96747  20969470.898    20969474.835
 03  2 27  2 52 30.0000000  0  8G14G23G 3G 9G15G31G17G18
  21337448.001   -23504944.32949 -18282904.60147  21337447.133    21337452.080
  22740811.074   -15295831.78549 -11886802.75546  22740810.095    22740815.707
  21959747.757   -20370369.65949 -15855358.09147  21959747.023    21959753.270
  23283521.142   -14898779.55549 -11589533.41545  23283520.464    23283526.831
  20260120.700   -30521127.57949 -23484199.21048  20260119.601    20260124.984
  23392788.574    -9518388.68049  -7391458.39845  23392787.690    23392794.984
  21701297.540   -23304112.49749 -18129021.62446  21701296.525    21701302.738
  20976141.177   -25490925.64049 -19845222.55647  20976140.330    20976144.279
 03  2 27  2 53  0.0000000  0  8G14G23G 3G 9G15G31G17G18
  21323153.971   -23580059.58749 -18341435.90447  21323153.098    21323158.024
  22752001.648   -15237025.09349 -11840979.36146  22752000.647    22752006.185
  21957049.309   -20384549.97049 -15866407.65347  21957048.562    21957054.806
  23278635.997   -14924450.67649 -11609536.83845  23278635.326    23278641.714
  20262393.694   -30509182.87049 -23474891.63648  20262392.598    20262397.965
  23381013.694    -9580265.86349  -7439674.32245  23381012.832    23381020.058
  21712148.238   -23247091.52249 -18084589.72046  21712147.193    21712153.509
  20982844.927   -25455697.13649 -19817771.74847  20982844.079    20982848.060
 03  2 27  2 53 30.0000000  0  8G14G23G 3G 9G15G31G17G18
  21308941.000   -23654748.96549 -18399635.34647  21308940.138    21308945.031
  22763196.870   -15178193.45549 -11795136.52646  22763195.868    22763201.391
  21954457.142   -20398171.72549 -15877021.97247  21954456.406    21954462.636
  23273850.226   -14949600.04249 -11629133.68645  23273849.579    23273855.932
  20264743.397   -30496835.03449 -23465269.93548  20264742.301    20264747.644
  23369328.445    -9641672.25849  -7487523.39045  23369327.521    23369334.769
  21723065.490   -23189720.97649 -18039885.41646  21723064.445    21723070.822
  20989583.020   -25420288.29849 -19790180.42647  20989582.155    20989586.144
 03  2 27  2 54  0.0000000  0  8G14G23G 3G 9G15G31G17G18
  21294809.341   -23729011.12849 -18457501.89747  21294808.461    21294813.355
  22774396.612   -15119337.94749 -11749275.08246  22774395.614    22774401.098
  21951971.197   -20411235.30749 -15887201.35547  21951970.457    21951976.692
  23269163.994   -14974226.33549 -11648322.95045  23269163.373    23269169.645
  20267169.928   -30484083.62749 -23455333.76548  20267168.831    20267174.149
  23357733.010    -9702606.53249  -7535004.58045  23357732.099    23357739.278
  21734049.089   -23132001.75549 -17994909.41946  21734048.081    21734054.434
  20996355.163   -25384700.57049 -19762449.71647  20996354.296    20996358.258
 03  2 27  2 54 30.0000000  0  8G14G23G 3G 9G15G31G17G18
  21280759.160   -23802844.97649 -18515034.69347  21280758.288    21280763.166
  22785600.723   -15060459.70049 -11703395.90346  22785599.727    22785605.199
  21949591.394   -20423741.19849 -15896946.17047  21949590.674    21949596.883
  23264577.628   -14998328.24449 -11667103.59845  23264576.998    23264583.152
  20269673.312   -30470928.38949 -23445082.92048  20269672.218    20269677.487
  23346227.676    -9763067.46249  -7582116.93745  23346226.714    23346233.878
  21745098.938   -23073934.55449 -17949662.27446  21745097.912    21745104.296
  21003161.066   -25348935.38549 -19734580.72647  21003160.205    21003164.125
 03  2 27  2 55  0.0000000  0  8G14G23G 3G 9G15G31G17G18
  21266791.139   -23876247.12749 -18572231.10047  21266790.258    21266795.129
  22796809.375   -15001557.78049 -11657498.29046  22796808.398    22796813.819
  21947318.054   -20435687.56649 -15906254.99647  21947317.328    21947323.529
  23260091.746   -15021902.18849 -11685472.83446  23260091.054    23260097.186
  20272253.923   -30457367.08449 -23434515.65348  20272252.831    20272258.078
  23334813.048    -9823051.59049  -7628857.74645  23334812.086    23334819.234
  21756215.355   -23015517.52149 -17904142.53046  21756214.316    21756220.688
  21010000.823   -25312992.12249 -19706572.98247  21009999.950    21010003.824
 03  2 27  2 55 30.0000000  0  8G14G23G 3G 9G15G31G17G18
  21252905.251   -23949217.77649 -18629091.28047  21252904.361    21252909.250
  22808022.146   -14942634.69649 -11611584.19946  22808021.135    22808026.525
  21945150.816   -20447076.32049 -15915129.31447  21945150.079    21945156.300
  23255706.254   -15044948.35649 -11703430.82146  23255705.580    23255711.569
  20274911.624   -30443400.75949 -23423632.78548  20274910.522    20274915.766
  23323489.159    -9882559.06549  -7675227.14845  23323488.115    23323495.321
  21767397.962   -22956752.63549 -17858351.73846  21767396.905    21767403.280
  21016873.861   -25276873.86649 -19678428.87147  21016872.982    21016876.865
 03  2 27  2 56  0.0000000  0  8G14G23G 3G 9G15G31G17G18
  21239101.966   -24021754.10149 -18685613.01847  21239101.076    21239105.966
  22819239.049   -14883689.60849 -11565652.98946  22819238.060    22819243.431
  21943089.944   -20457906.18949 -15923568.14047  21943089.215    21943095.414
  23251421.784   -15067463.59449 -11720975.10146  23251421.127    23251427.081
  20277646.761   -30429027.42149 -23412432.76748  20277645.678    20277650.938
  23312256.555    -9941586.80949  -7721222.73846  23312255.452    23312262.710
  21778646.915   -22897639.14249 -17812289.29346  21778645.847    21778652.219
  21023780.293   -25240580.01549 -19650147.93647  21023779.420    21023783.329
 03  2 27  2 56 30.0000000  0  8G14G23G 3G 9G15G31G17G18
  21225381.565   -24093855.01249 -18741795.47347  21225380.675    21225385.569
  22830459.838   -14824723.70749 -11519705.54746  22830458.833    22830464.275
  21941135.311   -20468177.76549 -15931571.92647  21941134.569    21941140.768
  23247238.475   -15089446.80949 -11738104.81746  23247237.803    23247243.806
  20280459.370   -30414246.87449 -23400915.44048  20280458.271    20280463.561
  23301115.419   -10000133.52549  -7766843.50446  23301114.354    23301121.547
  21789962.167   -22838177.07149 -17765955.23446  21789961.114    21789967.491
  21030719.853   -25204112.15849 -19621731.41047  21030718.986    21030722.923
 03  2 27  2 57  0.0000000  0  8G14G23G 3G 9G15G31G17G18
  21211744.649   -24165516.99649 -18797635.91847  21211743.766    21211748.660
  22841684.828   -14765735.62549 -11473740.79646  22841683.871    22841689.348
  21939287.327   -20477888.87949 -15939139.00047  21939286.598    21939292.746
  23243157.022   -15110894.59349 -11754817.31546  23243156.298    23243162.390
  20283350.074   -30399056.05349 -23389078.41948  20283348.980    20283354.279
  23290066.493   -10058195.75249  -7812086.74445  23290065.463    23290072.641
  21801344.020   -22778365.08649 -17719348.50946  21801342.994    21801349.340
  21037692.718   -25167469.51149 -19593178.69447  21037691.869    21037695.797
 03  2 27  2 57 30.0000000  0  8G14G23G 3G 9G15G31G17G18
  21198191.161   -24236740.70849 -18853134.84347  21198190.278    21198195.174
  22852913.463   -14706728.23049 -11427760.97846  22852912.498    22852918.052
  21937545.499   -20487042.22149 -15946271.44147  21937544.754    21937550.901
  23239177.316   -15131807.58049 -11771113.09746  23239176.573    23239182.690
  20286318.452   -30383457.01249 -23376923.30548  20286317.355    20286322.672
  23279109.652   -10115773.99149  -7856952.84245  23279108.658    23279115.800
  21812792.026   -22718205.60649 -17672471.01446  21812790.969    21812797.292
  21044698.278   -25130655.24849 -19564492.23447  21044697.419    21044701.342
 03  2 27  2 58  0.0000000  0  8G14G23G 3G 9G15G31G17G18
  21184721.699   -24307522.96149 -18908289.77847  21184720.823    21184725.715
  22864146.131   -14647700.49249 -11381765.37546  22864145.172    22864150.680
  21935910.080   -20495636.20449 -15952968.01447  21935909.346    21935915.435
  23235299.960   -15152182.47949 -11786989.58946  23235299.257    23235305.411
  20289364.913   -30367447.60649 -23364448.42448  20289363.816    20289369.118
  23268245.585   -10172864.94149  -7901439.22945  23268244.600    23268251.710
  21824306.418   -22657697.30049 -17625321.70546  21824305.338    21824311.675
  21051736.614   -25093668.64049 -19535671.47747  21051735.747    21051739.634
 03  2 27  2 58 30.0000000  0  8G14G23G 3G 9G15G31G17G18
  21171336.486   -24377862.53549 -18963099.77347  21171335.599    21171340.478
  22875382.557   -14588653.03849 -11335754.39046  22875381.623    22875386.992
  21934381.051   -20503671.19649 -15959229.01047  21934380.314    21934386.366
  23231525.292   -15172018.06449 -11802445.84246  23231524.650    23231530.821
  20292489.634   -30351027.13549 -23351653.24148  20292488.533    20292493.822
  23257474.456   -10229467.26449  -7945544.87745  23257473.437    23257480.572
  21835887.066   -22596840.68649 -17577900.99646  21835886.020    21835892.325
  21058807.455   -25056511.04049 -19506717.47647  21058806.582    21058810.445
 03  2 27  2 59  0.0000000  0  8G14G23G 3G 9G15G31G17G18
  21158035.838   -24447757.53749 -19017563.35047  21158034.957    21158039.804
  22886622.707   -14529586.11549 -11289728.22146  22886621.722    22886627.091
  21932958.497   -20511146.83449 -15965054.15347  21932957.759    21932963.763
  23227853.700   -15191312.09849 -11817480.10846  23227853.052    23227859.214
  20295692.767   -30334194.43449 -23338536.84448  20295691.685    20295696.953
  23246796.699   -10285578.76249  -7989268.05345  23246795.698    23246802.832
  21847534.075   -22535635.48949 -17530208.66146  21847533.008    21847539.338
  21065910.765   -25019182.71349 -19477630.44047  21065909.904    21065913.737
 03  2 27  2 59 30.0000000  0  8G14G23G 3G 9G15G31G17G18
  21144819.834   -24517207.77249 -19071680.34647  21144818.957    21144823.778
  22897866.163   -14470501.58949 -11243688.32646  22897865.188    22897870.537
  21931642.035   -20518064.64749 -15970444.61947  21931641.311    21931647.285
  23224285.254   -15210064.40349 -11832092.24946  23224284.583    23224290.693
  20298974.229   -30316950.21249 -23325099.77648  20298973.123    20298978.399
  23236212.422   -10341199.32349  -8032608.68245  23236211.456    23236218.513
  21859247.097   -22474083.32749 -17482245.95746  21859246.029    21859252.369
  21073046.057   -24981686.21349 -19448412.36047  21073045.194    21073049.024
 03  2 27  3  0  0.0000000  0  8G14G23G 3G 9G15G31G17G18
  21131689.058   -24586210.31949 -19125448.50047  21131688.177    21131692.976
  22909113.034   -14411398.51249 -11197633.96646  22909112.072    22909117.533
  21930431.946   -20524423.60149 -15975399.61747  21930431.219    21930437.175
  23220820.429   -15228272.27749 -11846280.15946  23220819.781    23220825.743
  20302334.424   -30299292.18449 -23311340.26548  20302333.327    20302338.596
  23225722.088   -10396325.86049  -8075564.37045  23225721.187    23225728.135
  21871026.395   -22412182.90749 -17434011.89046  21871025.314    21871031.654
  21080213.444   -24944021.20749 -19419062.98847  21080212.602    21080216.406
 03  2 27  3  0 30.0000000  0  8G14G23G 3G 9G15G31G17G18
  21118643.658   -24654764.06549 -19178866.93247  21118642.778    21118647.567
  22920363.308   -14352277.76249 -11151565.81046  22920362.334    22920367.915
  21929328.047   -20530224.45149 -15979919.73047  21929327.303    21929333.263
  23217459.481   -15245934.42449 -11860042.83046  23217458.848    23217464.656
  20305773.361   -30281220.35749 -23297258.30748  20305772.236    20305777.556
  23215326.068   -10450957.11449  -8118134.09545  23215325.105    23215332.105
  21882871.829   -22349934.82249 -17385506.90346  21882870.754    21882877.112
  21087412.729   -24906188.75249 -19389583.12647  21087411.869    21087415.699
 03  2 27  3  1  0.0000000  0  8G14G23G 3G 9G15G31G17G18
  21105684.037   -24722866.95049 -19231934.05347  21105683.160    21105687.938
  22931616.946   -14293139.17049 -11105483.76046  22931615.982    22931621.574
  21928330.490   -20535466.44349 -15984004.37347  21928329.763    21928335.701
  23214202.768   -15263048.56449 -11873378.49045  23214202.123    23214207.824
  20309291.291   -30262733.35549 -23282852.83948  20309290.181    20309295.535
  23205024.665   -10505090.95149  -8160316.23445  23205023.736    23205030.717
  21894783.522   -22287338.63949 -17336730.69246  21894782.467    21894788.797
  21094643.782   -24868189.26149 -19359973.12247  21094642.943    21094646.768
 03  2 27  3  1 30.0000000  0  8G14G23G 3G 9G15G31G17G18
  21092810.432   -24790518.00149 -19284649.08847  21092809.562    21092814.324
  22942873.809   -14233984.22049 -11059389.00646  22942872.830    22942878.383
  21927439.081   -20540150.73649 -15987654.44047  21927438.340    21927444.277
  23211050.411   -15279613.98749 -11886286.56745  23211049.745    23211055.480
  20312888.200   -30243831.50649 -23268124.10548  20312887.091    20312892.456
  23194818.149   -10558726.46649  -8202110.07145  23194817.172    23194824.141
  21906761.193   -22224395.76849 -17287684.32646  21906760.136    21906766.497
  21101906.302   -24830024.43849 -19330234.28147  21101905.465    21101909.281
 03  2 27  3  2  0.0000000  0  8G14G23G 3G 9G15G31G17G18
  21080023.167   -24857715.25849 -19337010.52447  21080022.294    21080027.035
  22954133.885   -14174812.32849 -11013281.04546  22954132.914    22954138.362
  21926653.899   -20544276.62249 -15990869.39547  21926653.154    21926659.092
  23208002.866   -15295628.37449 -11898765.26745  23208002.155    23208008.011
  20316564.327   -30224513.16949 -23253070.84148  20316563.236    20316568.588
  23184706.881   -10611861.32149  -8243513.77345  23184705.912    23184712.840
  21918804.943   -22161105.40349 -17238367.18146  21918803.898    21918810.246
  21109200.308   -24791694.03849 -19300366.41147  21109199.466    21109203.282
 03  2 27  3  2 30.0000000  0  8G14G23G 3G 9G15G31G17G18
  21067322.562   -24924457.05049 -19389017.05547  21067321.687    21067326.412
  22965397.110   -14115623.83149 -10967160.12746  22965396.157    22965401.518
  21925974.986   -20547844.23649 -15993649.33347  21925974.244    21925980.185
  23205060.399   -15311090.18049 -11910813.38145  23205059.732    23205065.677
  20320319.929   -30204777.48149 -23237692.36648  20320318.836    20320324.166
  23174691.211   -10664493.79549  -8284526.01245  23174690.266    23174697.080
  21930914.827   -22097467.58349 -17188779.28046  21930913.774    21930920.177
  21116525.660   -24753199.06949 -19270370.31847  21116524.804    21116528.573
 03  2 27  3  3  0.0000000  0  8G14G23G 3G 9G15G31G17G18
  21054708.896   -24990742.02349 -19440667.61847  21054708.019    21054712.743
  22976663.292   -14056419.36349 -10921026.76646  22976662.338    22976667.780
  21925402.222   -20550854.14149 -15995994.69347  21925401.470    21925407.380
  23202223.268   -15325998.26849 -11922430.04545  23202222.646    23202228.712
  20324155.016   -30184624.04449 -23221988.36848  20324153.911    20324159.226
  23164771.416   -10716622.52549  -8325145.71146  23164770.483    23164777.305
  21943090.669   -22033482.96449 -17138921.14846  21943089.626    21943096.053
  21123882.134   -24714540.39849 -19240246.67247  21123881.291    21123885.007
 03  2 27  3  3 30.0000000  0  8G14G23G 3G 9G15G31G17G18
  21042182.374   -25056569.04649 -19491961.34647  21042181.501    21042186.218
  22987932.335   -13997199.48149 -10874881.39146  22987931.387    22987936.897
  21924935.441   -20553306.87249 -15997905.89547  21924934.684    21924940.588
  23199491.774   -15340351.44049 -11933614.29645  23199491.157    23199497.357
  20328069.633   -30164052.49949 -23205958.58248  20328068.521    20328073.834
  23154947.696   -10768246.24049  -8365371.90646  23154946.754    23154953.517
  21955332.512   -21969151.67549 -17088792.88346  21955331.480    21955337.922
  21131269.533   -24675719.33349 -19209996.48747  21131268.677    21131272.364
 03  2 27  3  4  0.0000000  0  8G14G23G 3G 9G15G31G17G18
  21029743.224   -25121936.87649 -19542897.25547  21029742.352    21029747.052
  22999204.223   -13937964.78749 -10828724.47246  22999203.303    22999208.901
  21924574.592   -20555202.98549 -15999383.37247  21924573.833    21924579.728
  23196866.252   -15354148.26949 -11944365.04745  23196865.594    23196871.893
  20332063.924   -30143062.26949 -23189602.54548  20332062.816    20332068.119
  23145220.351   -10819363.62149  -8405203.54346  23145219.398    23145226.120
  21967640.104   -21904474.71449 -17038395.26046  21967639.040    21967645.528
  21138687.688   -24636736.76149 -19179620.44747  21138686.802    21138690.503
 03  2 27  3  4 30.0000000  0  8G14G23G 3G 9G15G31G17G18
  21017392.024   -25186842.61849 -19593473.09447  21017391.133    21017395.831
  23010479.181   -13878714.22849 -10782555.19746  23010478.238    23010483.930
  21924319.920   -20556541.28649 -16000426.18647  21924319.170    21924325.044
  23194347.175   -15367385.99349 -11954680.13045  23194346.528    23194352.815
  20336138.261   -30121651.27549 -23172918.63748  20336137.155    20336142.453
  23135589.909   -10869971.62749  -8444638.26746  23135588.955    23135595.664
  21980013.742   -21839450.68649 -16987727.20446  21980012.694    21980019.160
  21146136.634   -24597592.17649 -19149118.16047  21146135.765    21146139.471
 03  2 27  3  5  0.0000000  0  8G14G23G 3G 9G15G31G17G18
  21005128.611   -25251287.08549 -19643689.49847  21005127.723    21005132.411
  23021756.707   -13819450.51749 -10736375.66746  23021755.740    23021761.385
  21924170.902   -20557324.33849 -16001036.34647  21924170.143    21924176.027
  23191934.402   -15380065.68949 -11964560.37845  23191933.788    23191939.843
  20340292.350   -30099821.30649 -23155908.26248  20340291.239    20340296.538
  23126056.289   -10920071.00049  -8483676.66446  23126055.365    23126062.009
  21992453.006   -21774082.03749 -16936790.61046  21992451.952    21992458.401
  21153615.859   -24558288.43749 -19118491.85347  21153614.997    21153618.750
 03  2 27  3  5 30.0000000  0  8G14G23G 3G 9G15G31G17G18
  20992953.510   -25315267.45549 -19693544.27247  20992952.621    20992957.290
  23033036.992   -13760172.49249 -10690185.00146  23033036.011    23033041.604
  21924127.716   -20557551.16749 -16001213.08947  21924126.963    21924132.852
  23189628.374   -15392184.61149 -11974003.66145  23189627.734    23189633.624
  20344526.617   -30077570.25249 -23138569.77548  20344525.508    20344530.773
  23116619.982   -10969658.92949  -8522316.53546  23116619.008    23116625.698
  22004958.012   -21708367.80149 -16885584.73346  22004956.985    22004963.406
  21161125.460   -24518825.10549 -19087741.18947  21161124.588    21161128.370
 03  2 27  3  6  0.0000000  0  8G14G23G 3G 9G15G31G17G18
  20980866.847   -25378783.05349 -19743036.88747  20980865.949    20980870.608
  23044319.770   -13700881.00949 -10643983.86046  23044318.771    23044324.376
  21924190.277   -20557222.41449 -16000956.90647  21924189.499    21924195.397
  23187429.265   -15403741.77249 -11983009.19846  23187428.617    23187434.317
  20348840.997   -30054898.05949 -23120903.12348  20348839.891    20348845.110
  23107281.159   -11018734.38949  -8560557.07746  23107280.233    23107286.848
  22017528.728   -21642308.54849 -16834110.00646  22017527.673    22017534.097
  21168665.185   -24479203.39149 -19056867.10647  21168664.329    21168668.119
 03  2 27  3  6 30.0000000  0  8G14G23G 3G 9G15G31G17G18
  20968868.960   -25441832.34549 -19792166.14247  20968868.065    20968872.709
  23055604.979   -13641576.59049 -10597772.60146  23055603.998    23055609.660
  21924358.381   -20556338.91149 -16000268.45347  21924357.623    21924363.485
  23185337.271   -15414735.99049 -11991576.10546  23185336.615    23185342.102
  20353235.631   -30031804.22949 -23102907.92148  20353234.519    20353239.689
  23098040.173   -11067295.93349  -8598397.17546  23098039.250    23098045.801
  22030165.035   -21575904.60249 -16782366.70146  22030163.984    22030170.404
  21176234.945   -24439424.14749 -19025870.26947  21176234.088    21176237.836
 03  2 27  3  7  0.0000000  0  8G14G23G 3G 9G15G31G17G18
  20956960.100   -25504413.56749 -19840930.66547  20956959.199    20956963.837
  23066892.679   -13582258.87049 -10551550.98746  23066891.723    23066897.428
  21924632.150   -20554900.21249 -15999147.37847  21924631.394    21924637.264
  23183352.601   -15425165.51349 -11999702.96545  23183352.029    23183357.242
  20357710.699   -30008287.56349 -23084583.23448  20357709.591    20357714.736
  23088897.299   -11115341.60249  -8635835.27746  23088896.399    23088902.958
  22042866.856   -21509156.22149 -16730354.99846  22042865.821    22042872.215
  21183834.631   -24399487.60949 -18994750.85947  21183833.767    21183837.504
 03  2 27  3  7 30.0000000  0  8G14G23G 3G 9G15G31G17G18
  20945140.636   -25566525.02749 -19889329.14047  20945139.742    20945144.353
  23078182.974   -13522927.84749 -10505319.00646  23078181.998    23078187.711
  21925011.489   -20552906.68049 -15997593.96547  21925010.741    21925016.623
  23181475.704   -15435028.59149 -12007388.43545  23181475.099    23181480.316
  20362266.440   -29984346.92549 -23065928.18848  20362265.327    20362270.452
  23079852.936   -11162869.66649  -8672870.06346  23079852.051    23079858.629
  22055634.370   -21442062.76849 -16678074.41546  22055633.323    22055639.733
  21191464.177   -24359394.12049 -18963509.14347  21191463.305    21191467.061
 03  2 27  3  8  0.0000000  0  8G14G23G 3G 9G15G31G17G18
  20933410.613   -25628166.60749 -19937361.48347  20933409.722    20933414.310
  23089475.518   -13463585.12549 -10459077.94446  23089474.499    23089480.237
  21925496.081   -20550360.05649 -15995609.57347  21925495.325    21925501.202
  23179706.552   -15444325.14649 -12014632.45845  23179705.934    23179711.235
  20366902.677   -29959983.14349 -23046943.41448  20366901.577    20366906.700
  23070907.131   -11209879.98449  -8709501.39846  23070906.225    23070912.819
  22068467.140   -21374626.38749 -16625526.61846  22068466.079    22068472.497
  21199123.142   -24319145.75249 -18932146.77547  21199122.273    21199126.045
 03  2 27  3  8 30.0000000  0  8G14G23G 3G 9G15G31G17G18
  20921770.597   -25689335.20449 -19985025.26247  20921769.710    20921774.272
  23100770.668   -13404229.14549 -10412826.53946  23100769.630    23100775.321
  21926086.184   -20547259.13349 -15993193.25647  21926085.417    21926091.312
  23178045.695   -15453052.12449 -12021432.65945  23178045.034    23178050.551
  20371619.888   -29935193.88449 -23027627.10348  20371618.772    20371623.928
  23062060.456   -11256369.29449  -8745726.76046  23062059.529    23062066.149
  22081365.410   -21306845.85849 -16572710.65646  22081364.359    22081370.768
  21206811.817   -24278741.34749 -18900662.81047  21206810.960    21206814.735
 03  2 27  3  9  0.0000000  0  8G14G23G 3G 9G15G31G17G18
  20910220.496   -25750031.11749 -20032320.71947  20910219.616    20910224.149
  23112067.946   -13344861.74849 -10366566.23146  23112066.919    23112072.516
  21926781.336   -20543606.02249 -15990346.66147  21926780.566    21926786.484
  23176493.102   -15461210.31949 -12027789.65845  23176492.458    23176498.136
  20376417.857   -29909980.27949 -23007980.12248  20376416.740    20376421.912
  23053312.884   -11302337.77449  -8781546.27246  23053311.974    23053318.577
  22094328.882   -21238722.41449 -16519627.47646  22094327.855    22094334.238
  21214529.745   -24238183.36649 -18869059.17047  21214528.877    21214532.674
 03  2 27  3  9 30.0000000  0  8G14G23G 3G 9G15G31G17G18
  20898760.714   -25810252.56449 -20079246.45847  20898759.830    20898764.348
  23123367.421   -13285482.41549 -10320296.60146  23123366.407    23123372.043
  21927581.591   -20539400.65049 -15987069.73147  21927580.842    21927586.734
  23175049.171   -15468797.61349 -12033701.80545  23175048.578    23175054.382
  20381296.818   -29884341.12449 -22988001.55648  20381295.703    20381300.890
  23044664.786   -11347783.56849  -8816958.50746  23044663.851    23044670.504
  22107357.752   -21170255.58949 -16466276.73746  22107356.735    22107363.098
  21222276.859   -24197471.82049 -18837335.87347  21222275.984    21222279.766
 03  2 27  3 10  0.0000000  0  8G14G23G 3G 9G15G31G17G18
  20887391.430   -25869998.38749 -20125801.59247  20887390.551    20887395.042
  23134669.051   -13226091.85449 -10274018.23446  23134668.032    23134673.697
  21928486.809   -20534643.70849 -15983363.00347  21928486.045    21928491.934
  23173714.169   -15475813.24749 -12039168.51245  23173713.492    23173719.460
  20386256.799   -29858276.17049 -22967691.18748  20386255.689    20386260.897
  23036116.332   -11392705.52949  -8851962.55446  23036115.410    23036122.010
  22120451.718   -21101446.49549 -16412659.29546  22120450.701    22120457.024
  21230053.095   -24156607.57349 -18805493.58947  21230052.221    21230055.956
 03  2 27  3 10 30.0000000  0  8G14G23G 3G 9G15G31G17G18
  20876112.940   -25929267.03449 -20171984.89247  20876112.048    20876116.526
  23145972.825   -13166689.92549 -10227731.03246  23145971.807    23145977.527
  21929496.894   -20529335.47249 -15979226.69147  21929496.136    21929502.035
  23172488.207   -15482255.74549 -12044188.63146  23172487.571    23172493.454
  20391297.923   -29831784.82949 -22947048.57848  20391296.829    20391302.038
  23027667.889   -11437102.07949  -8886557.19346  23027666.978    23027673.509
  22133610.725   -21032295.52949 -16358775.44646  22133609.701    22133616.014
  21237858.287   -24115591.04549 -18773532.63047  21237857.417    21237861.128
 03  2 27  3 11  0.0000000  0  8G14G23G 3G 9G15G31G17G18
  20864925.476   -25988057.35949 -20217795.46847  20864924.583    20864929.040
  23157278.746   -13107277.12449 -10181435.34846  23157277.740    23157283.499
  21930611.765   -20523476.63349 -15974661.33447  21930611.014    21930616.919
  23171371.583   -15488124.35449 -12048761.55346  23171370.914    23171376.719
  20396420.285   -29804866.45549 -22926073.21048  20396419.173    20396424.407
  23019319.697   -11480971.94849  -8920741.44046  23019318.767    23019325.276
  22146834.700   -20962803.02649 -16304625.47146  22146833.676    22146839.992
  21245692.260   -24074423.22749 -18741453.79947  21245691.394    21245695.110
 03  2 27  3 11 30.0000000  0  8G14G23G 3G 9G15G31G17G18
  20853829.112   -26046368.95949 -20263233.01547  20853828.215    20853832.641
  23168586.621   -13047854.24749 -10135131.83046  23168585.622    23168591.333
  21931831.190   -20517068.49449 -15969667.94447  21931830.460    21931836.358
  23170364.254   -15493418.47049 -12052886.83146  23170363.641    23170369.334
  20401623.920   -29777521.12849 -22904765.15948  20401622.810    20401628.035
  23011071.828   -11524314.53949  -8954514.81946  23011070.937    23011077.376
  22160123.455   -20892969.89549 -16250210.06846  22160122.427    22160128.797
  21253554.768   -24033105.34049 -18709258.04047  21253553.911    21253557.647
 03  2 27  3 12  0.0000000  0  8G14G23G 3G 9G15G31G17G18
  20842824.244   -26104199.75649 -20308295.91747  20842823.344    20842827.753
  23179896.546   -12988420.56949 -10088819.89046  23179895.492    23179901.167
  21933155.122   -20510110.96049 -15964246.45147  21933154.393    21933160.297
  23169466.547   -15498136.14449 -12056562.91346  23169465.883    23169471.565
  20406909.035   -29749747.57449 -22883123.41847  20406907.942    20406913.152
  23002924.684   -11567127.81849  -8987875.75746  23002923.768    23002930.179
  22173477.175   -20822795.60549 -16195528.83046  22173476.182    22173482.548
  21261445.835   -23991637.34249 -18676945.30447  21261444.968    21261448.768
 03  2 27  3 12 30.0000000  0  8G14G23G 3G 9G15G31G17G18
  20831910.967   -26161549.04249 -20352983.61047  20831910.069    20831914.466
  23191208.363   -12928976.79849 -10042500.06046  23191207.341    23191212.983
  21934583.431   -20502605.14649 -15958397.72747  21934582.694    21934588.572
  23168678.565   -15502276.93649 -12059789.48545  23168677.858    23168683.571
  20412275.701   -29721545.66849 -22861147.89948  20412274.596    20412279.816
  22994878.422   -11609410.94149  -9020823.58846  22994877.558    22994883.950
  22186895.640   -20752280.91649 -16140582.34346  22186894.623    22186901.045
  21269365.271   -23950020.36049 -18644516.46447  21269364.415    21269368.220
 03  2 27  3 13  0.0000000  0  8G14G23G 3G 9G15G31G17G18
  20821089.498   -26218415.95549 -20397295.43047  20821088.610    20821093.009
  23202521.884   -12869523.37749  -9996172.73146  23202520.839    23202526.535
  21936115.932   -20494551.72849 -15952122.29047  21936115.194    21936121.081
  23168000.378   -15505840.06849 -12062565.92445  23167999.678    23168005.467
  20417723.866   -29692915.23549 -22838838.46248  20417722.765    20417727.978
  22986933.236   -11651162.87649  -9053357.51446  22986932.388    22986938.736
  22200378.656   -20681427.09649 -16085371.59046  22200377.668    22200384.173
  21277312.897   -23908255.04749 -18611972.04647  21277312.053    21277315.870
 03  2 27  3 13 30.0000000  0  8G14G23G 3G 9G15G31G17G18
  20810360.355   -26274797.75949 -20441229.24947  20810359.468    20810363.843
  23213837.528   -12810059.01649  -9949836.87646  23213836.515    23213842.214
  21937752.696   -20485950.32849 -15945419.85747  21937751.970    21937757.860
  23167432.605   -15508822.98449 -12064890.23945  23167431.911    23167437.698
  20423253.985   -29663854.42349 -22816193.66948  20423252.886    20423258.076
  22979089.653   -11692381.03249  -9085475.51146  22979088.768    22979095.154
  22213926.455   -20610232.76549 -16029895.51146  22213925.479    22213932.102
  21285288.940   -23866340.60649 -18579311.42647  21285288.082    21285291.903
 03  2 27  3 14  0.0000000  0  8G14G23G 3G 9G15G31G17G18
  20799723.498   -26330694.56449 -20484785.13447  20799722.612    20799726.969
  23225154.968   -12750585.13649  -9903493.59646  23225154.020    23225159.691
  21939493.393   -20476802.76149 -15938291.83647  21939492.655    21939498.563
  23166975.150   -15511225.93049 -12066762.63845  23166974.498    23166980.329
  20428865.836   -29634363.90249 -22793214.03348  20428864.721    20428869.934
  22971347.646   -11733065.32749  -9117177.49746  22971346.778    22971353.086
  22227538.736   -20538699.64949 -15974155.43746  22227537.746    22227544.464
  21293293.004   -23824278.90449 -18546536.04947  21293292.141    21293295.957
 03  2 27  3 14 30.0000000  0  8G14G23G 3G 9G15G31G17G18
  20789179.206   -26386104.99749 -20527962.04047  20789178.321    20789182.678
  23236474.319   -12691101.70249  -9857142.86746  23236473.344    23236478.982
  21941337.941   -20467109.48549 -15930738.59047  21941337.208    21941343.093
  23166628.340   -15513047.89249 -12068182.31745  23166627.688    23166633.543
  20434559.617   -29604442.96849 -22769899.01848  20434558.509    20434563.715
  22963707.483   -11773214.41749  -9148462.45446  22963706.587    22963712.874
  22241215.494   -20466827.84349 -15918151.45446  22241214.477    22241221.273
  21301324.948   -23782070.53049 -18513646.38847  21301324.080    21301327.908
 03  2 27  3 15  0.0000000  0  8G14G23G 3G 9G15G31G17G18
  20778727.539   -26441028.59949 -20570759.59547  20778726.647    20778730.986
  23247795.325   -12631609.57649  -9810785.36146  23247794.337    23247799.991
  21943286.020   -20456872.14349 -15922761.39347  21943285.280    21943291.146
  23166392.182   -15514288.59749 -12069149.07145  23166391.551    23166397.375
  20440335.197   -29574091.93249 -22746248.85748  20440334.091    20440339.306
  22956169.273   -11812827.89249  -9179330.04046  22956168.385    22956174.682
  22254956.552   -20394618.33849 -15861884.32546  22254955.505    22254962.326
  21309384.587   -23739716.80249 -18480643.46347  21309383.701    21309387.562
 03  2 27  3 15 30.0000000  0  8G14G23G 3G 9G15G31G17G18
  20768368.685   -26495464.39849 -20613177.04148  20768367.788    20768372.102
  23259117.984   -12572108.68249  -9764421.02246  23259116.989    23259122.682
  21945337.503   -20446091.37949 -15914360.74947  21945336.760    21945342.616
  23166266.928   -15514947.32149 -12069662.34146  23166266.277    23166272.016
  20446192.704   -29543310.40149 -22722263.24848  20446191.596    20446196.823
  22948733.214   -11851904.56649  -9209779.33546  22948732.264    22948738.561
  22268761.611   -20322072.38249 -15805355.02646  22268760.578    22268767.383
  21317471.787   -23697218.26849 -18447527.72147  21317470.902    21317474.734
 03  2 27  3 16  0.0000000  0  8G14G23G 3G 9G15G31G17G18
  20758102.981   -26549410.76849 -20655213.10948  20758102.085    20758106.396
  23270442.357   -12512598.64649  -9718049.56946  23270441.429    23270447.117
  21947492.307   -20434767.50749 -15905536.91147  21947491.568    21947497.428
  23166252.743   -15515022.53249 -12069720.90946  23166252.038    23166257.695
  20452132.334   -29512097.45249 -22697941.45947  20452131.224    20452136.473
  22941399.588   -11890442.68249  -9239808.95946  22941398.650    22941404.910
  22282630.830   -20249189.37949 -15748563.08246  22282629.816    22282636.557
  21325586.570   -23654574.91649 -18414299.12247  21325585.684    21325589.489
 03  2 27  3 16 30.0000000  0  8G14G23G 3G 9G15G31G17G18
  20747930.581   -26602866.90649 -20696867.18248  20747929.677    20747933.976
  23281768.338   -12453080.03249  -9671671.46046  23281767.388    23281773.144
  21949750.259   -20422901.70449 -15896290.79547  21949749.525    21949755.371
  23166349.698   -15514513.74549 -12069324.42946  23166348.970    23166354.522
  20458154.072   -29480452.98549 -22673283.43247  20458152.946    20458158.198
  22934168.610   -11928441.50549  -9269418.36946  22934167.686    22934173.964
  22296563.976   -20175970.30749 -15691509.28346  22296562.960    22296569.633
  21333728.727   -23611787.70449 -18380958.42547  21333727.838    21333731.612
 03  2 27  3 17  0.0000000  0  8G14G23G 3G 9G15G31G17G18
  20737851.559   -26655832.05749 -20738138.67148  20737850.665    20737854.950
  23293095.981   -12393552.83349  -9625286.64046  23293094.997    23293100.797
  21952111.177   -20410495.05049 -15886623.23447  21952110.420    21952116.262
  23166557.944   -15513420.18749 -12068472.28046  23166557.206    23166562.650
  20464257.990   -29448376.67949 -22648288.90047  20464256.850    20464262.104
  22927040.428   -11965900.15349  -9298606.86046  22927039.501    22927045.787
  22310560.941   -20102415.63249 -15634193.96446  22310559.941    22310566.558
  21341898.072   -23568857.33949 -18347506.19347  21341897.192    21341900.957
